[[{"header":{"parameterUnit":"m.s-1","parameterCategory":1,"la1":30.6,"la2":29.2853,"lo1":-89.7004,"lo2":-87.6739,"dy":0.0162,"dx":0.0183,"nx":112,"ny":82,"refTime":"2026-04-29T12:00:00:Z","depth":0,"parameterNumber":2,"parameterNumberName":"U-component_of_WINDS"},"data":[0.0,0.0,0.0,0.0,0.0,0.0,0.0,0.0,0.0,0.0,0.0,0.0,0.0,0.0,0.0,0.0,0.0,0.0,0.0,0.0,0.0,0.0,0.0,0.0,0.0,0.0,0.0,0.0,0.0,0.0,0.0,0.0,0.0,0.0,0.0,0.0,0.0,0.0,0.0,0.0,0.0,0.0,0.0,0.0,0.0,0.0,0.0,0.0,0.0,0.0,0.0,0.0,0.0,0.0,0.0,0.0,0.0,0.0,0.0,0.0,0.0,0.0,0.0,0.0,0.0,0.0,0.0,0.0,0.0,0.0,0.0,0.0,0.0,0.0,0.0,0.0,0.0,0.0,0.0,0.0,0.0,0.0,0.0,0.0,0.0,0.0,0.0,0.0,0.0,0.0,0.0,-0.4665,-0.1827,-0.0,-0.0,-0.0,-0.0,-0.0,0.0,0.0,0.0,0.0,0.0,0.0,0.0,0.0,0.0,0.0,0.0,0.0,0.0,0.0,0.0,0.0,0.0,0.0,0.0,0.0,0.0,0.0,0.0,0.0,0.0,0.0,0.0,0.0,0.0,0.0,0.0,0.0,0.0,0.0,0.0,0.0,0.0,0.0,0.0,0.0,0.0,0.0,0.0,0.0,0.0,0.0,0.0,0.0,0.0,0.0,0.0,0.0,0.0,0.0,0.0,0.0,0.0,0.0,0.0,0.0,0.0,0.0,0.0,0.0,0.0,0.0,0.0,0.0,0.0,0.0,0.0,0.0,0.0,0.0,0.0,0.0,0.0,0.0,0.0,0.0,0.0,0.0,0.0,0.0,0.0,0.0,0.0,0.0,0.0,0.0,0.0,0.0,0.0,0.0,0.0,0.0,0.0,0.0,0.0,0.0,0.0,0.0,0.0,0.0,-0.4359,-0.5192,-0.208,-0.0,-0.0,-0.0,-0.0,-0.0,0.0,0.0,0.0,0.0,0.0,0.0,0.0,0.0,0.0,0.0,0.0,0.0,0.0,0.0,0.0,0.0,0.0,0.0,0.0,0.0,0.0,0.0,0.0,0.0,0.0,0.0,0.0,0.0,0.0,0.0,0.0,0.0,0.0,0.0,0.0,0.0,0.0,0.0,0.0,0.0,0.0,0.0,0.0,0.0,0.0,0.0,0.0,0.0,0.0,0.0,0.0,0.0,0.0,0.0,0.0,0.0,0.0,0.0,0.0,0.0,0.0,0.0,0.0,0.0,0.0,0.0,0.0,0.0,0.0,0.0,0.0,0.0,0.0,0.0,0.0,0.0,0.0,0.0,0.0,0.0,0.0,0.0,0.0,0.0,0.0,0.0,0.0,0.0,0.0,0.0,0.0,0.0,0.0,0.0,0.0,0.0,0.0,0.0,0.0,0.0,0.0,0.0,0.0,-0.3623,-0.371,-0.5638,-0.2391,-0.0,-0.0,-0.2062,-0.3098,-0.2449,-0.1548,0.0,0.0,0.0,0.0,0.0,0.0,0.0,0.0,0.0,0.0,0.0,0.0,0.0,0.0,0.0,0.0,0.0,0.0,0.0,0.0,0.0,0.0,0.0,0.0,0.0,0.0,0.0,0.0,0.0,0.0,0.0,0.0,0.0,0.0,0.0,0.0,0.0,0.0,0.0,0.0,0.0,0.0,0.0,0.0,0.0,0.0,0.0,0.0,0.0,0.0,0.0,0.0,0.0,0.0,0.0,0.0,0.0,0.0,0.0,0.0,0.0,0.0,0.0,0.0,0.0,0.0,0.0,0.0,0.0,0.0,0.0,0.0,0.0,0.0,0.0,0.0,0.0,0.0,0.0,0.0,0.0,0.0,0.0,0.0,0.0,0.0,0.0,0.0,0.0,0.0,0.0,0.0,0.0,0.0,0.0,0.0,0.0,0.0,0.0,0.0,0.0,0.0,-0.3336,-0.2938,-0.4663,-0.1898,-0.0434,-0.1434,-0.4192,-0.5564,-0.4772,-0.3199,0.0,0.0,0.0,0.0,0.0,0.0,0.0,0.0,0.0,0.0,0.0,0.0,0.0,0.0,0.0,0.0,0.0,0.0,0.0,0.0,0.0,0.0,0.0,0.0,0.0,0.0,0.0,0.0,0.0,0.0,0.0,0.0,0.0,0.0,0.0,0.0,0.0,0.0,0.0,0.0,0.0,0.0,0.0,0.0,0.0,0.0,0.0,0.0,0.0,0.0,0.0,0.0,0.0,0.0,0.0,0.0,0.0,0.0,0.0,0.0,0.0,0.0,0.0,0.0,0.0,0.0,0.0,0.0,0.0,0.0,0.0,0.0,0.0,0.0,0.0,0.0,0.0,0.0,0.0,0.0,0.0,0.0,0.0,0.0,0.0,0.0,0.0,0.0,0.0,0.0,0.0,0.0,0.0,0.0,0.0,0.0,0.0,0.0,0.0,0.0,0.0,0.0,-0.3126,-0.2058,-0.0586,-0.0175,-0.1586,-0.5507,-0.5109,-0.4841,-0.5299,-0.4408,0.0,0.0,0.0,0.0,0.0,0.0,0.0,0.0,0.0,0.0,0.0,0.0,0.0,0.0,0.0,0.0,0.0,0.0,0.0,0.0,0.0,0.0,0.0,0.0,0.0,0.0,0.0,0.0,0.0,0.0,0.0,0.0,0.0,0.0,0.0,0.0,0.0,0.0,0.0,0.0,0.0,0.0,0.0,0.0,0.0,0.0,0.0,0.0,0.0,0.0,0.0,0.0,0.0,0.0,0.0,0.0,0.0,0.0,0.0,0.0,0.0,0.0,0.0,0.0,0.0,0.0,0.0,0.0,0.0,0.0,0.0,0.0,0.0,0.0,0.0,0.0,0.0,0.0,0.0,0.0,0.0,0.0,0.0,0.0,0.0,0.0,0.0,0.0,0.0,0.0,0.0,0.0,0.0,0.0,0.0,0.0,0.0,0.0,0.0,0.0,0.0,0.0,-0.3779,-0.3004,0.0,-0.2268,-0.2813,-0.4214,-0.5149,-0.5512,-0.5222,0.0,0.0,0.0,0.0,0.0,0.0,0.0,0.0,0.0,0.0,0.0,0.0,0.0,0.0,0.0,0.0,0.0,0.0,0.0,0.0,0.0,0.0,0.0,0.0,0.0,0.0,0.0,0.0,0.0,0.0,0.0,0.0,0.0,0.0,0.0,0.0,0.0,0.0,0.0,0.0,0.0,0.0,0.0,0.0,0.0,0.0,0.0,0.0,0.0,0.0,0.0,0.0,0.0,0.0,0.0,0.0,0.0,0.0,0.0,0.0,0.0,0.0,0.0,0.0,0.0,0.0,0.0,0.0,0.0,0.0,0.0,0.0,0.0,0.0,0.0,0.0,0.0,0.0,0.0,0.0,0.0,0.0,0.0,0.0,0.0,0.0,0.0,0.0,0.0,0.0,0.0,0.0,0.0,0.0,0.0,0.0,0.0,0.0,0.0,0.0,0.0,0.0,-0.4977,-0.4711,-0.4533,0.0,-0.4711,-0.457,-0.4208,-0.5356,-0.5829,-0.514,0.0,0.0,0.0,0.0,0.0,0.0,0.0,0.0,0.0,0.0,0.0,0.0,0.0,0.0,0.0,0.0,0.0,0.0,0.0,0.0,0.0,0.0,0.0,0.0,0.0,0.0,0.0,0.0,0.0,0.0,0.0,0.0,0.0,0.0,0.0,0.0,0.0,0.0,0.0,0.0,0.0,0.0,0.0,0.0,0.0,0.0,0.0,0.0,0.0,0.0,0.0,0.0,0.0,0.0,0.0,0.0,0.0,0.0,0.0,0.0,0.0,0.0,0.0,0.0,0.0,0.0,0.0,0.0,0.0,0.0,0.0,0.0,0.0,0.0,0.0,0.0,0.0,0.0,0.0,0.0,0.0,0.0,0.0,0.0,0.0,0.0,0.0,0.0,0.0,0.0,0.0,0.0,0.0,0.0,0.0,0.0,0.0,0.0,0.0,0.0,0.0,0.0,-0.5008,-0.5817,-0.6482,-0.7065,-0.7107,-0.6977,-0.6592,-0.6081,-0.5506,0.0,0.0,0.0,0.0,0.0,0.0,0.0,0.0,0.0,0.0,0.0,0.0,0.0,0.0,0.0,0.0,0.0,0.0,0.0,0.0,0.0,0.0,0.0,0.0,0.0,0.0,0.0,0.0,0.0,0.0,0.0,0.0,0.0,0.0,0.0,0.0,0.0,0.0,0.0,0.0,0.0,0.0,0.0,0.0,0.0,0.0,0.0,0.0,0.0,0.0,0.0,0.0,0.0,0.0,0.0,0.0,0.0,0.0,0.0,0.0,0.0,0.0,0.0,0.0,0.0,0.0,0.0,0.0,0.0,0.0,0.0,0.0,0.0,0.0,0.0,0.0,0.0,0.0,0.0,0.0,0.0,0.0,0.0,0.0,0.0,0.0,0.0,0.0,0.0,0.0,0.0,0.0,0.0,0.0,0.0,0.0,0.0,0.0,0.0,0.0,0.0,0.0,0.0,-0.6183,-0.6795,-0.7123,-0.7003,-0.7044,-0.6947,-0.6736,-0.6317,-0.5822,-0.5111,0.0,0.0,0.0,0.0,0.0,0.0,0.0,0.0,0.0,0.0,0.0,0.0,0.0,0.0,0.0,0.0,0.0,0.0,0.0,0.0,0.0,0.0,0.0,0.0,0.0,0.0,0.0,0.0,0.0,0.0,0.0,0.0,0.0,0.0,0.0,0.0,0.0,0.0,0.0,0.0,0.0,0.0,0.0,0.0,0.0,0.0,0.0,0.0,0.0,0.0,0.0,0.0,0.0,0.0,0.0,0.0,0.0,0.0,0.0,0.0,0.0,0.0,0.0,0.0,0.0,0.0,0.0,0.0,0.0,0.0,0.0,0.0,0.0,0.0,0.0,0.0,0.0,0.0,0.0,0.0,0.0,0.0,0.0,0.0,0.0,0.0,0.0,0.0,0.0,0.0,0.0,0.0,0.0,0.0,0.0,0.0,0.0,0.0,0.0,0.0,0.0,0.0,-0.658,-0.6923,-0.7055,-0.6878,-0.7054,-0.7021,-0.6725,-0.6517,-0.6096,-0.5253,0.0,0.0,0.0,0.0,0.0,0.0,0.0,0.0,0.0,0.0,0.0,0.0,0.0,0.0,0.0,0.0,0.0,0.0,0.0,0.0,0.0,0.0,0.0,0.0,0.0,0.0,0.0,0.0,0.0,0.0,0.0,0.0,0.0,0.0,0.0,0.0,0.0,0.0,0.0,0.0,0.0,0.0,0.0,0.0,0.0,0.0,0.0,0.0,0.0,0.0,0.0,0.0,0.0,0.0,0.0,0.0,0.0,0.0,0.0,0.0,0.0,0.0,0.0,0.0,0.0,0.0,0.0,0.0,0.0,0.0,0.0,0.0,0.0,0.0,0.0,0.0,0.0,0.0,0.0,0.0,0.0,0.0,0.0,0.0,0.0,0.0,0.0,0.0,0.0,0.0,0.0,0.0,0.0,0.0,0.0,0.0,0.0,0.0,0.0,0.0,0.0,0.0,-0.6538,-0.6585,-0.6531,-0.6902,-0.7061,-0.7021,-0.6725,-0.6621,-0.6205,-0.5223,0.0,0.0,0.0,0.0,0.0,0.0,0.0,0.0,0.0,0.0,0.0,0.0,0.0,0.0,0.0,0.0,0.0,0.0,0.0,0.0,0.0,0.0,0.0,0.0,0.0,0.0,0.0,0.0,0.0,0.0,0.0,0.0,0.0,0.0,0.0,0.0,0.0,0.0,0.0,0.0,0.0,0.0,0.0,0.0,0.0,0.0,0.0,0.0,0.0,0.0,0.0,0.0,0.0,0.0,0.0,0.0,0.0,0.0,0.0,0.0,-0.3524,0.0,0.0,0.0,0.0,0.0,0.0,0.0,0.0,0.0,0.0,0.0,0.0,0.0,0.0,0.0,0.0,0.0,0.0,0.0,0.0,0.0,0.0,0.0,0.0,0.0,0.0,0.0,0.0,0.0,0.0,0.0,0.0,0.0,0.0,0.0,0.0,0.0,0.0,0.0,0.0,0.0,-0.6781,-0.7199,-0.7407,-0.7044,-0.7122,-0.7024,-0.6826,-0.664,-0.5752,-0.3694,-0.3527,0.0,0.0,0.0,0.0,0.0,0.0,0.0,0.0,0.0,0.0,0.0,0.0,0.0,0.0,0.0,0.0,0.0,0.0,0.0,0.0,0.0,0.0,0.0,0.0,0.0,0.0,0.0,0.0,0.0,0.0,0.0,0.0,0.0,0.0,0.0,0.0,0.0,0.0,0.0,0.0,0.0,0.0,0.0,0.0,0.0,0.0,0.0,0.0,0.0,0.0,0.0,0.0,0.0,0.0,0.0,0.0,0.0,0.0,0.0,0.0,-0.1147,0.0,0.0,0.0,0.0,0.0,0.0,0.0,0.0,0.0,0.0,0.0,0.0,0.0,0.0,0.0,0.0,0.0,0.0,0.0,0.0,0.0,0.0,0.0,0.0,0.0,0.0,0.0,0.0,0.0,0.0,0.0,0.0,0.0,0.0,0.0,0.0,0.0,0.0,0.0,0.0,-0.6847,-0.7026,-0.7133,-0.7092,-0.7139,-0.7024,-0.6736,-0.6075,-0.5054,-0.3718,-0.3993,0.0,0.0,0.0,0.0,0.0,0.0,0.0,0.0,0.0,0.0,0.0,0.0,0.0,0.0,0.0,0.0,0.0,0.0,0.0,0.0,0.0,0.0,0.0,0.0,0.0,0.0,0.0,0.0,0.0,0.0,0.0,0.0,0.0,0.0,0.0,0.0,0.0,0.0,0.0,0.0,0.0,0.0,0.0,0.0,0.0,0.0,0.0,0.0,0.0,0.0,0.0,0.0,0.0,-0.7017,-0.6557,-0.6204,-0.547,-0.4589,-0.3602,-0.1042,-0.0,-0.0,0.0,0.0,0.0,0.0,0.0,0.0,0.0,0.0,0.0,0.0,0.0,0.0,0.0,0.0,0.0,0.0,0.0,0.0,0.0,0.0,0.0,0.0,0.0,0.0,0.0,-0.6305,-0.6169,0.0,0.0,0.0,0.0,0.0,0.0,0.0,0.0,0.0,0.0,0.0,0.0,-0.6639,-0.6637,-0.6702,-0.7099,-0.7139,-0.7024,-0.6729,-0.5592,-0.4813,-0.4549,-0.4999,-0.5014,0.0,0.0,0.0,0.0,0.0,0.0,0.0,0.0,0.0,0.0,0.0,0.0,0.0,0.0,0.0,0.0,0.0,0.0,0.0,0.0,0.0,0.0,0.0,0.0,0.0,0.0,0.0,0.0,0.0,0.0,0.0,0.0,-0.3972,-0.4113,0.0,0.0,0.0,0.0,0.0,0.0,0.0,0.0,0.0,0.0,0.0,0.0,0.0,-0.7996,-0.8357,-0.7964,-0.7736,-0.7763,-0.8082,-0.6836,-0.4364,-0.4261,-0.2918,-0.0524,-0.0207,0.0,-0.0,-0.0,0.0,0.0,0.0,0.0,0.0,0.0,0.0,0.0,0.0,0.0,0.0,0.0,0.0,0.0,0.0,0.0,0.0,0.0,0.0,0.0,0.0,0.0,-0.6939,-0.6834,-0.6919,-0.6953,0.0,-0.5949,-0.5352,-0.546,-0.528,0.0,0.0,0.0,0.0,0.0,0.0,0.0,-0.6061,-0.6508,-0.6939,-0.7122,-0.7139,-0.7024,-0.6826,-0.6526,-0.6257,-0.5999,-0.5781,-0.5527,-0.5274,-0.4728,0.0,0.0,0.0,0.0,0.0,0.0,0.0,0.0,0.0,0.0,0.0,0.0,0.0,0.0,0.0,0.0,0.0,0.0,0.0,0.0,0.0,0.0,0.0,0.0,0.0,0.0,0.0,0.0,0.0,-0.4247,-0.4551,-0.4559,-0.5118,-0.5572,0.0,0.0,0.0,0.0,0.0,0.0,0.0,0.0,0.0,-0.8896,-0.8155,-0.8015,-0.8343,-0.8334,-0.836,-0.8448,-0.874,-0.8146,-0.6649,-0.3259,-0.1126,-0.0,-0.0,-0.0,-0.0,-0.0,-0.0,-0.0,0.0,0.0,0.0,0.0,-0.2818,-0.1938,-0.1946,0.2426,0.0,0.4901,0.0,0.0,0.0,0.0,0.0,0.0,0.0,0.0,0.0,0.0,-0.7309,-0.74,-0.7472,-0.7499,-0.7438,-0.6932,-0.6407,0.0,-0.5766,-0.5467,-0.5031,0.0,0.0,0.0,0.0,-0.5878,-0.6105,-0.661,-0.6983,-0.7126,-0.7139,-0.7024,-0.6732,-0.6709,-0.6556,-0.6287,-0.6034,-0.5738,-0.5508,-0.5155,-0.4779,0.0,0.0,0.0,0.0,0.0,0.0,0.0,0.0,0.0,0.0,0.0,0.0,0.0,0.0,0.0,0.0,0.0,0.0,0.0,0.0,0.0,0.0,0.0,0.0,0.0,0.0,0.0,0.0,-0.4487,-0.4955,-0.5116,-0.5863,-0.6196,0.0,0.0,0.0,0.0,0.0,0.0,-0.8524,-0.8133,-0.8189,-0.8859,-0.8319,-0.8248,-0.8554,-0.8774,-0.894,-0.9052,-0.9181,-0.9198,-0.8851,-0.4347,-0.1411,-0.0,-0.0,-0.0,-0.0,-0.0,-0.0,-0.0,-0.0,-0.0,-0.0267,-0.2476,-0.1953,-0.0,-0.0,0.3867,0.8772,0.7808,0.0,-0.0,-0.0,0.0,0.0,0.0,0.0,-0.3707,-0.6959,-0.7653,-0.7672,-0.7923,-0.7957,-0.7929,-0.7929,-0.7692,-0.7285,0.0,-0.6332,-0.6003,-0.5372,0.0,0.0,0.0,0.0,-0.6071,-0.6339,-0.6729,-0.7024,-0.7129,-0.7139,-0.7021,-0.6725,-0.6702,-0.6573,-0.6281,-0.6152,-0.5956,-0.5657,-0.5501,-0.5172,-0.4643,0.0,0.0,0.0,0.0,0.0,0.0,0.0,0.0,0.0,0.0,0.0,0.0,0.0,0.0,0.0,0.0,0.0,0.0,0.0,0.0,0.0,0.0,0.0,0.0,0.0,0.0,0.0,0.0,0.0,-0.5677,-0.6091,0.0,0.0,0.0,0.0,-0.7744,-0.7873,-0.788,-0.7683,-0.7908,-0.8215,-0.8668,-0.8749,-0.9025,-0.9323,-0.934,-0.9351,-0.9361,-0.9268,-0.9298,-0.9332,-0.8753,-0.5307,-0.0,-0.0,-0.0,-0.0,-0.0,-0.0,-0.0,-0.0,-0.0,-0.0,-0.0201,-0.0102,-0.0,-0.0,0.3943,0.8931,0.88,0.4845,-0.0,-0.0,-0.0,0.0,0.0,-0.0096,-0.1469,-0.7038,-0.8255,-0.8077,-0.8418,-0.8347,-0.8248,-0.8248,-0.8004,-0.7651,0.0,-0.6865,-0.6566,-0.6247,0.0,-0.5973,-0.5962,-0.6234,-0.6495,-0.6658,-0.6943,-0.7132,-0.7139,-0.7139,-0.7021,-0.6725,-0.6702,-0.6573,-0.6281,-0.6254,-0.6112,-0.5803,-0.5654,-0.5426,-0.5101,-0.4475,0.0,0.0,0.0,0.0,0.0,0.0,0.0,0.0,0.0,0.0,0.0,0.0,0.0,0.0,0.0,0.0,0.0,0.0,0.0,0.0,0.0,0.0,0.0,0.0,0.0,0.0,0.0,0.0,-0.373,-0.4287,0.0,-0.6852,-0.7184,-0.7417,-0.7685,-0.79,-0.8029,-0.8143,-0.8422,-0.8742,-0.9,-0.9111,-0.9276,-0.9381,-0.9381,-0.9435,-0.9432,-0.9436,-0.9513,-0.9643,-0.9529,-0.5962,-0.0,-0.0,-0.0,-0.0,-0.0,-0.0,-0.0,-0.0,-0.0,-0.0,-0.0,-0.0,-0.0,-0.0,0.1417,0.3816,0.7698,0.4838,-0.0,-0.0,-0.0,-0.0,-0.0,-0.0,-0.0518,-0.2517,-0.5691,-0.8367,-0.8516,-0.8489,-0.832,-0.8114,-0.8008,-0.7859,-0.7704,-0.7414,-0.7007,-0.661,-0.658,-0.6512,-0.622,-0.6515,-0.6787,-0.6841,-0.7017,-0.7139,-0.7139,-0.7139,-0.7021,-0.6725,-0.6702,-0.6532,-0.6135,-0.6112,-0.5976,-0.5677,-0.5616,-0.5403,-0.5003,-0.4691,-0.4287,0.0,0.0,0.0,0.0,0.0,0.0,0.0,0.0,0.0,0.0,0.0,0.0,0.0,0.0,0.0,0.0,0.0,0.0,0.0,0.0,0.0,0.0,0.0,0.0,0.0,0.0,-0.2658,-0.188,-0.2125,-0.3008,-0.4762,-0.6688,-0.7865,-0.7953,-0.8179,-0.8382,-0.8696,-0.8964,-0.9191,-0.9361,-0.9425,-0.9483,-0.953,-0.9537,-0.9598,-0.9593,-0.9613,-0.969,-0.9691,-0.7557,-0.4076,-0.0,-0.0,-0.0,-0.0,-0.0,-0.1305,-0.3041,-0.0813,-0.0,-0.0,-0.0,-0.0,-0.0,-0.0,-0.0,0.067,0.4654,0.3176,-0.0,-0.0,-0.0,-0.0,-0.0,-0.0,-0.0,-0.0,-0.2809,-0.5849,-0.694,-0.7127,-0.7074,-0.6882,-0.6692,-0.6611,-0.663,-0.7133,-0.7543,-0.7153,-0.7051,-0.689,-0.6679,-0.684,-0.6997,-0.7078,-0.7115,-0.7139,-0.7139,-0.7139,-0.7021,-0.6725,-0.6654,-0.6478,-0.6129,-0.601,-0.5864,-0.5671,-0.5566,-0.5348,-0.4996,-0.5081,-0.4845,-0.4285,0.0,0.0,0.0,0.0,0.0,0.0,0.0,0.0,0.0,0.0,0.0,0.0,0.0,0.0,0.0,0.0,0.0,0.0,0.0,0.0,0.0,0.0,0.0,-0.3518,-0.3991,-0.3247,-0.0362,-0.0,-0.0,-0.0,-0.505,-0.8401,-0.8635,-0.8828,-0.8987,-0.9141,-0.9337,-0.9456,-0.9605,-0.9615,-0.9683,-0.9822,-0.9849,-0.9741,-0.9744,-0.9801,-0.9704,-0.9319,-0.2842,-0.0,-0.0,-0.0,-0.0,-0.0,-0.0,-0.3922,-0.9121,-0.285,-0.0233,-0.0,-0.0,-0.0,-0.0,-0.0,-0.0,-0.0,-0.0,-0.0,-0.0,-0.0,-0.0,-0.0,-0.0,-0.0,-0.0,-0.0,-0.0,-0.0782,-0.3687,-0.4414,-0.4361,-0.4359,-0.4133,-0.403,-0.4027,-0.6142,-0.7986,-0.7885,-0.7462,-0.7067,-0.7328,-0.721,0.0,-0.7373,-0.7238,-0.7139,-0.7139,-0.7139,-0.7021,-0.6725,-0.6566,-0.6413,-0.6254,-0.5966,-0.58,-0.5793,-0.5515,-0.5287,-0.5125,-0.5715,-0.5764,-0.5336,0.0,0.0,0.0,0.0,0.0,0.0,0.0,0.0,0.0,0.0,0.0,0.0,0.0,0.0,0.0,0.0,0.0,0.0,0.0,0.0,0.0,0.0,-0.2965,-0.1238,-0.1161,-0.0959,-0.0101,-0.0,-0.0,-0.0,-0.1416,-0.4169,-0.8443,-0.888,-0.8978,-0.9278,-0.9432,-0.9469,-0.9513,-0.9717,-0.9788,-0.9846,-0.9834,-0.9787,-0.983,-0.9816,-0.7246,-0.2636,-0.0879,-0.0,-0.0,-0.0,-0.0,-0.0,-0.0,-0.382,-0.9625,-0.7766,-0.4161,-0.0,-0.0,-0.0,-0.0,-0.0,-0.0,-0.0,-0.0,-0.0,-0.0,-0.0,-0.0,-0.0,-0.0,-0.0,-0.0,-0.0,-0.0,-0.0224,-0.1008,-0.1227,-0.1219,-0.1205,-0.2687,-0.4009,-0.3956,-0.6126,-0.7409,-0.5405,-0.5552,-0.579,-0.57,-0.6626,0.0,-0.737,-0.7238,-0.7139,-0.7139,-0.7139,-0.7021,-0.6725,-0.6661,-0.6434,-0.5959,-0.585,-0.5755,-0.565,-0.5464,-0.5496,-0.577,-0.5898,-0.606,0.0,0.0,0.0,0.0,0.0,0.0,0.0,0.0,0.0,0.0,0.0,0.0,0.0,0.0,0.0,0.0,0.0,0.0,0.0,0.0,0.0,0.0,-0.2093,-0.1579,-0.0187,-0.0,-0.0,-0.0,-0.0,-0.0,-0.0,-0.0,-0.1396,-0.4965,-0.639,-0.7085,-0.7326,-0.7501,-0.8147,-0.963,-0.9754,-0.9824,-0.9841,-0.9745,-0.9836,-0.9742,-0.6956,-0.3727,-0.0,-0.0,-0.0,0.0,-0.0,-0.0,-0.0,-0.0,-0.2222,0.0,0.0,0.0,0.0,0.0,-0.0,-0.0,-0.0,-0.0,-0.0,-0.0,-0.0,-0.0,-0.0,-0.0,-0.0,-0.0,-0.0,-0.0,-0.0,-0.1665,-0.3441,-0.3664,-0.2772,-0.1882,-0.1878,-0.316,-0.4181,-0.4001,-0.5274,0.0,-0.577,-0.5241,-0.5116,-0.6139,-0.6988,-0.7543,-0.7475,-0.7333,-0.721,-0.7146,-0.7139,-0.7048,-0.6817,-0.6678,0.0,0.0,0.0,-0.6542,-0.6701,-0.6449,0.0,0.0,0.0,0.0,0.0,0.0,0.0,0.0,-0.8429,-0.8568,0.0,0.0,0.0,0.0,0.0,0.0,0.0,0.0,0.0,0.0,0.0,0.0,0.0,0.0,0.0,0.0,-0.0,-0.0,-0.0,-0.0,-0.0,-0.0,-0.0,-0.0,-0.0,-0.0,-0.0,-0.0,-0.2426,-0.4036,-0.3977,0.0,0.0,0.0,0.0,-0.9478,-0.9741,-0.979,-0.9484,-0.8565,-0.2851,-0.0,-0.0,-0.0,-0.0,-0.0,-0.0,-0.0,-0.0,0.0741,0.1111,0.0494,-0.5324,-0.7625,-0.6895,-0.1424,0.0351,-0.0,-0.0,0.0,0.0,-0.0,-0.0,-0.0,-0.0,-0.0,-0.0,-0.0,-0.0448,-0.0892,-0.0879,-0.4157,-0.7786,-0.8692,-0.6901,-0.5039,-0.5014,-0.4966,-0.488,-0.4579,-0.4495,-0.5239,-0.7601,-0.6042,-0.5227,-0.7666,-0.7841,-0.7691,-0.7641,-0.7478,-0.7319,-0.718,0.0,0.0,-0.7111,-0.6926,-0.6739,-0.6842,-0.7236,-0.7706,-0.8239,-0.7989,-0.7939,-0.8215,-0.9087,-0.9705,-1.0043,-1.0937,-1.1309,-1.1069,-0.9742,-0.9633,0.0,0.0,0.0,0.0,0.0,0.0,0.0,0.0,0.0,0.0,0.0,0.0,0.0,0.0,0.0,-0.0,-0.0,-0.0,-0.0,-0.0,-0.0,-0.0,-0.0,-0.0,-0.0,-0.0,-0.0,-0.0,-0.0492,-0.0862,-0.086,-0.086,-0.123,-0.1845,-0.4488,-0.7057,-0.9774,-0.9771,-0.7103,-0.1837,0.0,0.0,-0.0,-0.0,-0.0,-0.0,-0.0,-0.0,0.037,0.57,0.7945,0.7806,0.6555,0.6043,0.5888,0.4455,0.2269,-0.0,-0.0,-0.0,-0.0,-0.0,-0.0,-0.0,-0.0,-0.0,0.0,-0.0,-0.311,-0.6501,-0.6481,-0.5631,-0.5365,-0.7979,-0.8336,-0.8038,-0.8063,-0.8097,-0.7957,-0.7709,-0.7556,-0.7616,-0.7899,-0.7566,-0.7359,-0.7972,-0.7831,-0.7804,-0.7773,-0.7536,-0.736,-0.7329,-0.7214,-0.7425,-0.8288,-0.8291,-0.8466,-0.8923,-0.8842,-0.8699,-0.8705,-0.8764,-0.9018,-0.9377,-0.9755,-1.0282,-1.0791,-1.1215,-1.1516,-1.169,-1.1141,-1.089,0.0,0.0,0.0,0.0,0.0,0.0,0.0,0.0,0.0,0.0,0.0,-0.0,-0.0,0.0,-0.0,-0.0,-0.0,-0.0,-0.0,-0.0,-0.0,-0.0,-0.0,-0.0,-0.0,-0.0,-0.0,-0.0,-0.0,-0.0,-0.0,-0.0,-0.0,-0.0,-0.1643,-0.3196,-0.4907,-0.4879,-0.3196,-0.0,-0.0,-0.0,-0.0,-0.0,-0.0,-0.0,-0.0,0.1866,0.5199,0.8447,0.9821,0.9798,0.9781,0.9784,0.9661,0.7958,0.6308,0.4447,0.1181,-0.0,-0.0,-0.0,-0.0,-0.0,-0.0,-0.2129,-0.4487,-0.4487,-0.5353,-0.6516,-0.7726,-0.7079,-0.6482,-0.7992,-0.853,-0.8587,-0.8811,-0.8801,-0.8723,-0.8645,-0.8496,-0.834,-0.8197,-0.8109,-0.7955,-0.7955,-0.798,-0.7896,-0.7821,-0.7621,-0.7728,-0.8182,-0.8116,-0.8412,-0.9519,-0.9583,-0.9843,-1.0595,-1.0212,-1.0098,-1.0551,-1.0355,-1.0441,-1.0805,-1.0937,-1.1288,-1.187,-1.2017,-1.2245,-1.2538,-1.2392,-1.2158,0.0,0.0,0.0,0.0,0.0,0.0,0.0,0.0,-0.0,-0.0,-0.0,-0.0,-0.0,-0.0,-0.0,-0.0,-0.0,-0.0,-0.0,-0.0,-0.0,-0.0,-0.0,-0.0,-0.0,-0.0,-0.0,-0.0,-0.0,-0.0,-0.0,-0.0,0.0622,0.2019,0.205,0.1689,0.1053,0.1068,0.1075,0.1075,0.0269,-0.0,-0.0,0.1459,0.2096,0.2071,0.1271,0.4008,0.8949,0.9558,0.9791,0.9771,0.9859,0.9747,0.9774,0.9774,0.9836,0.9004,0.3735,0.1064,-0.0,-0.0,-0.0,-0.0224,-0.1345,-0.5052,-0.8913,-0.891,-0.7168,-0.5753,-0.7663,-0.8203,-0.8337,-0.8347,-0.8296,-0.8343,-0.8608,-0.8665,-0.8659,-0.8628,-0.8526,-0.8394,-0.8252,-0.8123,-0.8038,-0.8038,-0.8038,-0.8093,-0.8254,-0.8083,-0.8377,-0.9405,-0.9367,-0.9666,-1.0869,-1.0995,-1.1282,-1.1992,-1.1599,-1.1633,-1.2478,-1.2024,-1.1884,-1.2124,-1.2131,-1.2365,-1.2916,-1.2916,-1.2966,-1.3213,-1.3267,-1.3126,-0.0126,0.2655,0.5685,0.616,0.3019,-0.0218,0.0,0.0,-0.0,-0.0,-0.0,-0.0,-0.0,-0.0,-0.0,-0.0,-0.0,-0.0,-0.0,-0.0,-0.0,-0.0,-0.0,-0.0,-0.0,-0.0,-0.0,-0.0,-0.0,-0.0,-0.0,-0.0,0.2859,0.9255,0.9522,0.7938,0.4857,0.4793,0.4827,0.4695,0.1475,-0.0,0.0268,0.6651,0.9548,0.9365,0.5863,0.4737,0.5663,0.8625,0.9741,0.9859,0.9836,0.9839,0.9859,0.9859,0.9747,0.9744,0.901,0.4892,-0.0,-0.0,-0.0,-0.1009,-0.6293,-0.8342,-0.891,-0.89,-0.8556,-0.8208,-0.851,-0.8404,-0.8323,-0.8435,-0.8364,-0.8316,-0.8472,-0.8509,-0.8469,-0.8343,-0.8306,-0.8245,-0.8092,-0.8052,-0.8038,-0.8038,-0.8038,-0.8425,-0.9579,-0.9374,-0.9612,-1.0881,-1.0686,-1.0869,-1.198,-1.2779,-1.3294,-1.3349,-1.3121,-1.2949,-1.3106,-1.3046,-1.3026,-1.306,-1.306,-1.3093,-1.316,-1.316,-1.3173,-1.322,-1.3474,-1.344,0.5171,0.6231,0.0,0.0,0.5704,0.3712,0.0726,-0.0,-0.0,-0.0,-0.0,-0.0,-0.0,-0.0,-0.0,0.0,-0.0,-0.0,-0.0,-0.0,-0.0,-0.0,-0.0,-0.0,-0.0,-0.0,-0.0,-0.0,-0.0,-0.0,-0.0,-0.0,0.3274,1.0421,1.0704,1.0041,0.8538,0.8454,0.8478,0.8478,0.6991,0.5101,0.3217,0.6283,0.8789,1.0575,0.8566,0.778,0.7975,0.9268,0.9846,0.9836,0.9825,0.9836,0.9856,0.9856,0.9764,0.9794,0.9744,0.5454,-0.0,-0.0,-0.2306,-0.5688,-0.8136,-0.89,-0.8883,-0.8876,-0.8813,-0.8726,-0.8639,-0.856,-0.8387,-0.8364,-0.8245,-0.8177,-0.8326,-0.836,-0.8367,-0.8387,-0.8326,-0.8248,-0.8184,-0.8692,-0.9118,-0.9118,-0.9118,-0.941,-0.9899,-1.0432,-1.1091,-1.2103,-1.2476,-1.2863,-1.3294,-1.371,-1.3901,-1.3901,-1.3621,-1.346,-1.346,-1.33,-1.3213,-1.3213,-1.3213,-1.3293,-1.346,-1.346,-1.3554,-1.3721,-1.3848,-1.3834,0.8549,0.0,0.0,0.7166,0.7309,0.6777,0.3133,0.1764,0.1216,0.1143,0.1057,0.1072,0.1083,0.121,0.1001,0.0111,-0.0,-0.0,-0.0,-0.0,-0.0,-0.0,-0.0,-0.0,-0.0,-0.0,-0.0,-0.0,-0.0,-0.0,-0.0,-0.0,0.2795,0.9053,1.0254,1.0663,1.0648,1.0648,1.0648,1.0648,1.0655,0.9288,0.684,0.684,0.8268,1.0555,1.0153,1.0002,1.0066,0.991,0.9836,0.9822,0.9829,0.9846,0.9747,0.9754,0.9781,0.9565,0.7683,0.2809,-0.2646,-0.2487,-0.4777,-0.7815,-0.8601,-0.8883,-0.886,-0.8856,-0.895,-0.8913,-0.8801,-0.8659,-0.8509,-0.8364,-0.8214,-0.8123,-0.8194,-0.8208,-0.8238,-0.834,-0.8275,-0.8306,-0.8708,-0.9498,-1.0096,-1.0489,-1.0872,-1.1068,-1.1068,-1.1978,-1.2757,-1.3215,-1.3728,-1.4088,-1.4088,-1.4088,-1.4088,-1.4088,-1.3881,-1.3768,-1.3768,-1.3561,-1.3454,-1.3454,-1.3454,-1.3554,-1.3768,-1.3768,-1.3874,-1.4088,-1.4088,-1.4088,0.0,0.0,0.774,0.7464,0.7496,0.7805,0.7988,0.6125,0.4303,0.3931,0.3846,0.3862,0.3828,0.4093,0.3379,0.0436,-0.0,-0.0,-0.0,-0.0,-0.0,-0.0,-0.0,-0.0,0.0,-0.0,-0.0,-0.0,-0.0,-0.0,-0.0,-0.0,0.165,0.5394,0.89,1.0761,1.0721,1.0724,1.0724,1.0724,1.0744,1.0622,1.0485,1.0485,1.0541,1.04,1.0354,1.0188,1.0039,0.9886,0.9822,0.9822,0.9846,0.9754,0.9784,0.9808,0.9814,0.8934,0.2469,-0.4034,-0.9443,-0.8809,-0.6761,-0.5134,-0.7994,-0.8863,-0.8856,-0.8947,-0.894,-0.8937,-0.8933,-0.8818,-0.8665,-0.8513,-0.8367,-0.8225,-0.8079,-0.8045,-0.8048,-0.8052,-0.8052,-0.8439,-0.9715,-1.0002,-1.0386,-1.1653,-1.2909,-1.3776,-1.3776,-1.4476,-1.4767,-1.4462,-1.4255,-1.4088,-1.4088,-1.4088,-1.4088,-1.4088,-1.4082,-1.4075,-1.4075,-1.4068,-1.4062,-1.4062,-1.4062,-1.4068,-1.4075,-1.4075,-1.4082,-1.4088,-1.4088,-1.4088,0.0,0.0,1.0845,0.9554,0.9509,0.9434,0.8642,0.7788,0.718,0.705,0.6616,0.6412,0.6391,0.6631,0.6582,0.602,0.2613,-0.0,-0.0,-0.0,-0.0,-0.0,-0.0,0.0,0.0,0.0,0.0,-0.0,-0.0,-0.0,-0.0,-0.0,0.0513,0.1797,0.7532,1.0751,1.0741,1.0741,1.0734,1.0721,1.0744,1.0755,1.0755,1.0645,1.0628,1.0575,1.0551,1.0392,1.0236,0.9955,0.9834,0.9757,0.9764,0.9781,0.9808,0.9814,0.4315,-0.2957,-0.074,-0.4309,-0.97,-0.9081,-0.8347,-0.7769,-0.8591,-0.8853,-0.8954,-0.885,-0.895,-0.8944,-0.8846,-0.8835,-0.8672,-0.852,-0.8374,-0.8228,-0.8072,-0.8038,-0.8233,-0.9118,-0.9316,-0.9702,-1.1072,-1.2037,-1.3006,-1.4274,-1.4172,-1.4166,-1.5045,-1.5042,-1.493,-1.4823,-1.4376,-1.4088,-1.4088,-1.4088,-1.4088,-1.4088,-1.4088,-1.4088,-1.4088,-1.4088,-1.4088,-1.4088,-1.4088,-1.4088,-1.4088,-1.4088,-1.4088,-1.4088,-1.4088,-1.4088,1.4416,1.3764,1.2734,1.1505,1.0972,1.0573,0.9655,0.905,0.8565,0.8262,0.7965,0.7588,0.7435,0.7651,0.7982,0.8574,0.498,0.1621,0.0223,-0.0,-0.0,-0.0,-0.0,-0.0,0.0,0.0,0.0,-0.0,-0.0,-0.0,-0.0,-0.0,-0.0,-0.0,0.5701,0.8762,0.8859,1.0089,1.0765,1.0751,1.0765,1.0089,0.8859,0.8745,0.8753,0.8745,0.8755,0.8759,0.85,0.8245,0.8002,0.815,0.9287,0.9804,0.9818,0.9824,0.1478,-0.9186,-0.4943,-0.63,-0.9737,-0.9196,-0.9075,-0.9228,-0.8937,-0.8846,-0.8954,-0.886,-0.8393,-0.8045,-0.8742,-0.8882,-0.8754,-0.8601,-0.8452,-0.8306,-0.8153,-0.8475,-0.892,-0.9801,-1.0386,-1.1068,-1.2431,-1.3686,-1.4854,-1.5635,-1.514,-1.4848,-1.573,-1.5418,-1.5077,-1.4977,-1.4529,-1.4202,-1.4095,-1.4088,-1.4088,-1.4088,-1.4088,-1.4088,-1.4088,-1.4088,-1.4088,-1.4088,-1.4088,-1.4088,-1.4088,-1.4088,-1.4088,-1.4088,-1.4088,-1.4088,1.6201,1.4949,1.3515,1.3241,1.2091,1.1035,1.0941,0.9854,0.8604,0.801,0.787,0.7715,0.0,0.0,0.7605,0.8181,0.7056,0.4849,0.1001,0.0224,-0.0,0.0,0.0,0.0,0.0,0.0,0.0,-0.0,0.0,-0.0,-0.0,-0.0,-0.0,-0.0,0.3309,0.5106,0.5095,0.8617,1.0398,1.0398,1.0672,0.889,0.5633,0.523,0.5096,0.5091,0.5155,0.5081,0.5132,0.4805,0.4611,0.492,0.8047,0.9312,0.9312,0.8955,0.0986,-0.9562,-0.9688,-0.9777,-0.9687,-0.9399,-0.9288,-0.9327,-0.9039,-0.896,-0.886,-0.8749,-0.7493,-0.6586,-0.8406,-0.8846,-0.8899,-0.8747,-0.8594,-0.8442,-0.8402,-0.9241,-0.9998,-1.0194,-1.1263,-1.2528,-1.3782,-1.5045,-1.5832,-1.5832,-1.5832,-1.5832,-1.5832,-1.5578,-1.5291,-1.5017,-1.4703,-1.4409,-1.4135,-1.4095,-1.4088,-1.4088,-1.4088,-1.4088,-1.4088,-1.4088,-1.4088,-1.4088,-1.4088,-1.4088,-1.4088,-1.4088,-1.4088,-1.4088,-1.4088,-1.4088,1.7901,1.7332,1.5992,1.4989,1.3577,1.2341,1.2093,1.0505,0.9209,0.969,0.8852,0.8009,0.0,0.0,0.0,0.759,0.7837,0.0,0.6707,0.2803,0.0,-0.0,0.0,-0.0,-0.0,-0.0,0.0,0.0,-0.0,-0.0,-0.0,-0.0,-0.0,-0.0,0.0933,0.1344,0.1341,0.4962,0.6715,0.6849,0.9451,1.0283,0.9183,0.3764,0.1344,0.1344,0.1339,0.1319,0.1418,0.1284,0.1262,0.1356,0.2221,0.2469,0.1851,-0.296,-0.5427,-0.653,-0.9007,-0.9744,-0.9704,-0.9523,-0.9372,-0.9347,-0.9157,-0.9028,-0.8608,-0.7149,-0.7371,-0.8269,-0.8742,-0.8846,-0.8899,-0.8747,-0.8594,-0.8751,-0.9501,-0.9829,-1.0583,-1.2522,-1.3974,-1.4956,-1.5248,-1.554,-1.5832,-1.5832,-1.5832,-1.5832,-1.5832,-1.5578,-1.5364,-1.5297,-1.483,-1.4489,-1.4416,-1.4208,-1.4088,-1.4088,-1.4088,-1.4088,-1.4088,-1.4088,-1.4088,-1.4088,-1.4088,-1.4088,-1.4088,-1.4088,-1.4088,-1.4088,-1.4088,-1.4088,1.8612,1.8238,1.7166,1.6567,1.4684,1.2855,1.2412,1.0623,0.9112,0.9011,0.8626,0.0,0.0,0.0,0.0,0.0,0.0,0.0,0.8852,0.4908,0.1456,0.0,-0.0,0.0,-0.0,-0.0,-0.0,0.0,-0.0,-0.0,-0.0,-0.0,-0.0,-0.0,-0.0,-0.0,-0.0,0.2014,0.3088,0.3088,0.5114,0.6065,0.593,0.1884,-0.0,-0.0,0.0,-0.0,-0.0,-0.0,-0.0,-0.0,-0.0,-0.1728,-0.4695,-0.8433,-0.8658,-0.7255,-0.9111,-0.9849,-0.9815,-0.9553,-0.9561,-0.9442,-0.9218,-0.9103,-0.8693,-0.7619,-0.8054,-0.8846,-0.886,-0.8846,-0.9023,-0.9581,-0.9587,-0.9696,-1.1017,-1.1468,-1.2328,-1.4364,-1.5337,-1.5832,-1.5832,-1.5832,-1.5832,-1.5832,-1.5832,-1.5832,-1.5832,-1.5691,-1.5538,-1.5411,-1.499,-1.4663,-1.4529,-1.4255,-1.4088,-1.4088,-1.4088,-1.4088,-1.4088,-1.4088,-1.4088,-1.4088,-1.4088,-1.4088,-1.4088,-1.4215,-1.4282,-1.4282,-1.4409,-1.4469,1.8696,1.8163,1.7351,1.7318,1.4931,1.2505,1.212,1.0366,0.8627,0.7684,0.0,0.8382,0.8135,0.7606,0.7532,0.8529,0.0,0.8233,0.8786,0.6426,0.3578,0.0336,-0.0,-0.0,-0.0,0.0741,0.135,0.1332,0.0857,0.0497,-0.0,-0.0,-0.0,-0.0,-0.0,-0.0,-0.0,-0.0,-0.0,-0.0,-0.0,-0.0,-0.0,-0.0,-0.0,-0.0,-0.0,0.0,-0.0,-0.0,-0.0507,-0.1358,-0.1358,-0.457,-0.918,-0.9681,-0.9774,-0.9856,-0.9852,-0.9839,-0.9798,-0.968,-0.9625,-0.9557,-0.9269,-0.9064,-0.8921,-0.8897,-0.8856,-0.8967,-0.9186,-0.9172,-0.9592,-1.1,-1.1048,-1.1088,-1.2602,-1.354,-1.4459,-1.5635,-1.5832,-1.5832,-1.5832,-1.5832,-1.5832,-1.5832,-1.5832,-1.5832,-1.5832,-1.5832,-1.5732,-1.5478,-1.5197,-1.4917,-1.4656,-1.4369,-1.4202,-1.4202,-1.4168,-1.4142,-1.4142,-1.4108,-1.4088,-1.4088,-1.4088,-1.4108,-1.4142,-1.4396,-1.4536,-1.4583,-1.4843,-1.4963,1.8562,1.7412,1.5801,1.559,1.3204,1.0988,1.1374,1.0177,0.0,0.0,0.0,0.8713,0.8692,0.8317,0.0,0.9663,0.0,0.0,0.0,0.0,0.4364,0.0,0.0,0.0,0.0,0.0,0.0,0.0,0.0,0.2865,0.0128,-0.0,-0.0,-0.0,-0.0,-0.0,-0.0,-0.0,-0.0,-0.0,-0.0,-0.0,-0.0,-0.0,-0.0,-0.0,-0.0,0.0,-0.0,-0.0,-0.3263,-0.8058,-0.8058,-0.7168,-0.6033,-0.8754,-0.9741,-0.9852,-0.9832,-0.9825,-0.9819,-0.9791,-0.9703,-0.9578,-0.9395,-0.9256,-0.9127,-0.8984,-0.8944,-0.9161,-1.0355,-1.0676,-1.1105,-1.262,-1.2743,-1.2815,-1.3976,-1.4845,-1.5534,-1.573,-1.5832,-1.5832,-1.5832,-1.5832,-1.5832,-1.5832,-1.5832,-1.5832,-1.5832,-1.5832,-1.5812,-1.5758,-1.5491,-1.5304,-1.5251,-1.4977,-1.481,-1.481,-1.4583,-1.4442,-1.4442,-1.4215,-1.4088,-1.4088,-1.4088,-1.4208,-1.4442,-1.4496,-1.4643,-1.489,-1.4937,-1.4963,1.6636,1.5632,1.4287,1.4151,1.2506,1.0946,1.0654,0.0,0.0,0.0,0.0,0.8995,0.8995,0.0,0.0,0.0,0.0,0.0,0.0,0.0,0.0,0.0,0.0,0.0,0.0,0.0,0.0,0.0,0.0,0.597,0.2668,0.0904,-0.0,-0.0,-0.0,-0.0,-0.0,-0.0,-0.0,-0.0,-0.0,-0.0,-0.0,-0.0,-0.0,-0.0,-0.0,0.0,-0.0255,-0.3675,-0.6902,-0.9814,-0.9804,-0.8897,-0.7625,-0.9236,-0.9849,-0.9836,-0.9825,-0.9822,-0.9822,-0.9822,-0.9774,-0.9676,-0.9449,-0.933,-0.945,-0.9876,-1.0025,-1.0351,-1.1864,-1.2186,-1.262,-1.4019,-1.4693,-1.5071,-1.532,-1.5641,-1.5832,-1.5832,-1.5832,-1.5832,-1.5832,-1.5832,-1.5832,-1.5832,-1.5832,-1.5832,-1.5832,-1.5832,-1.5832,-1.5832,-1.5571,-1.5398,-1.5398,-1.513,-1.4963,-1.4963,-1.483,-1.475,-1.475,-1.4616,-1.4543,-1.4543,-1.4543,-1.4609,-1.475,-1.4903,-1.505,-1.519,-1.5344,-1.5418,1.4372,1.3736,1.2768,1.2605,1.1644,1.0472,0.959,0.8424,0.0,0.0,0.8558,0.911,0.9176,0.0,0.0,0.0,0.0,0.0,0.0,0.0,0.0,0.0,0.0,0.0,0.0,0.0,0.0,0.0,0.0,0.0,0.6029,0.3479,0.144,-0.0,-0.0,-0.0,-0.0,-0.0,-0.0,-0.0,-0.0,-0.0,-0.0,-0.0,-0.0799,-0.2107,-0.2095,0.0,0.0,-0.6677,-0.9147,-0.9798,-0.9781,-0.9754,-0.9849,-0.9849,-0.9836,-0.9822,-0.9822,-0.9822,-0.9822,-0.9822,-0.9822,-0.9764,-0.9817,-0.9838,-1.0111,-1.1211,-1.1538,-1.1864,-1.3372,-1.3804,-1.4126,-1.5524,-1.6291,-1.6647,-1.6413,-1.6086,-1.5832,-1.5832,-1.5832,-1.5832,-1.5832,-1.5832,-1.5832,-1.5832,-1.5832,-1.5832,-1.5832,-1.5832,-1.5832,-1.5832,-1.5625,-1.5491,-1.5491,-1.5284,-1.515,-1.515,-1.509,-1.5057,-1.5057,-1.4997,-1.4963,-1.4963,-1.4963,-1.499,-1.5057,-1.5284,-1.5431,-1.5491,-1.5725,-1.5832,1.3117,1.2238,1.1233,1.0967,0.9554,0.8059,0.7835,0.0,0.0,0.7844,0.8408,0.8925,0.9137,0.9174,0.0,0.0,0.0,0.0,0.0,0.0,0.0,0.0,0.0,0.0,0.0,0.0,0.0,0.0,0.0,0.0,0.934,0.9121,0.6112,0.0131,-0.0,-0.0,-0.0,-0.0,-0.0,-0.0,-0.0,-0.0,-0.0,-0.0,-0.3297,-0.8853,-0.889,0.0,0.0,-0.5081,-0.7146,-0.9741,-0.9859,-0.9846,-0.9825,-0.9825,-0.9822,-0.9822,-0.9822,-0.9822,-0.9822,-0.9822,-0.9822,-1.0002,-1.0961,-1.1315,-1.1574,-1.2736,-1.3053,-1.3372,-1.4877,-1.5204,-1.563,-1.7041,-1.7025,-1.67,-1.6673,-1.6226,-1.5832,-1.5832,-1.5832,-1.5832,-1.5832,-1.5832,-1.5832,-1.5832,-1.5832,-1.5832,-1.5832,-1.5832,-1.5832,-1.5832,-1.5805,-1.5792,-1.5792,-1.5765,-1.5752,-1.5752,-1.5504,-1.5357,-1.5357,-1.5104,-1.4963,-1.4963,-1.4963,-1.5097,-1.5357,-1.5384,-1.5531,-1.5792,-1.5818,-1.5832,1.1084,1.0335,0.9458,0.9261,0.8532,0.7757,0.8045,0.0,0.7927,0.8354,0.8611,0.8844,0.8958,0.8978,0.9171,0.0,0.9122,0.8745,0.0,0.0,0.0,0.0,0.0,0.0,0.0,0.0,0.0,0.0,0.0,0.0,0.9828,0.9745,0.7658,0.3066,0.1043,-0.0,-0.0,-0.0,-0.0,-0.0,-0.4005,-0.5856,-0.585,-0.379,-0.4389,-0.6921,-0.8899,0.0,0.0,-0.7896,-0.8613,-0.9852,-0.9839,-0.9829,-0.9822,-0.9822,-0.9822,-0.9822,-0.9822,-1.0418,-1.1257,-1.1257,-1.1778,-1.2342,-1.1731,-1.203,-1.2995,-1.4218,-1.4556,-1.4883,-1.6387,-1.6717,-1.6823,-1.7477,-1.7268,-1.6927,-1.674,-1.6386,-1.6046,-1.5865,-1.5832,-1.5832,-1.5832,-1.5832,-1.5832,-1.5832,-1.5832,-1.5832,-1.5832,-1.5832,-1.5832,-1.5832,-1.5832,-1.5832,-1.5832,-1.5832,-1.5832,-1.5832,-1.5718,-1.5658,-1.5658,-1.5545,-1.5484,-1.5484,-1.5484,-1.5538,-1.5658,-1.5658,-1.5718,-1.5832,-1.5832,-1.5832,0.9681,0.961,0.9354,0.9184,0.8764,0.8504,0.0,0.8488,0.8259,0.8687,0.8646,0.8533,0.8752,0.8427,0.8257,0.0,0.8188,0.7822,0.7923,0.0,0.0,0.0,0.0,0.0,0.0,0.0,0.0,0.0,0.0,0.0,0.9852,0.9741,0.8682,0.6421,0.2186,-0.0,-0.0,-0.0,-0.0,-0.0133,-0.6723,-0.9745,-0.9736,-0.7348,-0.6347,-0.6531,-0.8783,0.0,0.0,-0.9856,-0.9846,-0.9842,-0.9829,-0.9822,-0.9822,-0.9822,-0.9822,-0.9819,-1.0301,-1.1257,-1.2324,-1.2623,-1.3639,-1.4458,-1.3103,-1.3389,-1.4439,-1.5708,-1.6062,-1.628,-1.7364,-1.7582,-1.7582,-1.7582,-1.7361,-1.7068,-1.6767,-1.648,-1.6186,-1.5885,-1.5832,-1.5832,-1.5832,-1.5832,-1.5832,-1.5832,-1.5832,-1.5832,-1.5832,-1.5832,-1.5832,-1.5832,-1.5832,-1.5832,-1.5832,-1.5832,-1.5832,-1.5832,-1.5832,-1.5832,-1.5832,-1.5832,-1.5832,-1.5832,-1.5832,-1.5832,-1.5832,-1.5832,-1.5832,-1.5832,-1.5832,-1.5832,0.92,1.0382,1.1473,1.132,1.0606,0.9985,0.0,0.9193,0.8651,0.8762,0.8209,0.7943,0.8646,0.7616,0.6991,0.802,0.722,0.6719,0.7647,0.0,0.0,0.0,0.0,0.0,0.0,0.0,0.0,0.0,0.0,0.0,0.9856,0.9787,0.9761,0.978,0.3412,-0.0,-0.0,-0.0,-0.0,-0.0129,-0.6721,-0.9858,-0.9851,-0.9813,-0.9725,0.0,0.0,0.0,0.0,-0.9822,-0.9822,-0.9822,-0.9822,-0.9822,-0.9822,-0.9822,-0.9822,-1.0061,-1.1615,-1.2213,-1.2419,-1.3747,-1.5025,-1.6039,-1.5789,-1.5713,-1.5982,-1.7231,-1.7582,-1.7582,-1.7582,-1.7582,-1.7582,-1.7582,-1.7361,-1.7068,-1.6767,-1.648,-1.6186,-1.5885,-1.5832,-1.5832,-1.5832,-1.5832,-1.5832,-1.5832,-1.5832,-1.5832,-1.5832,-1.5832,-1.5832,-1.5832,-1.5832,-1.5832,-1.5832,-1.5832,-1.5832,-1.5832,-1.5832,-1.5832,-1.5832,-1.5832,-1.5832,-1.5832,-1.5832,-1.5832,-1.5832,-1.5832,-1.5832,-1.5832,-1.5832,-1.5832,0.7791,0.8708,0.9665,0.938,0.9008,0.8729,0.8974,0.8651,0.8264,0.8069,0.7883,0.7616,0.7343,0.6912,0.6971,0.8021,0.7302,0.0,0.0,0.0,0.0,0.0,0.0,0.0,0.0,0.0,0.0,0.0,0.0,0.0,0.9787,0.9808,0.9841,0.9761,0.3392,-0.0,-0.0,-0.0,-0.0,-0.0,-0.4332,-0.762,-0.981,-0.9751,-0.9784,0.0,0.0,0.0,0.0,-0.9822,-0.9822,-0.9822,-0.9822,-0.9822,-0.9822,-0.9822,-1.0543,-1.1499,-1.1972,-1.3547,-1.5168,-1.5671,-1.6517,-1.738,-1.7297,-1.7124,-1.7051,-1.7496,-1.7582,-1.7582,-1.7582,-1.7582,-1.7582,-1.7582,-1.7361,-1.7068,-1.6767,-1.648,-1.6186,-1.5885,-1.5832,-1.5832,-1.5832,-1.5832,-1.5832,-1.5832,-1.5832,-1.5832,-1.5832,-1.5832,-1.5832,-1.5832,-1.5832,-1.5832,-1.5832,-1.5832,-1.5832,-1.5832,-1.5832,-1.5832,-1.5832,-1.5832,-1.5832,-1.5832,-1.5832,-1.5832,-1.5832,-1.5832,-1.5832,-1.5832,-1.5832,-1.5832,0.0,0.8931,0.9813,0.9548,0.9261,0.9008,0.9131,0.8846,0.8399,0.7805,0.745,0.7128,0.6696,0.615,0.6095,0.706,0.6519,0.0,0.0,0.0,0.0,0.0,0.0,0.0,0.0,0.0,0.0,0.0,0.0,0.0,0.9814,0.9824,0.8694,0.6185,0.2118,-0.0,-0.0,-0.0,-0.0,-0.0,-0.3382,-0.6614,-0.9781,-0.9764,-0.9822,0.0,0.0,0.0,0.0,-0.9822,-0.9822,-0.9822,-0.9822,-1.0179,-1.066,-1.066,-1.1736,-1.3159,-1.367,-1.4956,-1.6545,-1.6928,-1.7469,-1.7869,-1.7869,-1.7736,-1.7582,-1.7582,-1.7582,-1.7582,-1.7582,-1.7582,-1.7582,-1.7582,-1.7361,-1.7068,-1.6767,-1.648,-1.6186,-1.5885,-1.5832,-1.5832,-1.5832,-1.5832,-1.5832,-1.5832,-1.5832,-1.5832,-1.5832,-1.5832,-1.5832,-1.5832,-1.5832,-1.5832,-1.5832,-1.5832,-1.5832,-1.5832,-1.5832,-1.5832,-1.5832,-1.5832,-1.5832,-1.5832,-1.5832,-1.5832,-1.5832,-1.5832,-1.5832,-1.5832,-1.5832,-1.5832,0.0,1.0353,1.1228,1.1226,1.0835,1.0417,1.0053,0.9573,0.0,0.7878,0.7128,0.6652,0.6574,0.5462,0.4809,0.5536,0.5255,0.0,0.0,0.0,0.0,0.0,0.0,0.0,0.0,0.0,0.0,0.0,0.0,0.0,0.9186,0.9082,0.6324,0.0247,-0.0,-0.0,-0.0,-0.0,-0.0,-0.0,-0.3322,-0.665,-0.9781,-0.9846,-0.9822,0.0,0.0,0.0,0.0,-0.9822,-0.9822,-0.9822,-0.994,-1.0899,-1.2217,-1.2333,-1.3398,-1.4903,-1.6079,-1.6556,-1.6792,-1.7637,-1.7816,-1.7582,-1.7582,-1.7582,-1.7582,-1.7582,-1.7582,-1.7582,-1.7582,-1.7582,-1.7582,-1.7582,-1.7341,-1.7041,-1.6767,-1.646,-1.6159,-1.5885,-1.5832,-1.5832,-1.5832,-1.5832,-1.5832,-1.5832,-1.5832,-1.5832,-1.5832,-1.5832,-1.5832,-1.5832,-1.5832,-1.5832,-1.5832,-1.5832,-1.5832,-1.5832,-1.5832,-1.5832,-1.5832,-1.5832,-1.5832,-1.5832,-1.5832,-1.5832,-1.5832,-1.5832,-1.5832,-1.5832,-1.5832,-1.5832,0.8905,0.0,0.9676,0.9449,0.9319,0.9207,0.0,0.8984,0.8671,0.7842,0.0,0.7187,0.6276,0.5684,0.5653,0.6815,0.6296,0.0,0.0,0.0,0.0,0.0,0.0,0.0,0.0,0.0,0.0,0.0,0.0,0.7585,0.259,0.2346,0.1606,-0.0,-0.0,-0.0,-0.0,-0.0,-0.0,-0.0,-0.3322,-0.665,-0.9781,-0.9846,-0.9822,0.0,0.0,0.0,-0.9822,-0.9822,-0.9822,-0.994,-1.1137,-1.1856,-1.2333,-1.3526,-1.4841,-1.6079,-1.6368,-1.701,-1.7631,-1.7702,-1.7642,-1.7582,-1.7582,-1.7582,-1.7582,-1.7582,-1.7582,-1.7582,-1.7582,-1.7582,-1.7582,-1.7582,-1.7188,-1.6794,-1.672,-1.6299,-1.5912,-1.5845,-1.5832,-1.5832,-1.5832,-1.5832,-1.5832,-1.5832,-1.5832,-1.5832,-1.5832,-1.5832,-1.5832,-1.5832,-1.5832,-1.5832,-1.5832,-1.5832,-1.5832,-1.5832,-1.5832,-1.5832,-1.5832,-1.5832,-1.5832,-1.5832,-1.5832,-1.5832,-1.5832,-1.5832,-1.5832,-1.5832,-1.5832,-1.5832,0.8374,0.8764,0.9173,0.901,0.8998,0.8977,0.8971,0.0,0.0,0.0,0.0,0.7312,0.5984,0.0,0.0,0.0,0.0,0.0,0.0,0.0,0.0,0.0,0.0,0.0,0.0,0.0,0.0,0.0,0.0,0.3714,0.0242,-0.0,-0.0,-0.0,-0.0,-0.0,-0.0,-0.0,-0.1481,-0.4447,-0.4802,-0.6646,-0.9757,-0.9839,-0.9822,0.0,0.0,0.0,-0.9822,-1.066,-1.0899,-1.1016,-1.2693,-1.376,-1.446,-1.5184,-1.6356,-1.7597,-1.7229,-1.7431,-1.7809,-1.7635,-1.7582,-1.7582,-1.7582,-1.7582,-1.7582,-1.7582,-1.7582,-1.7582,-1.7582,-1.7582,-1.7549,-1.7415,-1.7034,-1.6667,-1.6533,-1.6152,-1.5832,-1.5832,-1.5832,-1.5832,-1.5832,-1.5832,-1.5832,-1.5832,-1.5832,-1.5832,-1.5832,-1.5832,-1.5832,-1.5832,-1.5832,-1.5832,-1.5832,-1.5832,-1.5832,-1.5832,-1.5832,-1.5832,-1.5832,-1.5832,-1.5832,-1.5832,-1.5832,-1.5832,-1.5832,-1.5832,-1.5832,-1.5832,-1.5832,-1.5832,0.7763,0.8277,0.8951,0.8984,0.8996,0.8998,0.8831,0.0,0.0,0.0,0.0,0.0,0.0,0.0,0.0,0.0,0.0,0.0,0.0,0.0,0.0,0.0,0.0,0.0,0.0,0.0,0.0,0.0,0.0,-0.0,-0.0,-0.0835,-0.1322,-0.1322,-0.0974,-0.0735,-0.0735,-0.1231,-0.4074,-0.9054,-0.6778,-0.7131,-0.9856,-0.9832,-0.9822,-0.9822,0.0,0.0,-1.0301,-1.1615,-1.2316,-1.2645,-1.4311,-1.5708,-1.6821,-1.6833,-1.766,-1.8711,-1.8163,-1.7802,-1.7582,-1.7582,-1.7582,-1.7582,-1.7582,-1.7582,-1.7582,-1.7582,-1.7582,-1.7582,-1.7582,-1.7582,-1.7508,-1.7215,-1.6921,-1.6627,-1.6333,-1.6039,-1.5832,-1.5832,-1.5832,-1.5832,-1.5832,-1.5832,-1.5832,-1.5832,-1.5832,-1.5832,-1.5832,-1.5832,-1.5832,-1.5832,-1.5832,-1.5832,-1.5832,-1.5832,-1.5832,-1.5832,-1.5832,-1.5832,-1.5832,-1.5832,-1.5832,-1.5832,-1.5832,-1.5832,-1.5832,-1.5832,-1.5832,-1.5832,-1.5832,-1.5832,0.7155,0.7449,0.7776,0.7884,0.8159,0.8111,0.7198,0.0,0.0,0.0,0.0,0.0,0.0,0.0,0.0,0.0,0.0,0.0,0.0,0.0,0.0,0.0,0.0,0.0,0.0,0.0,0.0,0.0,0.0,-0.0,-0.0,-0.4845,-0.7592,-0.7592,-0.5086,-0.3781,-0.3781,-0.6831,-0.7419,-0.5663,-0.8,-0.9358,-0.9856,-0.9832,-0.9822,-0.9822,0.0,-1.0539,-1.1856,-1.2097,-1.2825,-1.4073,-1.5588,-1.6275,-1.6428,-1.7764,-1.817,-1.813,-1.7776,-1.7622,-1.7582,-1.7582,-1.7582,-1.7582,-1.7582,-1.7582,-1.7582,-1.7582,-1.7582,-1.7582,-1.7582,-1.7582,-1.7508,-1.7215,-1.6921,-1.6627,-1.6333,-1.6039,-1.5832,-1.5832,-1.5832,-1.5832,-1.5832,-1.5832,-1.5832,-1.5832,-1.5832,-1.5832,-1.5832,-1.5832,-1.5832,-1.5832,-1.5832,-1.5832,-1.5832,-1.5832,-1.5832,-1.5832,-1.5832,-1.5832,-1.5832,-1.5832,-1.5832,-1.5832,-1.5832,-1.5832,-1.5832,-1.5832,-1.5832,-1.5832,-1.5832,-1.5832,0.5881,0.6319,0.6934,0.6812,0.76,0.8224,0.7623,0.0,0.0,0.0,0.0,0.0,0.0,0.0,0.0,0.0,0.0,0.0,0.0,0.0,0.0,0.0,0.0,0.0,0.0,0.0,0.0,0.0,0.0,0.0,-0.4822,-0.5901,-0.7211,-0.8868,-0.7621,-0.6935,-0.7041,-0.861,-0.8674,-0.7202,-0.8769,-0.9489,-0.9598,-0.9588,-0.9585,-0.9585,0.0,-1.1095,-1.1913,-1.3655,-1.4635,-1.5341,-1.6952,-1.7453,-1.7439,-1.7967,-1.8056,-1.7776,-1.7629,-1.7582,-1.7582,-1.7582,-1.7582,-1.7582,-1.7582,-1.7582,-1.7582,-1.7582,-1.7582,-1.7582,-1.7582,-1.7582,-1.7508,-1.7215,-1.6921,-1.6627,-1.6333,-1.6039,-1.5832,-1.5832,-1.5832,-1.5832,-1.5832,-1.5832,-1.5832,-1.5832,-1.5832,-1.5832,-1.5832,-1.5832,-1.5832,-1.5832,-1.5832,-1.5832,-1.5832,-1.5832,-1.5832,-1.5832,-1.5832,-1.5832,-1.5832,-1.5832,-1.5832,-1.5832,-1.5832,-1.5832,-1.5832,-1.5832,-1.5832,-1.5832,-1.5832,-1.5832,0.4433,0.5104,0.6037,0.5898,0.0,0.7907,0.764,0.0,0.0,0.0,0.0,0.0,0.0,0.0,0.0,0.0,0.0,0.0,0.0,0.0,0.0,0.0,0.0,0.0,0.0,0.0,0.0,0.0,0.0,0.0,-0.891,-0.6804,-0.6611,-0.8814,-0.8918,-0.8967,-0.9185,-0.9185,-0.9218,-0.9285,-0.9285,-0.9278,-0.9381,-0.9381,-0.961,-0.995,-1.1085,-1.188,-1.279,-1.5175,-1.6275,-1.6679,-1.7929,-1.8343,-1.825,-1.7577,-1.7456,-1.7582,-1.7582,-1.7582,-1.7582,-1.7582,-1.7582,-1.7582,-1.7582,-1.7582,-1.7582,-1.7582,-1.7582,-1.7582,-1.7582,-1.7582,-1.7508,-1.7215,-1.6921,-1.6627,-1.6333,-1.6039,-1.5832,-1.5832,-1.5832,-1.5832,-1.5832,-1.5832,-1.5832,-1.5832,-1.5832,-1.5832,-1.5832,-1.5832,-1.5832,-1.5832,-1.5832,-1.5832,-1.5832,-1.5832,-1.5832,-1.5832,-1.5832,-1.5832,-1.5832,-1.5832,-1.5832,-1.5832,-1.5832,-1.5832,-1.5832,-1.5832,-1.5832,-1.5832,-1.5832,-1.5832,0.309,0.4,0.5035,0.5328,0.5892,0.0,0.5888,0.5335,0.0,0.0,0.0,0.0,0.0,0.0,0.0,0.0,0.0,0.0,0.0,0.0,0.0,0.0,0.0,0.0,0.0,0.0,0.0,0.0,0.0,0.0,-0.8897,-0.8657,-0.8651,-0.888,-0.887,-0.8863,-0.8971,-0.8971,-0.9113,-0.9381,-0.9381,-0.9381,-0.9381,-0.9381,-1.0066,-1.131,-1.1425,-1.3131,-1.5743,-1.5968,-1.6851,-1.7859,-1.7968,-1.7903,-1.7536,-1.6099,-1.6405,-1.7582,-1.7582,-1.7582,-1.7582,-1.7582,-1.7582,-1.7582,-1.7582,-1.7582,-1.7582,-1.7582,-1.7582,-1.7582,-1.7582,-1.7582,-1.7508,-1.7215,-1.6921,-1.6627,-1.6333,-1.6039,-1.5832,-1.5832,-1.5832,-1.5832,-1.5832,-1.5832,-1.5832,-1.5832,-1.5832,-1.5832,-1.5832,-1.5832,-1.5832,-1.5832,-1.5832,-1.5832,-1.5832,-1.5832,-1.5832,-1.5832,-1.5832,-1.5832,-1.5832,-1.5832,-1.5832,-1.5832,-1.5832,-1.5832,-1.5832,-1.5832,-1.5832,-1.5832,-1.5832,-1.5832,0.3449,0.4248,0.4823,0.5033,0.548,0.0,0.0,0.0,0.0,0.0,0.0,0.0,0.0,0.0,0.0,0.0,0.0,0.0,0.0,0.0,0.0,0.0,0.0,0.0,0.0,0.0,0.0,0.0,0.0,0.0,-0.8732,-0.8799,-0.8954,-0.8954,-0.8944,-0.894,-0.894,-0.894,-0.8994,-0.9106,-0.9106,-0.9546,-1.0432,-1.0432,-1.1201,-1.2635,-1.3512,-1.4609,-1.5717,-1.6705,-1.6756,-1.6334,-1.5468,-1.5511,-1.6174,-1.563,-1.628,-1.7582,-1.7582,-1.7582,-1.7582,-1.7582,-1.7582,-1.7582,-1.7582,-1.7582,-1.7582,-1.7582,-1.7582,-1.7582,-1.7582,-1.7582,-1.7555,-1.7442,-1.7194,-1.6901,-1.6607,-1.6313,-1.6052,-1.5865,-1.5832,-1.5832,-1.5832,-1.5832,-1.5832,-1.5832,-1.5832,-1.5832,-1.5832,-1.5832,-1.5832,-1.5832,-1.5832,-1.5832,-1.5832,-1.5832,-1.5832,-1.5832,-1.5832,-1.5832,-1.5832,-1.5832,-1.5832,-1.5832,-1.5832,-1.5832,-1.5832,-1.5832,-1.5832,-1.5832,-1.5832,-1.5832,0.3884,0.4728,0.5196,0.0,0.0,0.0,0.0,0.0,0.0,0.0,0.0,0.0,0.0,0.0,0.0,0.0,0.0,0.0,0.0,0.0,0.0,0.0,0.0,0.0,0.0,0.0,0.0,0.0,0.0,0.0,0.0,-0.8743,-0.8794,-0.8794,-0.8842,-0.8866,-0.8866,-0.8913,-0.894,-0.894,-0.894,-0.9699,-1.1105,-1.1105,-1.2186,-1.4019,-1.4984,-1.5417,-1.5524,-1.6499,-1.6068,-1.4556,-1.3156,-1.348,-1.477,-1.477,-1.5636,-1.6929,-1.747,-1.7582,-1.7582,-1.7582,-1.7582,-1.7582,-1.7582,-1.7582,-1.7582,-1.7582,-1.7582,-1.7582,-1.7582,-1.7582,-1.7582,-1.7582,-1.7361,-1.7068,-1.6767,-1.648,-1.6186,-1.5885,-1.5832,-1.5832,-1.5832,-1.5832,-1.5832,-1.5832,-1.5832,-1.5832,-1.5832,-1.5832,-1.5832,-1.5832,-1.5832,-1.5832,-1.5832,-1.5832,-1.5832,-1.5832,-1.5832,-1.5832,-1.5832,-1.5832,-1.5832,-1.5832,-1.5832,-1.5832,-1.5832,-1.5832,-1.5832,-1.5832,-1.5832,-1.5832,0.415,0.5155,0.0,0.0,0.0,0.0,0.0,0.0,0.0,0.0,0.0,0.0,0.0,0.0,0.0,0.0,0.0,0.0,0.0,0.0,0.0,0.0,0.0,0.0,0.0,0.0,0.0,0.0,0.0,0.0,0.0,-0.8482,-0.8482,-0.8482,-0.8628,-0.871,-0.871,-0.8859,-0.8937,-0.8937,-0.894,-0.9699,-1.1105,-1.1105,-1.2724,-1.5417,-1.5417,-1.5417,-1.5417,-1.5417,-1.4556,-1.3161,-1.1647,-1.1969,-1.3264,-1.327,-1.4234,-1.5636,-1.7041,-1.7582,-1.7582,-1.7582,-1.7582,-1.7582,-1.7582,-1.7582,-1.7582,-1.7582,-1.7582,-1.7582,-1.7582,-1.7582,-1.7582,-1.7582,-1.7361,-1.7074,-1.6774,-1.648,-1.6186,-1.5885,-1.5832,-1.5832,-1.5832,-1.5832,-1.5832,-1.5832,-1.5832,-1.5832,-1.5832,-1.5832,-1.5832,-1.5832,-1.5832,-1.5832,-1.5832,-1.5832,-1.5832,-1.5832,-1.5832,-1.5832,-1.5832,-1.5832,-1.5832,-1.5832,-1.5832,-1.5832,-1.5832,-1.5832,-1.5832,-1.5832,-1.5832,-1.5832,0.4075,0.4642,0.0,0.0,0.0,0.0,0.0,0.0,0.0,0.0,0.0,0.0,0.0,0.0,0.0,0.0,0.0,0.0,0.0,0.0,0.0,0.0,0.0,0.0,0.0,0.0,0.0,0.0,0.0,0.0,0.0,-0.8428,-0.8482,-0.8482,-0.8526,-0.855,-0.855,-0.8703,-0.8777,-0.8777,-0.8889,-0.9699,-1.1105,-1.2186,-1.3696,-1.5417,-1.6499,-1.6387,-1.5198,-1.3264,-1.2077,-1.1755,-1.1324,-1.1969,-1.3372,-1.4449,-1.5743,-1.7041,-1.747,-1.7582,-1.7582,-1.7582,-1.7582,-1.7582,-1.7582,-1.7582,-1.7582,-1.7582,-1.7582,-1.7582,-1.7582,-1.7582,-1.7582,-1.7582,-1.7515,-1.7315,-1.6814,-1.664,-1.6433,-1.5925,-1.5832,-1.5832,-1.5832,-1.5832,-1.5832,-1.5832,-1.5832,-1.5832,-1.5832,-1.5832,-1.5832,-1.5832,-1.5832,-1.5832,-1.5832,-1.5832,-1.5832,-1.5832,-1.5832,-1.5832,-1.5832,-1.5832,-1.5832,-1.5832,-1.5832,-1.5832,-1.5832,-1.5832,-1.5832,-1.5832,-1.5832,-1.5832,0.4181,0.0,0.0,0.0,0.0,0.0,0.0,0.0,0.0,0.0,0.0,0.0,0.0,0.0,0.0,0.0,0.0,0.0,0.0,0.0,0.0,0.0,0.0,0.0,0.0,0.0,0.0,0.0,0.0,0.0,0.0,-0.8258,-0.8306,-0.8306,-0.8367,-0.8397,-0.8397,-0.8547,-0.8618,-0.8621,-0.8713,-0.9183,-1.0146,-1.1684,-1.3156,-1.4663,-1.553,-1.5417,-1.4341,-1.2077,-1.1105,-1.1105,-1.1105,-1.1969,-1.348,-1.4877,-1.5956,-1.6823,-1.7364,-1.7582,-1.7582,-1.7582,-1.7582,-1.7582,-1.7582,-1.7582,-1.7582,-1.7582,-1.7582,-1.7582,-1.7582,-1.7582,-1.7582,-1.7582,-1.7582,-1.7422,-1.6834,-1.6707,-1.6533,-1.5945,-1.5832,-1.5832,-1.5832,-1.5832,-1.5832,-1.5832,-1.5832,-1.5832,-1.5832,-1.5832,-1.5832,-1.5832,-1.5832,-1.5832,-1.5832,-1.5832,-1.5832,-1.5832,-1.5832,-1.5832,-1.5832,-1.5832,-1.5832,-1.5832,-1.5832,-1.5832,-1.5832,-1.5832,-1.5832,-1.5832,-1.5832,-1.5832,0.0,0.0,0.0,0.0,0.0,0.0,0.0,0.0,0.0,0.0,0.0,0.0,0.0,0.0,0.0,0.0,0.0,0.0,0.0,0.0,0.0,0.0,0.0,0.0,0.0,0.0,0.0,0.0,0.0,0.0,0.0,-0.8038,-0.8038,-0.8038,-0.8177,-0.8248,-0.8248,-0.8391,-0.8462,-0.8462,-0.8476,-0.8482,-0.8594,-1.0258,-1.1928,-1.3455,-1.3342,-1.3244,-1.3156,-1.1755,-1.1105,-1.1105,-1.1433,-1.2295,-1.3696,-1.5091,-1.5636,-1.5743,-1.7147,-1.7582,-1.7582,-1.7582,-1.7582,-1.7582,-1.7582,-1.7582,-1.7582,-1.7582,-1.7582,-1.7582,-1.7582,-1.7582,-1.7575,-1.7549,-1.7542,-1.7382,-1.6794,-1.6667,-1.65,-1.5939,-1.5832,-1.5832,-1.5832,-1.5832,-1.5832,-1.5832,-1.5832,-1.5832,-1.5832,-1.5832,-1.5832,-1.5832,-1.5832,-1.5832,-1.5832,-1.5832,-1.5832,-1.5832,-1.5832,-1.5832,-1.5832,-1.5832,-1.5832,-1.5832,-1.5832,-1.5832,-1.5832,-1.5832,-1.5832,-1.5832,-1.5832,-1.5832,0.0,0.0,0.0,0.0,0.0,0.0,0.0,0.0,0.0,0.0,0.0,0.0,0.0,0.0,0.0,0.0,0.0,0.0,0.0,0.0,0.0,0.0,0.0,0.0,0.0,0.0,0.0,0.0,0.0,0.0,-0.8038,-0.8038,-0.8038,-0.8038,-0.8072,-0.8089,-0.8089,-0.8241,-0.8316,0.0,-0.8428,-0.8482,-0.8587,-1.0108,-1.2211,-1.4704,-1.343,-1.3103,-1.3156,-1.1755,-1.1105,-1.1324,-1.3583,-1.4663,-1.5097,-1.6605,-1.7147,-1.7147,-1.7477,-1.7582,-1.7582,-1.7582,-1.7582,-1.7582,-1.7582,-1.7582,-1.7582,-1.7582,-1.7582,-1.7582,-1.7582,-1.7582,-1.7522,-1.7295,-1.7241,-1.7081,-1.6493,-1.6366,-1.6259,-1.5899,-1.5832,-1.5832,-1.5832,-1.5832,-1.5832,-1.5832,-1.5832,-1.5832,-1.5832,-1.5832,-1.5832,-1.5832,-1.5832,-1.5832,-1.5832,-1.5832,-1.5832,-1.5832,-1.5832,-1.5832,-1.5832,-1.5832,-1.5832,-1.5832,-1.5832,-1.5832,-1.5832,-1.5832,-1.5832,-1.5832,-1.5832,-1.5832,0.0,0.0,0.0,0.0,0.0,0.0,0.0,0.0,0.0,0.0,0.0,0.0,0.0,0.0,0.0,0.0,0.0,0.0,0.0,0.0,0.0,0.0,0.0,0.0,0.0,0.0,0.0,0.0,0.0,-0.8038,-0.8038,-0.8038,-0.8038,-0.8038,-0.8038,-0.8038,-0.8038,-0.8119,-0.816,-0.816,-0.8838,-0.9579,-1.0091,-0.9749,-1.1214,-1.392,-1.3086,-1.3148,-1.3798,-1.3169,-1.3001,-1.3118,-1.4725,-1.5849,-1.6499,-1.7364,-1.7582,-1.7582,-1.7582,-1.7582,-1.7582,-1.7582,-1.7582,-1.7582,-1.7582,-1.7582,-1.7582,-1.7582,-1.7582,-1.7582,-1.7582,-1.7582,-1.7508,-1.7215,-1.7148,-1.6987,-1.64,-1.6273,-1.6186,-1.5885,-1.5832,-1.5832,-1.5832,-1.5832,-1.5832,-1.5832,-1.5832,-1.5832,-1.5832,-1.5832,-1.5832,-1.5832,-1.5832,-1.5832,-1.5832,-1.5832,-1.5832,-1.5832,-1.5832,-1.5832,-1.5832,-1.5832,-1.5832,-1.5832,-1.5832,-1.5832,-1.5832,-1.5832,-1.5832,-1.5832,-1.5832,-1.5832,0.0,0.0,0.0,0.0,0.0,0.0,0.0,0.0,0.0,0.0,0.0,0.0,0.0,0.0,0.0,0.0,0.0,0.0,0.0,0.0,0.0,0.0,0.0,0.0,0.0,0.0,0.0,0.0,0.0,-0.8038,-0.8038,-0.8038,-0.8038,-0.8038,-0.8038,-0.8038,-0.8038,-0.8233,-0.8333,-0.8333,-0.9702,-1.0877,-1.1863,-0.9908,-1.0463,-1.2842,-1.2639,-1.3276,-1.4564,-1.478,-1.4867,-1.4988,-1.5416,-1.6354,-1.7428,-1.7428,-1.7428,-1.7428,-1.7428,-1.7428,-1.7428,-1.7428,-1.7428,-1.7428,-1.7428,-1.7468,-1.7508,-1.7508,-1.7542,-1.7582,-1.7582,-1.7582,-1.7495,-1.7154,-1.7114,-1.6987,-1.64,-1.6233,-1.6126,-1.5879,-1.5832,-1.5832,-1.5832,-1.5832,-1.5832,-1.5832,-1.5832,-1.5832,-1.5832,-1.5832,-1.5832,-1.5832,-1.5832,-1.5832,-1.5832,-1.5832,-1.5832,-1.5832,-1.5832,-1.5832,-1.5832,-1.5832,-1.5832,-1.5832,-1.5832,-1.5832,-1.5832,-1.5832,-1.5832,-1.5832,-1.5832,-1.5832,0.0,0.0,0.0,0.0,0.0,0.0,0.0,0.0,0.0,0.0,0.0,0.0,0.0,0.0,0.0,0.0,0.0,0.0,0.0,0.0,0.0,0.0,0.0,0.0,0.0,0.0,0.0,0.0,-0.7952,-0.8038,-0.8038,-0.8038,-0.8038,-0.8038,-0.8038,-0.8038,-0.8038,-0.9118,-0.9706,-0.9702,-1.1072,-1.175,-1.1853,-1.1614,-1.2428,-1.401,-1.2809,-1.3127,-1.4546,-1.4581,-1.4599,-1.4706,-1.598,-1.6619,-1.682,-1.682,-1.682,-1.682,-1.682,-1.682,-1.682,-1.682,-1.682,-1.682,-1.682,-1.7001,-1.7208,-1.7208,-1.7388,-1.7582,-1.7582,-1.7582,-1.7442,-1.6894,-1.6961,-1.6987,-1.64,-1.6072,-1.5879,-1.5838,-1.5832,-1.5832,-1.5832,-1.5832,-1.5832,-1.5832,-1.5832,-1.5832,-1.5832,-1.5832,-1.5832,-1.5832,-1.5832,-1.5832,-1.5832,-1.5832,-1.5832,-1.5832,-1.5832,-1.5832,-1.5832,-1.5832,-1.5832,-1.5832,-1.5832,-1.5832,-1.5832,-1.5832,-1.5832,-1.5832,-1.5832,-1.5832,0.2388,0.373,0.0,0.0,0.0,0.0,0.0,0.0,0.0,0.0,0.0,0.0,0.0,0.0,0.0,0.0,0.0,0.0,0.0,0.0,0.0,0.0,0.0,0.0,0.0,0.0,0.0,0.0,-0.8045,-0.8038,-0.8038,-0.8038,-0.8038,-0.8038,-0.8038,-0.8333,-0.9118,-0.9702,-1.0774,-1.2226,-1.2716,-1.3006,-1.3006,-1.2237,-1.2678,-1.4043,-1.3453,-1.3912,-1.5224,-1.5388,-1.555,-1.5569,-1.6434,-1.6707,-1.6707,-1.6707,-1.6707,-1.6707,-1.6707,-1.6707,-1.6707,-1.6707,-1.6707,-1.6707,-1.6707,-1.68,-1.6934,-1.7101,-1.7241,-1.7375,-1.7542,-1.7582,-1.7515,-1.7255,-1.7174,-1.7081,-1.682,-1.64,-1.6025,-1.5865,-1.6092,-1.6266,-1.6106,-1.6213,-1.6319,-1.6319,-1.6319,-1.6319,-1.6319,-1.6319,-1.6319,-1.6319,-1.6319,-1.6319,-1.6319,-1.6319,-1.6319,-1.6319,-1.6166,-1.6079,-1.6079,-1.5919,-1.5832,-1.5832,-1.5832,-1.5832,-1.5832,-1.5832,-1.5832,-1.5832,-1.5832,-1.5832,0.0283,0.1189,0.176,0.0,0.0,0.0,0.0,0.0,0.0,0.0,0.0,0.0,0.0,0.0,0.0,0.0,0.0,0.0,0.0,0.0,0.0,0.0,0.0,0.0,0.0,0.0,0.0,0.0,-0.8041,-0.8038,-0.8038,-0.8038,-0.8137,-0.8531,-0.8528,-0.9118,-1.0489,-1.0774,-1.1935,-1.3878,-1.3878,-1.368,-1.3392,-1.2721,-1.2909,-1.3878,-1.3584,-1.4268,-1.5845,-1.6072,-1.6159,-1.6179,-1.64,-1.648,-1.648,-1.648,-1.648,-1.648,-1.648,-1.648,-1.648,-1.648,-1.648,-1.648,-1.648,-1.6533,-1.664,-1.6867,-1.6981,-1.7101,-1.7395,-1.7475,-1.7475,-1.7475,-1.7361,-1.7215,-1.7068,-1.6693,-1.6319,-1.6099,-1.6406,-1.664,-1.642,-1.656,-1.6707,-1.6707,-1.6707,-1.6707,-1.6707,-1.6707,-1.6707,-1.6707,-1.6707,-1.6707,-1.6707,-1.6707,-1.6707,-1.6707,-1.6506,-1.638,-1.638,-1.6099,-1.5939,-1.5939,-1.5865,-1.5832,-1.5832,-1.5832,-1.5832,-1.5832,-1.5832,-1.5832,-0.2936,-0.2649,0.0,0.0,0.0,0.0,0.0,0.0,0.0,0.0,0.0,0.0,0.0,0.0,0.0,0.0,0.0,0.0,0.0,0.0,0.0,0.0,0.0,0.0,0.0,0.0,0.0,0.0,-0.7952,-0.8038,-0.8038,-0.8038,-0.8627,-0.9903,-0.9903,-1.0489,-1.175,-1.3102,-1.3776,-1.3878,-1.3878,-1.3199,-1.2042,-1.3204,-1.3872,-1.3872,-1.2522,-1.3499,-1.5832,-1.5845,-1.5852,-1.5852,-1.5872,-1.5872,-1.5872,-1.5872,-1.5872,-1.5872,-1.5872,-1.5872,-1.5872,-1.5872,-1.5872,-1.5872,-1.5872,-1.6072,-1.6299,-1.6313,-1.6513,-1.68,-1.7094,-1.7174,-1.7174,-1.7174,-1.7368,-1.7408,-1.6847,-1.6707,-1.668,-1.666,-1.6687,-1.67,-1.6687,-1.6693,-1.6707,-1.6707,-1.6707,-1.6707,-1.6707,-1.6707,-1.6707,-1.6707,-1.6707,-1.6707,-1.6707,-1.6707,-1.6707,-1.6707,-1.6693,-1.6687,-1.6687,-1.6406,-1.6253,-1.6253,-1.5972,-1.5832,-1.5832,-1.5832,-1.5832,-1.5832,-1.5832,-1.5832,-0.2991,0.0,0.0,0.0,0.0,0.0,0.0,0.0,0.0,0.0,0.0,0.0,0.0,0.0,0.0,0.0,0.0,0.0,0.0,0.0,0.0,0.0,0.0,0.0,0.0,0.0,0.0,0.0,0.0,-0.8038,-0.8038,-0.8038,-0.8627,-0.9998,-0.9998,-1.1068,-1.3199,-1.368,-1.3878,-1.3872,-1.3006,-1.2334,-1.195,-1.2431,-1.3102,-1.3878,-1.3392,-1.4172,-1.5832,-1.5832,-1.5832,-1.5832,-1.5832,-1.5832,-1.5832,-1.5832,-1.5832,-1.5832,-1.5832,-1.5832,-1.5832,-1.5832,-1.5832,-1.5832,-1.5832,-1.5905,-1.6025,-1.6219,-1.648,-1.6774,-1.7074,-1.7288,-1.7428,-1.7428,-1.7508,-1.7522,-1.7315,-1.7268,-1.7154,-1.678,-1.7007,-1.7208,-1.7021,-1.7148,-1.7268,-1.7268,-1.7268,-1.7268,-1.7268,-1.7268,-1.7268,-1.7268,-1.7268,-1.7268,-1.7268,-1.7268,-1.7268,-1.7268,-1.7094,-1.6987,-1.6987,-1.6707,-1.6466,-1.6279,-1.6166,-1.6019,-1.5832,-1.5832,-1.5832,-1.5832,-1.5832,-1.5832,-0.2887,0.0,0.0,0.0,0.0,0.0,0.0,0.0,0.0,0.0,0.0,0.0,0.0,0.0,0.0,0.0,0.0,0.0,0.0,0.0,0.0,0.0,0.0,0.0,0.0,0.0,0.0,0.0,0.0,0.0,-0.7963,-0.8011,-0.8627,-0.9998,-1.0872,-1.2134,-1.3872,-1.4364,-1.4076,-1.3199,-1.2818,-1.2139,-1.1263,-1.2139,-1.3102,-1.3872,-1.4364,-1.5045,-1.5832,-1.5832,-1.5832,-1.5832,-1.5832,-1.5832,-1.5832,-1.5832,-1.5832,-1.5832,-1.5832,-1.5832,-1.5832,-1.5832,-1.5832,-1.5832,-1.5832,-1.5832,-1.5872,-1.6072,-1.6333,-1.6627,-1.6927,-1.7288,-1.7582,-1.7582,-1.7582,-1.7582,-1.7582,-1.7582,-1.7468,-1.7074,-1.7315,-1.7522,-1.7328,-1.7455,-1.7582,-1.7582,-1.7582,-1.7582,-1.7582,-1.7582,-1.7582,-1.7582,-1.7582,-1.7582,-1.7582,-1.7582,-1.7582,-1.7582,-1.7402,-1.7295,-1.7295,-1.7014,-1.676,-1.6573,-1.6373,-1.6179,-1.5979,-1.5879,-1.5832,-1.5832,-1.5832,-1.5832,0.0,0.0,0.0,0.0,0.0,0.0,0.0,0.0,0.0,0.0,0.0,0.0,0.0,0.0,0.0,0.0,0.0,0.0,0.0,0.0,0.0,0.0,0.0,0.0,0.0,0.0,0.0,0.0,-0.7726,-0.7804,-0.7804,-0.795,-0.8619,-0.9989,-1.2517,-1.3878,-1.3878,-1.5051,-1.437,-1.195,-1.3199,-1.2522,-1.019,-1.2716,-1.3872,-1.3974,-1.5242,-1.5832,-1.5832,-1.5832,-1.5832,-1.5832,-1.5832,-1.5832,-1.5832,-1.5832,-1.5832,-1.5832,-1.5832,-1.5832,-1.5832,-1.5832,-1.5832,-1.5832,-1.5832,-1.5832,-1.5832,-1.5832,-1.6052,-1.6359,-1.6653,-1.7154,-1.7582,-1.7582,-1.7582,-1.7582,-1.7582,-1.7582,-1.7582,-1.7582,-1.7582,-1.7582,-1.7582,-1.7582,-1.7582,-1.7582,-1.7582,-1.7582,-1.7582,-1.7582,-1.7582,-1.7582,-1.7582,-1.7582,-1.7582,-1.7582,-1.7582,-1.7582,-1.7582,-1.7582,-1.7582,-1.7315,-1.7257,-1.7148,-1.6593,-1.6293,-1.6273,-1.5972,-1.5832,-1.5832,-1.5832,-1.5832,-0.3297,0.0,0.0,0.0,0.0,0.0,0.0,0.0,0.0,0.0,0.0,0.0,0.0,0.0,0.0,0.0,0.0,0.0,0.0,0.0,0.0,0.0,0.0,0.0,0.0,0.0,0.0,0.0,-0.7638,-0.7658,-0.7658,-0.8745,-0.9505,-0.9887,-1.1569,-1.2425,-1.2425,-1.2818,-1.2624,-1.1945,-1.2237,-1.2619,-1.2813,-1.3584,-1.4364,-1.5337,-1.5635,-1.5832,-1.5832,-1.5832,-1.5832,-1.5832,-1.5832,-1.5832,-1.5832,-1.5832,-1.5832,-1.5832,-1.5832,-1.5832,-1.5832,-1.5832,-1.5832,-1.5832,-1.5832,-1.5832,-1.5832,-1.5832,-1.6192,-1.67,-1.7208,-1.7462,-1.7582,-1.7582,-1.7582,-1.7582,-1.7582,-1.7582,-1.7582,-1.7582,-1.7582,-1.7582,-1.7582,-1.7582,-1.7582,-1.7582,-1.7582,-1.7582,-1.7582,-1.7582,-1.7582,-1.7582,-1.7582,-1.7582,-1.7582,-1.7582,-1.7582,-1.7582,-1.7582,-1.7582,-1.7582,-1.7508,-1.7361,-1.7154,-1.6987,-1.67,-1.6273,-1.5972,-1.5832,-1.5832,-1.5832,-1.5832,-0.2735,0.0,0.0,0.0,0.0,0.0,0.0,-0.4119,0.0,0.0,0.0,0.0,0.0,0.0,0.0,0.0,0.0,0.0,0.0,0.0,0.0,0.0,0.0,0.0,0.0,-0.7275,-0.7312,-0.74,-0.7468,-0.7533,-0.7597,-0.8426,-0.8855,-0.8855,-1.0258,-1.1038,-1.1038,-1.1609,-1.1945,-1.195,-1.2431,-1.3102,-1.3878,-1.4459,-1.514,-1.5832,-1.5832,-1.5832,-1.5832,-1.5832,-1.5832,-1.5832,-1.5832,-1.5832,-1.5832,-1.5832,-1.5832,-1.5832,-1.5832,-1.5832,-1.5832,-1.5832,-1.5832,-1.5832,-1.5832,-1.5832,-1.5832,-1.5832,-1.6166,-1.666,-1.7248,-1.7402,-1.7428,-1.7555,-1.7582,-1.7582,-1.7582,-1.7582,-1.7582,-1.7582,-1.7582,-1.7582,-1.7582,-1.7582,-1.7582,-1.7582,-1.7582,-1.7582,-1.7582,-1.7582,-1.7582,-1.7582,-1.7582,-1.7582,-1.7582,-1.7582,-1.7582,-1.7582,-1.7582,-1.7582,-1.7582,-1.7582,-1.7502,-1.7335,-1.7215,-1.686,-1.6273,-1.6099,-1.5952,-1.5832,-1.5832,-1.5832,-0.157,-0.1693,0.0,0.0,0.0,0.0,-0.5546,-0.5746,0.0,0.0,0.0,0.0,0.0,0.0,0.0,0.0,0.0,0.0,0.0,0.0,0.0,0.0,0.0,0.0,-0.7027,-0.7122,-0.7129,-0.7143,-0.7272,-0.7404,-0.7543,-0.7563,-0.7577,-0.7577,-0.8839,-0.9589,-0.9589,-1.1125,-1.191,-1.191,-1.338,-1.407,-1.4166,-1.5242,-1.5832,-1.5832,-1.5832,-1.5832,-1.5832,-1.5832,-1.5832,-1.5832,-1.5832,-1.5832,-1.5832,-1.5832,-1.5832,-1.5832,-1.5832,-1.5832,-1.5832,-1.5832,-1.5832,-1.5832,-1.5832,-1.5832,-1.5838,-1.5872,-1.6072,-1.64,-1.6954,-1.7101,-1.7174,-1.7468,-1.7535,-1.7542,-1.7575,-1.7582,-1.7582,-1.7582,-1.7582,-1.7582,-1.7582,-1.7582,-1.7582,-1.7582,-1.7582,-1.7582,-1.7582,-1.7582,-1.7582,-1.7582,-1.7582,-1.7582,-1.7582,-1.7582,-1.7582,-1.7582,-1.7582,-1.7582,-1.7582,-1.7582,-1.7582,-1.7582,-1.7295,-1.6894,-1.6373,-1.6273,-1.6086,-1.5832,-1.5832,-1.5832,-0.0324,-0.1377,-0.2595,-0.2429,0.0,0.0,-0.5032,-0.5874,0.0,0.0,0.0,0.0,0.0,0.0,0.0,0.0,0.0,0.0,0.0,0.0,0.0,0.0,0.0,0.0,-0.6883,-0.7004,-0.7058,-0.7071,-0.718,-0.7197,-0.7227,-0.7346,-0.7414,-0.7414,-0.784,-0.8015,-0.8015,-1.0531,-1.1767,-1.1772,-1.4266,-1.5439,-1.5439,-1.573,-1.5832,-1.5832,-1.5832,-1.5832,-1.5832,-1.5832,-1.5832,-1.5832,-1.5832,-1.5832,-1.5832,-1.5832,-1.5832,-1.5832,-1.5832,-1.5832,-1.5832,-1.5832,-1.5832,-1.5832,-1.5832,-1.5832,-1.5879,-1.6119,-1.6226,-1.6353,-1.67,-1.6794,-1.6867,-1.7161,-1.7235,-1.7295,-1.7528,-1.7582,-1.7582,-1.7582,-1.7582,-1.7582,-1.7582,-1.7582,-1.7582,-1.7582,-1.7582,-1.7582,-1.7582,-1.7582,-1.7582,-1.7582,-1.7582,-1.7582,-1.7582,-1.7582,-1.7582,-1.7582,-1.7582,-1.7582,-1.7582,-1.7582,-1.7582,-1.7582,-1.7295,-1.7094,-1.6981,-1.6266,-1.5885,-1.5832,-1.5832,-1.5832,-0.2259,-0.2361,-0.2742,-0.3887,0.0,0.0,0.0,0.0,-0.7461,0.0,0.0,0.0,0.0,0.0,0.0,0.0,0.0,0.0,0.0,0.0,0.0,0.0,0.0,0.0,-0.528,-0.5262,-0.584,-0.6857,-0.7,-0.7034,-0.7034,-0.7177,-0.7255,-0.7255,-0.7407,-0.7485,-0.7485,-0.8933,-1.0377,-1.1706,-1.3059,-1.4432,-1.5832,-1.5832,-1.5832,-1.5832,-1.5832,-1.5832,-1.5832,-1.5832,-1.5832,-1.5832,-1.5832,-1.5832,-1.5832,-1.5832,-1.5832,-1.5832,-1.5832,-1.5832,-1.5832,-1.5832,-1.5832,-1.5832,-1.5832,-1.5832,-1.5858,-1.6012,-1.6052,-1.6119,-1.6413,-1.6486,-1.656,-1.686,-1.6927,-1.7007,-1.7301,-1.7368,-1.7408,-1.7555,-1.7582,-1.7582,-1.7582,-1.7582,-1.7582,-1.7582,-1.7582,-1.7582,-1.7582,-1.7582,-1.7582,-1.7582,-1.7582,-1.7582,-1.7582,-1.7582,-1.7582,-1.7582,-1.7582,-1.7582,-1.7582,-1.7582,-1.7582,-1.7582,-1.7295,-1.7148,-1.7148,-1.6553,-1.6192,-1.6046,-1.5899,-1.6109,0.0,0.0,0.0,0.0,0.0,-0.7125,0.0,0.0,0.0,-0.8827,0.0,0.0,0.0,0.0,0.0,0.0,0.0,0.0,0.0,0.0,0.0,0.0,0.0,0.0,0.0,-0.3893,-0.4797,-0.6629,-0.677,-0.6824,-0.6881,-0.7021,-0.7099,-0.7099,-0.7248,-0.7326,-0.7326,-0.7752,-0.9003,-1.1204,-1.1571,-1.3036,-1.536,-1.5412,-1.5534,-1.5832,-1.5832,-1.5832,-1.5832,-1.5832,-1.5832,-1.5832,-1.5832,-1.5832,-1.5832,-1.5832,-1.5832,-1.5832,-1.5832,-1.5832,-1.5832,-1.5832,-1.5832,-1.5832,-1.5832,-1.5832,-1.5832,-1.5832,-1.5832,-1.5885,-1.6126,-1.6186,-1.6259,-1.6553,-1.662,-1.672,-1.7074,-1.7148,-1.7235,-1.7522,-1.7582,-1.7582,-1.7582,-1.7582,-1.7582,-1.7582,-1.7582,-1.7582,-1.7582,-1.7582,-1.7582,-1.7582,-1.7582,-1.7582,-1.7582,-1.7582,-1.7582,-1.7582,-1.7582,-1.7582,-1.7582,-1.7582,-1.7582,-1.7582,-1.7355,-1.7235,-1.7235,-1.6934,-1.664,-1.6346,-1.6052,-1.6564,0.0,0.0,0.0,0.0,-0.6918,0.0,0.0,0.0,-0.9133,-0.8248,0.0,0.0,0.0,0.0,0.0,0.0,0.0,0.0,0.0,0.0,0.0,0.0,0.0,0.0,0.0,-0.4825,-0.5746,-0.6533,-0.6488,-0.6451,-0.6712,-0.6871,-0.6953,-0.6953,-0.7092,-0.7166,-0.7166,-0.8477,-0.9298,-0.9591,-1.1047,-1.2476,-1.3942,-1.4064,-1.4752,-1.5832,-1.5832,-1.5832,-1.5832,-1.5832,-1.5832,-1.5832,-1.5832,-1.5832,-1.5832,-1.5832,-1.5832,-1.5832,-1.5832,-1.5832,-1.5832,-1.5832,-1.5832,-1.5832,-1.5832,-1.5832,-1.5832,-1.5832,-1.5832,-1.5838,-1.5872,-1.5879,-1.5952,-1.6253,-1.6326,-1.6473,-1.7027,-1.7148,-1.7235,-1.7522,-1.7582,-1.7582,-1.7582,-1.7582,-1.7582,-1.7582,-1.7582,-1.7582,-1.7582,-1.7582,-1.7582,-1.7582,-1.7582,-1.7582,-1.7582,-1.7582,-1.7582,-1.7582,-1.7582,-1.7582,-1.7582,-1.7582,-1.7582,-1.7582,-1.7549,-1.7528,-1.7528,-1.7241,-1.6947,-1.6647,-1.6359,-1.6884,0.0,0.0,0.0,0.0,0.0,0.0,-0.8378,0.0,-0.8755,0.0,0.0,0.0,0.0,0.0,0.0,0.0,0.0,0.0,0.0,0.0,0.0,0.0,0.0,0.0,0.0,0.0,0.0,0.0,-0.6083,-0.622,-0.6434,-0.6668,-0.6837,-0.6926,-0.6987,-0.7058,-0.7139,-0.7731,-0.8434,-0.9345,-0.9958,-1.1081,-1.2559,-1.3425,-1.4129,-1.4752,-1.5439,-1.5832,-1.5832,-1.5832,-1.5832,-1.5832,-1.5832,-1.5832,-1.5832,-1.5832,-1.5832,-1.5832,-1.5832,-1.5832,-1.5832,-1.5832,-1.5832,-1.5832,-1.5832,-1.5832,-1.5832,-1.5832,-1.5832,-1.5832,-1.5832,-1.5832,-1.5865,-1.5985,-1.6012,-1.6172,-1.6767,-1.6894,-1.7027,-1.7488,-1.7582,-1.7582,-1.7582,-1.7582,-1.7582,-1.7582,-1.7582,-1.7582,-1.7582,-1.7582,-1.7582,-1.7582,-1.7582,-1.7582,-1.7582,-1.7582,-1.7582,-1.7582,-1.7582,-1.7582,-1.7582,-1.7582,-1.7582,-1.7582,-1.7582,-1.7582,-1.7582,-1.7462,-1.7743,-1.8302,-1.6956,-1.694,-0.8537,0.0,0.0,0.0,0.0,0.0,0.0,0.0,0.0,0.0,0.0,0.0,0.0,0.0,0.0,0.0,0.0,0.0,0.0,0.0,0.0,0.0,0.0,0.0,0.0,0.0,0.0,0.0,0.0,-0.5844,-0.6118,-0.638,-0.6624,-0.6858,-0.6909,-0.6997,-0.7139,-0.7139,-0.7634,-0.8731,-0.8783,-0.9579,-1.1062,-1.2499,-1.3414,-1.3874,-1.521,-1.5832,-1.5832,-1.5832,-1.5832,-1.5832,-1.5832,-1.5832,-1.5832,-1.5832,-1.5832,-1.5832,-1.5832,-1.5832,-1.5832,-1.5832,-1.5832,-1.5832,-1.5832,-1.5832,-1.5832,-1.5832,-1.5832,-1.5832,-1.5832,-1.5832,-1.5832,-1.5832,-1.5832,-1.5965,-1.648,-1.6647,-1.6854,-1.7361,-1.7528,-1.7582,-1.7582,-1.7582,-1.7582,-1.7582,-1.7582,-1.7582,-1.7582,-1.7582,-1.7582,-1.7582,-1.7582,-1.7582,-1.7582,-1.7582,-1.7582,-1.7582,-1.7582,-1.7582,-1.7582,-1.7582,-1.7582,-1.7582,-1.7582,-1.7582,-1.7582,-1.7989,-1.8603,-1.9612,-1.7932,-1.7721,0.0,0.0,0.0,-0.8427,0.0,0.0,0.0,0.0,-0.8097,0.0,0.0,0.0,0.0,0.0,0.0,0.0,0.0,0.0,0.0,0.0,0.0,0.0,0.0,0.0,0.0,0.0,0.0,0.0,0.0,0.0,-0.5786,-0.5966,-0.6251,-0.6695,-0.6851,-0.6997,-0.7139,-0.7139,-0.7143,-0.7149,-0.7389,-0.8094,-0.9461,-1.1042,-1.2465,-1.3818,-1.5227,-1.5832,-1.5832,-1.5832,-1.5832,-1.5832,-1.5832,-1.5832,-1.5832,-1.5832,-1.5832,-1.5832,-1.5832,-1.5832,-1.5832,-1.5832,-1.5832,-1.5832,-1.5832,-1.5832,-1.5832,-1.5832,-1.5832,-1.5832,-1.5832,-1.5832,-1.5832,-1.5832,-1.5832,-1.5912,-1.6219,-1.6506,-1.68,-1.7108,-1.7388,-1.7582,-1.7582,-1.7582,-1.7582,-1.7582,-1.7582,-1.7582,-1.7582,-1.7582,-1.7582,-1.7582,-1.7582,-1.7582,-1.7582,-1.7582,-1.7582,-1.7582,-1.7582,-1.7582,-1.7582,-1.7582,-1.7582,-1.7582,-1.7582,-1.7582,-1.7582,-1.8909,-1.9524,-1.962,-1.9276,-1.9628,0.0,0.0,-1.1525,-1.0833,0.0,0.0,0.0,0.0,0.0,0.0,0.0,0.0,0.0,0.0,0.0,0.0,0.0,0.0,0.0,0.0,0.0,0.0,0.0,0.0,0.0,0.0,0.0,0.0,-0.6284,0.0,0.0,-0.6614,-0.6742,-0.6479,-0.6651,-0.6851,-0.7,-0.7092,-0.7139,-0.7139,-0.7193,-0.7538,-0.8094,-0.9474,-1.0501,-1.1238,-1.3408,-1.4496,-1.4657,-1.5439,-1.5832,-1.5832,-1.5832,-1.5832,-1.5832,-1.5832,-1.5832,-1.5832,-1.5832,-1.5832,-1.5832,-1.5832,-1.5832,-1.5832,-1.5832,-1.5832,-1.5832,-1.5832,-1.5832,-1.5832,-1.5832,-1.5832,-1.5832,-1.5832,-1.5832,-1.5912,-1.6213,-1.65,-1.6794,-1.7088,-1.7382,-1.7582,-1.7582,-1.7582,-1.7582,-1.7582,-1.7582,-1.7582,-1.7582,-1.7582,-1.7582,-1.7582,-1.7582,-1.7582,-1.7582,-1.7582,-1.7582,-1.7582,-1.7582,-1.7582,-1.7582,-1.7582,-1.7582,-1.7582,-1.7582,-1.7989,-1.8909,-1.8506,-1.9213,-2.1041,-2.0921,-2.0751,-1.2012,-1.2668,0.0,-1.2657,-1.2312,0.0,-1.0931,0.0,0.0,0.0,0.0,0.0,0.0,0.0,0.0,0.0,0.0,0.0,0.0,0.0,0.0,0.0,0.0,0.0,0.0,0.0,-0.5517,-0.6052,0.0,0.0,0.0,0.0,-0.6795,-0.6328,-0.6546,-0.6773,-0.6926,-0.7068,-0.7139,-0.7139,-0.7139,-0.719,-0.7382,-0.8685,-0.9421,-0.9806,-1.2521,-1.375,-1.3974,-1.5242,-1.5832,-1.5832,-1.5832,-1.5832,-1.5832,-1.5832,-1.5832,-1.5832,-1.5832,-1.5832,-1.5832,-1.5832,-1.5832,-1.5832,-1.5832,-1.5832,-1.5832,-1.5832,-1.5832,-1.5832,-1.5832,-1.5832,-1.5832,-1.5832,-1.5832,-1.5912,-1.6213,-1.65,-1.6794,-1.7088,-1.7382,-1.7582,-1.7582,-1.7582,-1.7582,-1.7582,-1.7582,-1.7582,-1.7582,-1.7582,-1.7582,-1.7582,-1.7996,-1.8499,-1.9005,-1.9109,-1.9109,-1.9109,-1.9109,-1.8805,-1.8297,-1.8297,-1.8297,-1.8297,-1.8297,-1.8708,-1.9627,-1.9213,-1.9723,-2.0939,-2.1448,-2.1329]},{"header":{"parameterUnit":"m.s-1","parameterCategory":1,"la1":30.6,"la2":29.2853,"lo1":-89.7004,"lo2":-87.6739,"dy":0.0162,"dx":0.0183,"nx":112,"ny":82,"refTime":"2026-04-29T12:00:00:Z","depth":0,"parameterNumber":3,"parameterNumberName":"V-component_of_WINDS"},"data":[0.0,0.0,0.0,0.0,0.0,0.0,0.0,0.0,0.0,0.0,0.0,0.0,0.0,0.0,0.0,0.0,0.0,0.0,0.0,0.0,0.0,0.0,0.0,0.0,0.0,0.0,0.0,0.0,0.0,0.0,0.0,0.0,0.0,0.0,0.0,0.0,0.0,0.0,0.0,0.0,0.0,0.0,0.0,0.0,0.0,0.0,0.0,0.0,0.0,0.0,0.0,0.0,0.0,0.0,0.0,0.0,0.0,0.0,0.0,0.0,0.0,0.0,0.0,0.0,0.0,0.0,0.0,0.0,0.0,0.0,0.0,0.0,0.0,0.0,0.0,0.0,0.0,0.0,0.0,0.0,0.0,0.0,0.0,0.0,0.0,0.0,0.0,0.0,0.0,0.0,0.0,-3.0307,-3.4854,-3.7949,-3.8555,-3.7129,-3.4687,-3.1113,0.0,0.0,0.0,0.0,0.0,0.0,0.0,0.0,0.0,0.0,0.0,0.0,0.0,0.0,0.0,0.0,0.0,0.0,0.0,0.0,0.0,0.0,0.0,0.0,0.0,0.0,0.0,0.0,0.0,0.0,0.0,0.0,0.0,0.0,0.0,0.0,0.0,0.0,0.0,0.0,0.0,0.0,0.0,0.0,0.0,0.0,0.0,0.0,0.0,0.0,0.0,0.0,0.0,0.0,0.0,0.0,0.0,0.0,0.0,0.0,0.0,0.0,0.0,0.0,0.0,0.0,0.0,0.0,0.0,0.0,0.0,0.0,0.0,0.0,0.0,0.0,0.0,0.0,0.0,0.0,0.0,0.0,0.0,0.0,0.0,0.0,0.0,0.0,0.0,0.0,0.0,0.0,0.0,0.0,0.0,0.0,0.0,0.0,0.0,0.0,0.0,0.0,0.0,0.0,-2.8319,-3.5264,-3.8107,-3.9258,-3.8652,-3.7676,-3.5332,-3.1152,0.0,0.0,0.0,0.0,0.0,0.0,0.0,0.0,0.0,0.0,0.0,0.0,0.0,0.0,0.0,0.0,0.0,0.0,0.0,0.0,0.0,0.0,0.0,0.0,0.0,0.0,0.0,0.0,0.0,0.0,0.0,0.0,0.0,0.0,0.0,0.0,0.0,0.0,0.0,0.0,0.0,0.0,0.0,0.0,0.0,0.0,0.0,0.0,0.0,0.0,0.0,0.0,0.0,0.0,0.0,0.0,0.0,0.0,0.0,0.0,0.0,0.0,0.0,0.0,0.0,0.0,0.0,0.0,0.0,0.0,0.0,0.0,0.0,0.0,0.0,0.0,0.0,0.0,0.0,0.0,0.0,0.0,0.0,0.0,0.0,0.0,0.0,0.0,0.0,0.0,0.0,0.0,0.0,0.0,0.0,0.0,0.0,0.0,0.0,0.0,0.0,0.0,0.0,-2.7516,-3.0773,-3.7172,-3.9087,-3.9551,-3.8672,-3.7776,-3.5412,-3.1115,-2.8356,0.0,0.0,0.0,0.0,0.0,0.0,0.0,0.0,0.0,0.0,0.0,0.0,0.0,0.0,0.0,0.0,0.0,0.0,0.0,0.0,0.0,0.0,0.0,0.0,0.0,0.0,0.0,0.0,0.0,0.0,0.0,0.0,0.0,0.0,0.0,0.0,0.0,0.0,0.0,0.0,0.0,0.0,0.0,0.0,0.0,0.0,0.0,0.0,0.0,0.0,0.0,0.0,0.0,0.0,0.0,0.0,0.0,0.0,0.0,0.0,0.0,0.0,0.0,0.0,0.0,0.0,0.0,0.0,0.0,0.0,0.0,0.0,0.0,0.0,0.0,0.0,0.0,0.0,0.0,0.0,0.0,0.0,0.0,0.0,0.0,0.0,0.0,0.0,0.0,0.0,0.0,0.0,0.0,0.0,0.0,0.0,0.0,0.0,0.0,0.0,0.0,0.0,-3.1091,-3.3583,-3.7976,-3.9505,-3.9763,-3.8645,-3.752,-3.5128,-3.1002,-2.808,0.0,0.0,0.0,0.0,0.0,0.0,0.0,0.0,0.0,0.0,0.0,0.0,0.0,0.0,0.0,0.0,0.0,0.0,0.0,0.0,0.0,0.0,0.0,0.0,0.0,0.0,0.0,0.0,0.0,0.0,0.0,0.0,0.0,0.0,0.0,0.0,0.0,0.0,0.0,0.0,0.0,0.0,0.0,0.0,0.0,0.0,0.0,0.0,0.0,0.0,0.0,0.0,0.0,0.0,0.0,0.0,0.0,0.0,0.0,0.0,0.0,0.0,0.0,0.0,0.0,0.0,0.0,0.0,0.0,0.0,0.0,0.0,0.0,0.0,0.0,0.0,0.0,0.0,0.0,0.0,0.0,0.0,0.0,0.0,0.0,0.0,0.0,0.0,0.0,0.0,0.0,0.0,0.0,0.0,0.0,0.0,0.0,0.0,0.0,0.0,0.0,0.0,-3.2467,-3.625,-3.8355,-4.0097,-4.0379,-3.8574,-3.6933,-3.4447,-3.0837,-2.7441,0.0,0.0,0.0,0.0,0.0,0.0,0.0,0.0,0.0,0.0,0.0,0.0,0.0,0.0,0.0,0.0,0.0,0.0,0.0,0.0,0.0,0.0,0.0,0.0,0.0,0.0,0.0,0.0,0.0,0.0,0.0,0.0,0.0,0.0,0.0,0.0,0.0,0.0,0.0,0.0,0.0,0.0,0.0,0.0,0.0,0.0,0.0,0.0,0.0,0.0,0.0,0.0,0.0,0.0,0.0,0.0,0.0,0.0,0.0,0.0,0.0,0.0,0.0,0.0,0.0,0.0,0.0,0.0,0.0,0.0,0.0,0.0,0.0,0.0,0.0,0.0,0.0,0.0,0.0,0.0,0.0,0.0,0.0,0.0,0.0,0.0,0.0,0.0,0.0,0.0,0.0,0.0,0.0,0.0,0.0,0.0,0.0,0.0,0.0,0.0,0.0,0.0,-3.1926,-3.5224,0.0,-3.9936,-4.0234,-3.8481,-3.7224,-3.4801,-3.0791,0.0,0.0,0.0,0.0,0.0,0.0,0.0,0.0,0.0,0.0,0.0,0.0,0.0,0.0,0.0,0.0,0.0,0.0,0.0,0.0,0.0,0.0,0.0,0.0,0.0,0.0,0.0,0.0,0.0,0.0,0.0,0.0,0.0,0.0,0.0,0.0,0.0,0.0,0.0,0.0,0.0,0.0,0.0,0.0,0.0,0.0,0.0,0.0,0.0,0.0,0.0,0.0,0.0,0.0,0.0,0.0,0.0,0.0,0.0,0.0,0.0,0.0,0.0,0.0,0.0,0.0,0.0,0.0,0.0,0.0,0.0,0.0,0.0,0.0,0.0,0.0,0.0,0.0,0.0,0.0,0.0,0.0,0.0,0.0,0.0,0.0,0.0,0.0,0.0,0.0,0.0,0.0,0.0,0.0,0.0,0.0,0.0,0.0,0.0,0.0,0.0,0.0,-2.8593,-3.1999,-3.502,0.0,-3.98,-4.0111,-3.8423,-3.6938,-3.4372,-3.0309,0.0,0.0,0.0,0.0,0.0,0.0,0.0,0.0,0.0,0.0,0.0,0.0,0.0,0.0,0.0,0.0,0.0,0.0,0.0,0.0,0.0,0.0,0.0,0.0,0.0,0.0,0.0,0.0,0.0,0.0,0.0,0.0,0.0,0.0,0.0,0.0,0.0,0.0,0.0,0.0,0.0,0.0,0.0,0.0,0.0,0.0,0.0,0.0,0.0,0.0,0.0,0.0,0.0,0.0,0.0,0.0,0.0,0.0,0.0,0.0,0.0,0.0,0.0,0.0,0.0,0.0,0.0,0.0,0.0,0.0,0.0,0.0,0.0,0.0,0.0,0.0,0.0,0.0,0.0,0.0,0.0,0.0,0.0,0.0,0.0,0.0,0.0,0.0,0.0,0.0,0.0,0.0,0.0,0.0,0.0,0.0,0.0,0.0,0.0,0.0,0.0,0.0,-2.8767,-3.2987,-3.6301,-3.812,-3.98,-4.0081,-3.8363,-3.5855,-3.2902,0.0,0.0,0.0,0.0,0.0,0.0,0.0,0.0,0.0,0.0,0.0,0.0,0.0,0.0,0.0,0.0,0.0,0.0,0.0,0.0,0.0,0.0,0.0,0.0,0.0,0.0,0.0,0.0,0.0,0.0,0.0,0.0,0.0,0.0,0.0,0.0,0.0,0.0,0.0,0.0,0.0,0.0,0.0,0.0,0.0,0.0,0.0,0.0,0.0,0.0,0.0,0.0,0.0,0.0,0.0,0.0,0.0,0.0,0.0,0.0,0.0,0.0,0.0,0.0,0.0,0.0,0.0,0.0,0.0,0.0,0.0,0.0,0.0,0.0,0.0,0.0,0.0,0.0,0.0,0.0,0.0,0.0,0.0,0.0,0.0,0.0,0.0,0.0,0.0,0.0,0.0,0.0,0.0,0.0,0.0,0.0,0.0,0.0,0.0,0.0,0.0,0.0,0.0,-3.0054,-3.3398,-3.622,-3.8727,-3.995,-3.9908,-3.82,-3.629,-3.3442,-2.9363,0.0,0.0,0.0,0.0,0.0,0.0,0.0,0.0,0.0,0.0,0.0,0.0,0.0,0.0,0.0,0.0,0.0,0.0,0.0,0.0,0.0,0.0,0.0,0.0,0.0,0.0,0.0,0.0,0.0,0.0,0.0,0.0,0.0,0.0,0.0,0.0,0.0,0.0,0.0,0.0,0.0,0.0,0.0,0.0,0.0,0.0,0.0,0.0,0.0,0.0,0.0,0.0,0.0,0.0,0.0,0.0,0.0,0.0,0.0,0.0,0.0,0.0,0.0,0.0,0.0,0.0,0.0,0.0,0.0,0.0,0.0,0.0,0.0,0.0,0.0,0.0,0.0,0.0,0.0,0.0,0.0,0.0,0.0,0.0,0.0,0.0,0.0,0.0,0.0,0.0,0.0,0.0,0.0,0.0,0.0,0.0,0.0,0.0,0.0,0.0,0.0,0.0,-3.0629,-3.3651,-3.6293,-3.9008,-4.0008,-3.9815,-3.8142,-3.6493,-3.3711,-2.9417,0.0,0.0,0.0,0.0,0.0,0.0,0.0,0.0,0.0,0.0,0.0,0.0,0.0,0.0,0.0,0.0,0.0,0.0,0.0,0.0,0.0,0.0,0.0,0.0,0.0,0.0,0.0,0.0,0.0,0.0,0.0,0.0,0.0,0.0,0.0,0.0,0.0,0.0,0.0,0.0,0.0,0.0,0.0,0.0,0.0,0.0,0.0,0.0,0.0,0.0,0.0,0.0,0.0,0.0,0.0,0.0,0.0,0.0,0.0,0.0,0.0,0.0,0.0,0.0,0.0,0.0,0.0,0.0,0.0,0.0,0.0,0.0,0.0,0.0,0.0,0.0,0.0,0.0,0.0,0.0,0.0,0.0,0.0,0.0,0.0,0.0,0.0,0.0,0.0,0.0,0.0,0.0,0.0,0.0,0.0,0.0,0.0,0.0,0.0,0.0,0.0,0.0,-3.0758,-3.3878,-3.657,-3.9142,-4.0046,-3.9815,-3.8142,-3.6613,-3.389,-2.9621,0.0,0.0,0.0,0.0,0.0,0.0,0.0,0.0,0.0,0.0,0.0,0.0,0.0,0.0,0.0,0.0,0.0,0.0,0.0,0.0,0.0,0.0,0.0,0.0,0.0,0.0,0.0,0.0,0.0,0.0,0.0,0.0,0.0,0.0,0.0,0.0,0.0,0.0,0.0,0.0,0.0,0.0,0.0,0.0,0.0,0.0,0.0,0.0,0.0,0.0,0.0,0.0,0.0,0.0,0.0,0.0,0.0,0.0,0.0,0.0,-3.0343,0.0,0.0,0.0,0.0,0.0,0.0,0.0,0.0,0.0,0.0,0.0,0.0,0.0,0.0,0.0,0.0,0.0,0.0,0.0,0.0,0.0,0.0,0.0,0.0,0.0,0.0,0.0,0.0,0.0,0.0,0.0,0.0,0.0,0.0,0.0,0.0,0.0,0.0,0.0,0.0,0.0,-3.1565,-3.4611,-3.7239,-3.995,-4.0392,-3.9835,-3.8223,-3.7185,-3.4841,-3.0637,-2.7726,0.0,0.0,0.0,0.0,0.0,0.0,0.0,0.0,0.0,0.0,0.0,0.0,0.0,0.0,0.0,0.0,0.0,0.0,0.0,0.0,0.0,0.0,0.0,0.0,0.0,0.0,0.0,0.0,0.0,0.0,0.0,0.0,0.0,0.0,0.0,0.0,0.0,0.0,0.0,0.0,0.0,0.0,0.0,0.0,0.0,0.0,0.0,0.0,0.0,0.0,0.0,0.0,0.0,0.0,0.0,0.0,0.0,0.0,0.0,0.0,-3.2851,0.0,0.0,0.0,0.0,0.0,0.0,0.0,0.0,0.0,0.0,0.0,0.0,0.0,0.0,0.0,0.0,0.0,0.0,0.0,0.0,0.0,0.0,0.0,0.0,0.0,0.0,0.0,0.0,0.0,0.0,0.0,0.0,0.0,0.0,0.0,0.0,0.0,0.0,0.0,0.0,-3.187,-3.4925,-3.7571,-4.0219,-4.0489,-3.9835,-3.82,-3.7301,-3.5403,-3.2011,-2.9339,0.0,0.0,0.0,0.0,0.0,0.0,0.0,0.0,0.0,0.0,0.0,0.0,0.0,0.0,0.0,0.0,0.0,0.0,0.0,0.0,0.0,0.0,0.0,0.0,0.0,0.0,0.0,0.0,0.0,0.0,0.0,0.0,0.0,0.0,0.0,0.0,0.0,0.0,0.0,0.0,0.0,0.0,0.0,0.0,0.0,0.0,0.0,0.0,0.0,0.0,0.0,0.0,0.0,-4.0312,-4.1398,-4.2143,-4.2265,-4.2762,-4.3347,-3.9791,-3.8223,-3.7949,0.0,0.0,0.0,0.0,0.0,0.0,0.0,0.0,0.0,0.0,0.0,0.0,0.0,0.0,0.0,0.0,0.0,0.0,0.0,0.0,0.0,0.0,0.0,0.0,0.0,-3.5757,-3.4988,0.0,0.0,0.0,0.0,0.0,0.0,0.0,0.0,0.0,0.0,0.0,0.0,-3.2273,-3.5379,-3.8007,-4.0258,-4.0489,-3.9835,-3.8161,-3.7416,-3.5949,-3.3422,-3.1124,-2.8805,0.0,0.0,0.0,0.0,0.0,0.0,0.0,0.0,0.0,0.0,0.0,0.0,0.0,0.0,0.0,0.0,0.0,0.0,0.0,0.0,0.0,0.0,0.0,0.0,0.0,0.0,0.0,0.0,0.0,0.0,0.0,0.0,-2.2524,-2.3629,0.0,0.0,0.0,0.0,0.0,0.0,0.0,0.0,0.0,0.0,0.0,0.0,0.0,-3.7617,-3.9317,-4.1946,-4.3319,-4.3472,-4.5836,-4.7144,-4.7495,-4.7505,-4.7704,-4.8005,-4.7441,0.0,-4.1582,-3.9668,0.0,0.0,0.0,0.0,0.0,0.0,0.0,0.0,0.0,0.0,0.0,0.0,0.0,0.0,0.0,0.0,0.0,0.0,0.0,0.0,0.0,0.0,-3.9354,-3.8757,-3.9238,-3.9431,0.0,-3.3737,-2.9598,-2.745,-2.5953,0.0,0.0,0.0,0.0,0.0,0.0,0.0,-3.3519,-3.6911,-3.9354,-4.0392,-4.0489,-3.9835,-3.8223,-3.7978,-3.6895,-3.4462,-3.3211,-3.1749,-2.991,-2.6813,0.0,0.0,0.0,0.0,0.0,0.0,0.0,0.0,0.0,0.0,0.0,0.0,0.0,0.0,0.0,0.0,0.0,0.0,0.0,0.0,0.0,0.0,0.0,0.0,0.0,0.0,0.0,0.0,0.0,-2.3486,-2.5813,-2.6188,-2.696,-2.679,0.0,0.0,0.0,0.0,0.0,0.0,0.0,0.0,0.0,-3.8918,-4.0535,-4.2215,-4.3942,-4.6088,-4.7413,-4.7913,-4.9567,-5.0717,-5.1368,-5.144,-5.1589,-5.1738,-5.125,-4.9941,-4.791,-4.4277,-4.1719,-3.9902,0.0,0.0,0.0,0.0,-3.7923,-3.8584,-4.052,-4.1139,0.0,-3.9915,0.0,0.0,0.0,0.0,0.0,0.0,0.0,0.0,0.0,0.0,-4.145,-4.197,-4.2374,-4.2527,-4.2181,-3.9315,-3.5878,0.0,-3.1111,-2.914,-2.5584,0.0,0.0,0.0,0.0,-3.2103,-3.4622,-3.7488,-3.9604,-4.0412,-4.0489,-3.9835,-3.818,-3.8046,-3.718,-3.5205,-3.4218,-3.2961,-3.1237,-2.9236,-2.7101,0.0,0.0,0.0,0.0,0.0,0.0,0.0,0.0,0.0,0.0,0.0,0.0,0.0,0.0,0.0,0.0,0.0,0.0,0.0,0.0,0.0,0.0,0.0,0.0,0.0,0.0,0.0,0.0,-2.6458,-2.8835,-2.8648,-3.0516,-3.1148,0.0,0.0,0.0,0.0,0.0,0.0,-3.9261,-4.3881,-4.5856,-4.4538,-4.5436,-4.6778,-4.8509,-4.976,-5.0702,-5.1337,-5.2068,-5.2838,-5.361,-5.3731,-5.3868,-5.3965,-5.3301,-5.3027,-5.2676,-4.7949,-4.5234,-4.3887,-4.2148,-4.1094,-4.0722,-4.1978,-4.2592,-4.3203,-4.5742,-4.6539,-4.6206,-4.4853,0.0,-4.2637,-3.9316,0.0,0.0,0.0,0.0,-3.9396,-4.1035,-4.2321,-4.3508,-4.4932,-4.5124,-4.497,-4.497,-4.3624,-4.1316,0.0,-3.5911,-3.4045,-3.0467,0.0,0.0,0.0,0.0,-3.443,-3.5949,-3.8161,-3.9835,-4.0431,-4.0489,-3.9815,-3.8142,-3.8007,-3.7276,-3.5622,-3.4891,-3.3776,-3.2083,-3.1198,-2.9333,-2.6332,0.0,0.0,0.0,0.0,0.0,0.0,0.0,0.0,0.0,0.0,0.0,0.0,0.0,0.0,0.0,0.0,0.0,0.0,0.0,0.0,0.0,0.0,0.0,0.0,0.0,0.0,0.0,0.0,0.0,-3.0631,-3.4109,0.0,0.0,0.0,0.0,-3.4573,-4.4088,-4.9751,-4.992,-4.9232,-4.9756,-5.1799,-5.0914,-5.1183,-5.2876,-5.2972,-5.3029,-5.3087,-5.3242,-5.3415,-5.3608,-5.3745,-5.388,-5.4004,-5.3945,-5.3926,-5.3652,-5.0156,-4.8652,-4.8398,-4.6641,-4.5957,-4.5918,-4.6015,-4.6562,-4.7305,-4.7461,-4.7454,-4.7607,-4.9279,-4.8116,-4.5898,-4.4863,-4.3398,0.0,0.0,-4.3847,-4.4859,-4.6403,-4.6817,-4.7006,-4.774,-4.7336,-4.6778,-4.6778,-4.5393,-4.3393,0.0,-3.8931,-3.7238,-3.543,0.0,-3.3872,-3.3814,-3.5353,-3.6834,-3.7757,-3.9373,-4.045,-4.0489,-4.0489,-3.9815,-3.8142,-3.8007,-3.7276,-3.5622,-3.5468,-3.4661,-3.291,-3.2064,-3.0775,-2.8929,-2.5707,0.0,0.0,0.0,0.0,0.0,0.0,0.0,0.0,0.0,0.0,0.0,0.0,0.0,0.0,0.0,0.0,0.0,0.0,0.0,0.0,0.0,0.0,0.0,0.0,0.0,0.0,0.0,0.0,-3.5488,-3.8374,0.0,-3.6968,-3.5312,-3.3805,-3.2321,-4.3686,-5.0696,-5.0698,-5.1009,-5.1549,-5.2377,-5.2338,-5.2606,-5.3203,-5.3203,-5.351,-5.4185,-5.4204,-5.4647,-5.5397,-5.5457,-5.556,-5.5644,-5.5078,-5.4844,-5.4707,-5.293,-5.1855,-5.1289,-5.0664,-5.0078,-4.957,-4.957,-4.9785,-5.0058,-5.0058,-4.996,-4.9874,-5.0016,-4.9118,-4.7812,-4.6933,-4.6621,-4.6523,-4.6289,-4.6758,-4.7478,-4.802,-4.8082,-4.8066,-4.8298,-4.8144,-4.7797,-4.7218,-4.6602,-4.5736,-4.4256,-4.2047,-3.9738,-3.7488,-3.7315,-3.693,-3.5276,-3.6949,-3.8488,-3.8796,-3.9796,-4.0489,-4.0489,-4.0489,-3.9815,-3.8142,-3.8007,-3.7046,-3.4795,-3.4661,-3.3891,-3.2199,-3.1852,-3.0641,-2.8371,-2.6601,-2.4312,0.0,0.0,0.0,0.0,0.0,0.0,0.0,0.0,0.0,0.0,0.0,0.0,0.0,0.0,0.0,0.0,0.0,0.0,0.0,0.0,0.0,0.0,0.0,0.0,0.0,0.0,-3.8013,-3.9134,-4.231,-4.302,-3.9499,-4.0506,-3.9996,-3.6627,-4.5799,-5.147,-5.1279,-5.2165,-5.28,-5.3087,-5.3453,-5.378,-5.4049,-5.4087,-5.4434,-5.5109,-5.5224,-5.5667,-5.64,-5.6449,-5.6513,-5.6562,-5.5996,-5.5742,-5.5683,-5.5117,-5.4359,-5.3546,-5.3255,-5.2578,-5.1777,-5.1816,-5.1641,-5.1406,-5.1406,-5.1348,-5.1187,-5.0646,-5.0134,-4.9648,-4.9062,-4.9297,-4.9629,-4.9043,-4.9238,-4.9609,-4.9551,-4.9471,-4.9421,-4.9378,-4.9154,-4.8787,-4.8203,-4.7618,-4.7038,-4.6443,-4.4411,-4.2242,-4.0566,-4.0504,-4.0096,-3.8368,-3.9292,-4.0196,-4.0142,-4.0354,-4.0489,-4.0489,-4.0489,-3.9815,-3.8142,-3.7738,-3.6738,-3.4757,-3.4083,-3.3256,-3.216,-3.1564,-3.0333,-2.8332,-2.7086,-2.4924,-2.179,0.0,0.0,0.0,0.0,0.0,0.0,0.0,0.0,0.0,0.0,0.0,0.0,0.0,0.0,0.0,0.0,0.0,0.0,0.0,0.0,0.0,0.0,0.0,-3.3468,-3.7974,-4.1259,-4.1424,-4.5762,-4.7187,-4.3262,-4.6111,-4.8259,-4.8356,-5.1376,-5.2993,-5.2511,-5.2953,-5.3626,-5.4472,-5.453,-5.4914,-5.5703,-5.5857,-5.5955,-5.5974,-5.6302,-5.6477,-5.6443,-5.6589,-5.6621,-5.6601,-5.6601,-5.6601,-5.6601,-5.6601,-5.6093,-5.5248,-5.4378,-5.3437,-5.2558,-5.2695,-5.2187,-5.1445,-5.1406,-5.1406,-5.1406,-5.1406,-5.1406,-5.1406,-5.1406,-5.1406,-5.1406,-5.1406,-5.1406,-5.1367,-5.123,-5.1211,-5.1185,-5.1117,-5.0452,-4.9849,-4.9829,-4.8457,-4.725,-4.7211,-4.588,-4.4722,-4.472,-4.4001,-4.3393,-4.3211,-4.2518,0.0,-4.1816,-4.1046,-4.0489,-4.0489,-4.0489,-3.9815,-3.8142,-3.7238,-3.6372,-3.5468,-3.3833,-3.2891,-3.2852,-3.1275,-2.9987,-2.9063,-2.7179,-2.4968,-2.2441,0.0,0.0,0.0,0.0,0.0,0.0,0.0,0.0,0.0,0.0,0.0,0.0,0.0,0.0,0.0,0.0,0.0,0.0,0.0,0.0,0.0,0.0,-3.5678,-3.7812,-4.0921,-4.3935,-4.6484,-4.8359,-4.9316,-4.9004,-4.9902,-5.1531,-5.4071,-5.3783,-5.3648,-5.3994,-5.4185,-5.4397,-5.4647,-5.5107,-5.5511,-5.5838,-5.6494,-5.6958,-5.7208,-5.7884,-5.7967,-5.7498,-5.7532,-5.7207,-5.6601,-5.6601,-5.6601,-5.6601,-5.6601,-5.6394,-5.6015,-5.5258,-5.4392,-5.3594,-5.3633,-5.3086,-5.2246,-5.1621,-5.1406,-5.1406,-5.1406,-5.1406,-5.1406,-5.1406,-5.1406,-5.1406,-5.1406,-5.1406,-5.1387,-5.1348,-5.1348,-5.1347,-5.1318,-5.1137,-5.0806,-5.022,-4.9223,-4.8252,-4.7609,-4.6532,-4.5494,-4.4831,-4.442,-4.3976,-4.3298,-4.2435,0.0,-4.1797,-4.1046,-4.0489,-4.0489,-4.0489,-3.9815,-3.8142,-3.7777,-3.6488,-3.3795,-3.3179,-3.2641,-3.2045,-3.0987,-2.9651,-2.8045,-2.688,-2.524,0.0,0.0,0.0,0.0,0.0,0.0,0.0,0.0,0.0,0.0,0.0,0.0,0.0,0.0,0.0,0.0,0.0,0.0,0.0,0.0,0.0,0.0,-3.6855,-4.0184,-4.291,-4.457,-4.6484,-4.9121,-5.0019,-5.0664,-5.1348,-5.2051,-5.3321,-5.5364,-5.5021,-5.4739,-5.4726,-5.5117,-5.5341,-5.532,-5.6032,-5.6436,-5.6533,-5.7461,-5.8,-5.8214,-5.8769,-5.8827,-5.8437,-5.8066,-5.7617,0.0,-5.6758,-5.6601,-5.6601,-5.6601,-5.6558,0.0,0.0,0.0,0.0,0.0,-5.3457,-5.2637,-5.2129,-5.1719,-5.1406,-5.1406,-5.1406,-5.1406,-5.1406,-5.1406,-5.1406,-5.1406,-5.1406,-5.1328,-5.0976,-5.0852,-5.0801,-5.0805,-5.0764,-5.0707,-5.061,-4.988,-4.9021,-4.8154,-4.7206,0.0,-4.5357,-4.5126,-4.4905,-4.4382,-4.3505,-4.2777,-4.2393,-4.1585,-4.0893,-4.0527,-4.0489,-3.9969,-3.8661,-3.7873,0.0,0.0,0.0,-3.2154,-3.0863,-3.0018,0.0,0.0,0.0,0.0,0.0,0.0,0.0,0.0,-2.4654,-2.4709,0.0,0.0,0.0,0.0,0.0,0.0,0.0,0.0,0.0,0.0,0.0,0.0,0.0,0.0,0.0,0.0,-4.0742,-4.498,-4.7793,-4.8301,-4.8867,-5.0176,-5.0976,-5.1406,-5.1406,-5.3144,-5.4297,-5.4297,-5.5572,-5.5968,-5.515,0.0,0.0,0.0,0.0,-5.7406,-5.7441,-5.8503,-5.9048,-5.907,-5.9346,-5.9433,-5.9316,-5.8437,-5.7988,-5.7851,-5.6973,-5.6601,-5.6601,-5.6597,-5.6591,-5.658,-5.6586,-5.6026,-5.5157,-5.4376,-5.3612,-5.2949,-5.2754,0.0,0.0,-5.1426,-5.1406,-5.1406,-5.1406,-5.1406,-5.1406,-5.1406,-5.1326,-5.1086,-5.0363,-5.0023,-4.9864,-4.9933,-4.9896,-5.004,-5.0906,-5.042,-4.9545,-4.8672,-4.7777,-4.6896,-4.6037,-4.5893,-4.5875,-4.5808,-4.5045,-4.4179,-4.3335,-4.2412,-4.1508,-4.0719,0.0,0.0,-3.9323,-3.7828,-3.681,-3.6473,-3.4044,-3.1794,-2.9962,-2.9302,-2.887,-2.865,-2.9266,-2.9869,-3.0457,-3.1102,-3.1072,-3.0411,-2.8292,-2.7978,0.0,0.0,0.0,0.0,0.0,0.0,0.0,0.0,0.0,0.0,0.0,0.0,0.0,0.0,0.0,-3.9668,-4.3359,-4.6621,-4.9023,-5.0156,-5.0859,-5.1133,-5.1308,-5.1406,-5.1406,-5.4258,-5.6094,-5.6094,-5.6365,-5.6458,-5.6282,-5.6321,-5.6354,-5.6356,-5.7031,-5.7478,-5.7634,-5.9179,-6.0011,-6.0128,0.0,0.0,-6.0137,-5.9316,-5.8555,-5.7851,-5.6973,-5.6601,-5.66,-5.6608,-5.6534,-5.6435,-5.6437,-5.6317,-5.6019,-5.5074,-5.4699,-5.4433,-5.3027,-5.25,-5.2324,-5.1621,-5.1406,-5.1406,-5.1406,-5.1406,0.0,-5.1406,-5.0842,-5.0225,-5.007,-4.9426,-4.8984,-4.9676,-4.9815,-5.0042,-5.0908,-5.0408,-4.9541,-4.8671,-4.7706,-4.6767,-4.5967,-4.5825,-4.5819,-4.5796,-4.4987,-4.4259,-4.4085,-4.2739,-4.1739,-4.1566,-4.0912,-4.006,-3.8992,-3.8592,-3.7413,-3.5135,-3.3885,-3.2751,-3.1657,-3.2147,-3.1711,-3.0199,-3.094,-3.0954,-3.0262,-3.1023,-3.1641,-3.2118,-3.1029,-3.0331,0.0,0.0,0.0,0.0,0.0,0.0,0.0,0.0,0.0,0.0,0.0,-3.5273,-3.6992,0.0,-4.0391,-4.3281,-4.6133,-4.8594,-5.0312,-5.1035,-5.1406,-5.1406,-5.1406,-5.1406,-5.1406,-5.3769,-5.5664,-5.6523,-5.6601,-5.6601,-5.6601,-5.6543,-5.6699,-5.7148,-5.7906,-5.8545,-5.9054,-6.0311,-6.099,-6.1055,-6.1484,-6.1465,-6.1015,-6.0176,-5.9336,-5.8496,-5.7637,-5.7001,-5.6578,-5.6521,-5.6417,-5.6282,-5.6186,-5.6205,-5.6227,-5.5743,-5.5364,-5.4977,-5.4108,-5.332,-5.2637,-5.2187,-5.1758,-5.1406,-5.1406,-5.1342,-5.1288,-5.1288,-5.093,-5.0342,-4.9478,-4.8825,-4.8416,-4.8407,-4.8375,-4.8702,-4.9971,-4.9913,-4.9471,-4.9029,-4.8182,-4.7298,-4.649,-4.599,-4.5699,-4.5699,-4.5259,-4.4778,-4.4355,-4.322,-4.2208,-4.1605,-4.0802,-4.0004,-3.9273,-3.8795,-3.7721,-3.5768,-3.4476,-3.3552,-3.2962,-3.2594,-3.2135,-3.1602,-3.1991,-3.2324,-3.2614,-3.3018,-3.3642,-3.4449,-3.4045,-3.3403,0.0,0.0,0.0,0.0,0.0,0.0,0.0,0.0,-3.3027,-3.5859,-3.7832,-3.9687,-4.1797,-4.3125,-4.4551,-4.6621,-4.8691,-5.0351,-5.1269,-5.1406,-5.1406,-5.1406,-5.1406,-5.1406,-5.1406,-5.3281,-5.5098,-5.6484,-5.6601,-5.6601,-5.6601,-5.6601,-5.6989,-5.7816,-5.8695,-5.9527,-6.0303,-6.1182,-6.1612,-6.1612,-6.1659,-6.166,-6.1621,-6.0783,-6.0022,-5.9319,-5.8267,-5.7321,-5.6503,-5.6363,-5.6244,-5.6128,-5.5915,-5.5994,-5.6148,-5.6148,-5.578,-5.5287,-5.5147,-5.4169,-5.293,-5.2754,-5.2109,-5.1406,-5.1369,-5.1295,-5.1203,-5.1183,-5.1003,-5.0494,-4.9073,-4.8372,-4.7893,-4.7336,-4.7048,-4.7317,-4.8817,-4.9144,-4.9106,-4.8933,-4.8355,-4.7605,-4.6797,-4.6067,-4.5586,-4.5586,-4.5586,-4.5318,-4.4534,-4.3613,-4.2602,-4.1566,-4.0573,-3.988,-3.9529,-3.8662,-3.7785,-3.6909,-3.5435,-3.4518,-3.4284,-3.3036,-3.2651,-3.3311,-3.333,-3.3972,-3.5247,-3.5247,-3.5624,-3.6303,-3.645,-3.6064,-2.8867,-2.8215,-2.8581,-3.1692,-3.2085,-3.332,0.0,0.0,-3.8027,-4.1894,-4.4082,-4.5371,-4.5683,-4.666,-4.7832,-4.9101,-5.0371,-5.125,-5.1387,-5.1406,-5.1406,-5.1406,-5.1406,-5.1406,-5.1406,-5.4375,-5.6387,-5.6582,-5.6601,-5.6601,-5.6601,-5.6601,-5.692,-5.7621,-5.8468,-5.9295,-6.0038,-6.0905,-6.1334,-6.1363,-6.1467,-6.1523,-6.1503,-6.073,-6.0284,-5.9976,-5.8221,-5.701,-5.6239,-5.6039,-5.5955,-5.5915,-5.578,-5.5799,-5.5915,-5.5915,-5.5994,-5.5974,-5.5326,-5.4547,-5.373,-5.2949,-5.2109,-5.1377,-5.1256,-5.122,-5.1183,-5.1126,-5.0451,-4.9717,-4.9528,-4.8278,-4.7201,-4.7836,-4.7432,-4.7163,-4.8048,-4.8259,-4.8029,-4.7317,-4.7105,-4.6759,-4.5893,-4.5663,-4.5586,-4.5586,-4.5586,-4.5456,-4.5067,-4.3633,-4.2481,-4.2073,-4.0589,-3.9529,-3.9186,-3.8192,-3.754,-3.7437,-3.6544,-3.6066,-3.6009,-3.5844,-3.5789,-3.5881,-3.5881,-3.5973,-3.6156,-3.6156,-3.6193,-3.6321,-3.7019,-3.6927,-3.175,-3.2056,0.0,0.0,-3.653,-3.8552,-4.1615,-4.2051,-4.2617,-4.5391,-4.6953,-4.7969,-4.8476,-4.9336,-5.0137,0.0,-5.1094,-5.1406,-5.1406,-5.1406,-5.1406,-5.1406,-5.1406,-5.1406,-5.1406,-5.4551,-5.6601,-5.6601,-5.6601,-5.6601,-5.6601,-5.707,-5.7661,-5.8354,-5.9196,-6.0005,-6.075,-6.1117,-6.1291,-6.1291,-6.1361,-6.139,-6.138,-6.1064,-6.0616,-5.9973,-5.8181,-5.7168,-5.6747,-5.6134,-5.5838,-5.578,-5.5722,-5.578,-5.5895,-5.5895,-5.609,-5.6263,-5.5974,-5.5376,-5.4609,-5.373,-5.2821,-5.1935,-5.1371,-5.1126,-5.1029,-5.0991,-5.0625,-5.0125,-4.9625,-4.8548,-4.7567,-4.7432,-4.6759,-4.6374,-4.7221,-4.7413,-4.7451,-4.7567,-4.7221,-4.6778,-4.6413,-4.5784,-4.5322,-4.5322,-4.5322,-4.5243,-4.5118,-4.3874,-4.2502,-4.1188,-3.9871,-3.9008,-3.8884,-3.8449,-3.8193,-3.8193,-3.7422,-3.6982,-3.6982,-3.6541,-3.6303,-3.6303,-3.6303,-3.6523,-3.6982,-3.6982,-3.7239,-3.7698,-3.8046,-3.801,-3.3355,0.0,0.0,-3.7744,-4.0419,-4.2787,-4.3442,-4.4887,-4.6429,-4.7603,-4.8445,-4.9148,-4.9637,-5.0396,-5.0967,-5.1015,-5.1191,-5.1367,-5.1387,-5.1406,-5.1406,-5.1406,-5.1406,-5.1406,-5.1406,-5.3672,-5.5566,-5.6523,-5.6387,-5.6348,-5.6582,-5.7422,-5.8194,-5.8819,-5.9672,-6.0473,-6.117,-6.117,-6.117,-6.117,-6.1208,-6.1233,-6.1221,-6.1221,-6.0748,-5.9858,-5.8322,-5.7456,-5.7088,-5.6203,-5.578,-5.5703,-5.5742,-5.5838,-5.5994,-5.6032,-5.6186,-5.6402,-5.6452,-5.5925,-5.5093,-5.424,-5.3263,-5.229,-5.1395,-5.1029,-5.0895,-5.0875,-5.076,-5.0548,-4.9913,-4.9106,-4.8259,-4.7432,-4.6586,-4.6067,-4.6471,-4.6547,-4.6721,-4.7298,-4.6932,-4.651,-4.6417,-4.5663,-4.5074,-4.4985,-4.4853,-4.4806,-4.4806,-4.3559,-4.2053,-4.0372,-3.9312,-3.8707,-3.8707,-3.8707,-3.8707,-3.8707,-3.8138,-3.7826,-3.7826,-3.7257,-3.6964,-3.6964,-3.6964,-3.7239,-3.7826,-3.7826,-3.812,-3.8707,-3.8707,-3.8707,0.0,0.0,-3.7211,-4.0768,-4.3063,-4.4833,-4.6487,-4.8147,-4.9187,-4.8591,-4.8872,-4.9067,-4.8639,-4.9264,-4.9886,-5.0018,-5.0703,-5.125,-5.1387,-5.1406,-5.1406,-5.1406,-5.1406,-5.1406,0.0,-5.1504,-5.2969,-5.6348,-5.582,-5.5703,-5.6543,-5.7422,-5.816,-5.8698,-5.9553,-6.0258,-6.08,-6.0819,-6.0819,-6.0819,-6.0935,-6.1016,-6.102,-6.102,-6.0554,-5.9746,-5.8723,-5.778,-5.6934,-5.6069,-5.5703,-5.5703,-5.5838,-5.6032,-5.6205,-5.634,-5.6379,-5.6406,-5.6548,-5.5929,-5.4956,-5.4092,-5.3146,-5.213,-5.1196,-5.0914,-5.0875,-5.0741,-5.0702,-5.0683,-5.0664,-5.001,-4.9144,-4.8279,-4.7451,-4.6644,-4.5817,-4.5624,-4.5643,-4.5663,-4.5663,-4.5533,-4.5218,-4.5115,-4.4988,-4.4657,-4.429,-4.4028,-4.4028,-4.234,-4.085,-4.0005,-3.9166,-3.8707,-3.8707,-3.8707,-3.8707,-3.8707,-3.8689,-3.867,-3.867,-3.8652,-3.8634,-3.8634,-3.8634,-3.8652,-3.867,-3.867,-3.8689,-3.8707,-3.8707,-3.8707,0.0,0.0,-3.9779,-4.3094,-4.5222,-4.6892,-4.8394,-4.9172,-4.9521,-4.9382,-4.8614,-4.7893,-4.7738,-4.7942,-4.8363,-4.9026,-4.9853,-5.0644,-5.1308,-5.1406,-5.1406,-5.1406,-5.1406,0.0,0.0,0.0,0.0,-5.4707,-5.5137,-5.5683,-5.6543,-5.7969,-5.8787,-5.882,-6.0254,-6.0973,-6.0916,-6.0916,-6.0877,-6.08,-6.0935,-6.0993,-6.0993,-6.1151,-6.1054,-6.0746,-5.9838,-5.8934,-5.805,-5.7187,-5.6494,-5.6051,-5.609,-5.6186,-5.634,-5.6379,-5.6398,-5.6426,-5.6558,-5.632,-5.5724,-5.4265,-5.3454,-5.2771,-5.1337,-5.0856,-5.0779,-5.0837,-5.076,-5.0721,-5.0818,-5.0106,-4.9183,-4.8317,-4.749,-4.6663,-4.5778,-4.5586,-4.5531,-4.5322,-4.5282,-4.5161,-4.4825,-4.4535,-4.4261,-4.3931,-4.3943,-4.3924,-4.3693,-4.2184,-4.102,-4.0726,-3.9496,-3.8707,-3.8707,-3.8707,-3.8707,-3.8707,-3.8707,-3.8707,-3.8707,-3.8707,-3.8707,-3.8707,-3.8707,-3.8707,-3.8707,-3.8707,-3.8707,-3.8707,-3.8707,-3.8707,-3.7312,-3.9693,-4.1978,-4.53,-4.7058,-4.819,-4.9099,-4.9432,-4.9201,-4.8084,-4.6966,-4.596,-4.5035,-4.5117,-4.5853,-4.7415,-4.8397,-4.9524,-5.1171,-5.1406,-5.1406,-5.1406,-5.1406,-5.1406,0.0,0.0,0.0,-5.418,-5.4922,-5.5683,-5.6543,-5.8242,-5.9101,-5.8906,-6.0592,-6.137,-6.1099,-6.1106,-6.105,-6.0973,-6.105,-6.1106,-6.1099,-6.1254,-6.1312,-6.1254,-6.0384,-5.9495,-5.8625,-5.7754,-5.694,-5.6209,-5.625,-5.6321,-5.6398,-5.6436,-5.6445,-5.6405,-5.6503,-5.6387,-5.5936,-5.4226,-5.3513,-5.3011,-5.1337,-5.0818,-5.0779,-5.0895,-5.0835,-5.0793,-5.0875,-5.0375,-4.9644,-4.8779,-4.7932,-4.7105,-4.624,-4.5725,-4.5362,-4.514,-4.4988,-4.4806,-4.4447,-4.4076,-4.3758,-4.3548,-4.366,-4.374,-4.3513,-4.2359,-4.1423,-4.1148,-3.9918,-3.9019,-3.8726,-3.8707,-3.8707,-3.8707,-3.8707,-3.8707,-3.8707,-3.8707,-3.8707,-3.8707,-3.8707,-3.8707,-3.8707,-3.8707,-3.8707,-3.8707,-3.8707,-3.8707,-3.9354,-4.1636,-4.3863,-4.7343,-4.8496,-4.8767,-4.8848,-4.8979,-4.8183,-4.4857,-4.4068,-4.3203,0.0,0.0,-4.2588,-4.5243,-4.6519,-4.8155,-5.0986,-5.1406,-5.1406,0.0,0.0,0.0,0.0,0.0,0.0,-5.4746,0.0,-5.5644,-5.6621,-5.8281,-5.9121,-5.8984,-6.0613,-6.1448,-6.1312,-6.1311,-6.1312,-6.1312,-6.1304,-6.1312,-6.1304,-6.132,-6.1331,-6.1273,-6.0444,-5.9569,-5.8663,-5.7828,-5.7001,-5.623,-5.6362,-5.6404,-5.6404,-5.6541,-5.6495,-5.6382,-5.6381,-5.6167,-5.5647,-5.3993,-5.3358,-5.2895,-5.126,-5.0818,-5.0895,-5.0914,-5.0897,-5.0884,-5.0912,-5.0818,-5.0471,-4.9606,-4.874,-4.7875,-4.7049,-4.5935,-4.5096,-4.5052,-4.4757,-4.4419,-4.4046,-4.3693,-4.3497,-4.3497,-4.3497,-4.3497,-4.3497,-4.28,-4.2011,-4.1258,-4.0396,-3.9588,-3.8836,-3.8726,-3.8707,-3.8707,-3.8707,-3.8707,-3.8707,-3.8707,-3.8707,-3.8707,-3.8707,-3.8707,-3.8707,-3.8707,-3.8707,-3.8707,-3.8707,-3.8707,-4.0924,-4.3721,-4.6445,-4.8273,-4.8547,-4.8594,-4.9421,-4.7385,-4.4766,-4.2824,-4.0769,-3.8931,0.0,0.0,0.0,-4.3602,-4.6215,0.0,-5.0947,-5.1349,0.0,-5.1406,0.0,-5.1914,-5.3203,-5.334,0.0,0.0,-5.4668,-5.5273,-5.7441,-5.8613,-5.9453,-6.0,-6.1086,-6.1587,-6.145,-6.1342,-6.1313,-6.1298,-6.1406,-6.145,-6.1446,-6.1545,-6.1606,-6.1587,-6.1352,-6.0435,-5.9065,-5.8834,-5.7857,-5.6507,-5.6538,-5.6548,-5.6532,-5.6485,-5.636,-5.6223,-5.6078,-5.5974,-5.5744,-5.4705,-5.3839,-5.301,-5.1933,-5.1202,-5.076,-5.0867,-5.0835,-5.0776,-5.0875,-5.0818,-5.0471,-4.9606,-4.874,-4.7799,-4.6699,-4.5753,-4.4943,-4.4401,-4.3986,-4.3744,-4.3664,-4.3582,-4.3497,-4.3497,-4.3497,-4.3497,-4.3497,-4.28,-4.2213,-4.2029,-4.0744,-3.9808,-3.9606,-3.9038,-3.8707,-3.8707,-3.8707,-3.8707,-3.8707,-3.8707,-3.8707,-3.8707,-3.8707,-3.8707,-3.8707,-3.8707,-3.8707,-3.8707,-3.8707,-3.8707,-4.3319,-4.5715,-4.7812,-4.8457,-4.8408,-4.7975,-4.7143,-4.5114,-4.2411,-3.9032,-3.6996,0.0,0.0,0.0,0.0,0.0,0.0,0.0,-5.0202,-5.0975,-5.1307,0.0,-5.2754,0.0,-5.5058,-5.5137,-5.5195,0.0,-5.5195,-5.5957,-5.7793,-5.873,-5.957,-6.0371,-6.125,-6.166,-6.1582,-6.151,-6.1485,-6.1485,-6.1546,-6.1577,-6.159,-6.167,-6.1699,-6.1699,0.0,-6.0742,-5.9199,-5.9199,-5.8164,-5.6601,-5.6601,-5.6556,-5.6504,-5.6424,-5.6252,-5.6056,-5.5943,-5.5857,-5.5665,-5.4878,-5.4222,-5.3549,-5.2279,-5.1625,-5.126,-5.0977,-5.085,-5.0818,-5.0895,-5.0818,-5.0529,-4.9869,-4.8754,-4.7656,-4.6787,-4.5571,-4.4455,-4.3881,-4.3612,-4.3497,-4.3497,-4.3497,-4.3497,-4.3497,-4.3497,-4.3497,-4.3497,-4.3112,-4.269,-4.2341,-4.1185,-4.0286,-3.9918,-3.9166,-3.8707,-3.8707,-3.8707,-3.8707,-3.8707,-3.8707,-3.8707,-3.8707,-3.8707,-3.8707,-3.8707,-3.9056,-3.9239,-3.9239,-3.9588,-3.9753,-4.5698,-4.7317,-4.8327,-4.8235,-4.8087,-4.7078,-4.3702,-4.2363,-4.0158,-3.4306,0.0,-3.241,-3.09,-3.23,-3.5059,-3.928,0.0,-4.5531,-4.9202,-5.0511,-5.1164,-5.1386,-5.4473,-5.6601,-5.6601,-5.6577,-5.6234,-5.5492,-5.6126,-5.699,-5.8027,-5.8789,-5.9629,-6.0547,-6.1308,-6.1699,-6.1699,-6.1699,-6.1699,-6.1699,-6.1699,-6.1699,-6.1699,-6.1699,-6.1699,-6.1699,-6.1582,0.0,-5.9199,-5.9082,-5.8064,-5.6566,-5.6566,-5.6495,-5.6367,-5.6342,-5.6148,-5.5895,-5.5876,-5.5799,-5.5568,-5.4895,-5.4587,-5.4203,-5.2568,-5.2068,-5.1915,-5.1106,-5.0875,-5.0856,-5.0797,-5.072,-5.0523,-5.0135,-4.8824,-4.7552,-4.7032,-4.5346,-4.3849,-4.3548,-4.3497,-4.3497,-4.3497,-4.3497,-4.3497,-4.3497,-4.3497,-4.3497,-4.3497,-4.3497,-4.3222,-4.2525,-4.1754,-4.0983,-4.0267,-3.9478,-3.9019,-3.9019,-3.8927,-3.8854,-3.8854,-3.8762,-3.8707,-3.8707,-3.8707,-3.8762,-3.8854,-3.9551,-3.9937,-4.0065,-4.0781,-4.1111,-4.5943,-4.7516,-4.863,-4.798,-4.7212,-4.577,-4.2448,-3.935,0.0,0.0,0.0,-2.8952,-2.8652,-3.0771,0.0,-3.805,0.0,0.0,0.0,0.0,-5.1162,0.0,0.0,0.0,0.0,0.0,0.0,0.0,0.0,-5.7057,-5.8886,-5.9121,-5.9902,-6.1426,-6.1621,-6.1699,-6.1699,-6.1699,-6.1699,-6.1699,-6.1699,-6.1699,-6.1699,-6.1699,-6.1699,-6.166,-6.0937,0.0,-5.914,-5.8418,-5.7466,-5.6439,-5.6439,-5.6343,-5.622,-5.6059,-5.5955,-5.5876,-5.5761,-5.5722,-5.5684,-5.553,-5.503,-5.4318,-5.328,-5.2491,-5.176,-5.0952,-5.0721,-5.0663,-5.0333,-5.0225,-5.0092,-4.9692,-4.8833,-4.7825,-4.6806,-4.5018,-4.3563,-4.3513,-4.3497,-4.3497,-4.3497,-4.3497,-4.3497,-4.3497,-4.3497,-4.3497,-4.3497,-4.3497,-4.3442,-4.3296,-4.2561,-4.2047,-4.1901,-4.1148,-4.0689,-4.0689,-4.0065,-3.968,-3.968,-3.9056,-3.8707,-3.8707,-3.8707,-3.9038,-3.968,-3.9827,-4.023,-4.091,-4.1038,-4.1111,-4.6654,-4.811,-4.9015,-4.8159,-4.6674,-4.4313,-4.0113,0.0,0.0,0.0,0.0,-2.6689,-2.6689,0.0,0.0,0.0,0.0,0.0,0.0,0.0,0.0,0.0,0.0,0.0,0.0,0.0,0.0,0.0,0.0,-5.6796,-5.82,-5.9192,-6.0098,-6.0898,-6.1426,-6.1699,-6.1699,-6.1699,-6.1699,-6.1699,-6.1699,-6.1699,-6.1699,-6.1699,-6.1445,-6.0996,-6.0586,0.0,-5.8495,-5.8009,-5.7242,-5.6379,-5.6321,-5.6175,-5.6026,-5.5942,-5.5857,-5.578,-5.5722,-5.5703,-5.5703,-5.5703,-5.5434,-5.4876,-5.3587,-5.2914,-5.2258,-5.0807,-5.0399,-5.0313,-4.9898,-4.98,-4.9692,-4.9295,-4.8058,-4.6731,-4.5786,-4.4478,-4.3497,-4.3497,-4.3497,-4.3497,-4.3497,-4.3497,-4.3497,-4.3497,-4.3497,-4.3497,-4.3497,-4.3497,-4.3497,-4.3497,-4.2782,-4.2304,-4.2304,-4.157,-4.1111,-4.1111,-4.0744,-4.0524,-4.0524,-4.0157,-3.9955,-3.9955,-3.9955,-4.0139,-4.0524,-4.0946,-4.135,-4.1735,-4.2158,-4.2359,-4.738,-4.8705,-4.9372,-4.8304,-4.6272,-4.3202,-3.8109,-3.4755,0.0,0.0,-2.5393,-2.5201,-2.5384,0.0,0.0,0.0,0.0,0.0,0.0,0.0,0.0,0.0,0.0,0.0,0.0,0.0,0.0,0.0,0.0,0.0,-5.736,-5.8999,-6.0002,-6.0195,-6.0996,-6.1504,-6.1699,-6.1699,-6.1699,-6.1699,-6.1699,-6.1699,-6.1699,-6.1504,-6.103,-6.0334,-5.9983,0.0,0.0,-5.7485,-5.6946,-5.6282,-5.6186,-5.6032,-5.5857,-5.5857,-5.578,-5.5703,-5.5703,-5.5703,-5.5703,-5.5703,-5.5703,-5.5376,-5.362,-5.308,-5.2631,-5.0569,-4.9974,-4.9898,-4.9475,-4.9356,-4.9265,-4.8863,-4.7313,-4.5736,-4.5094,-4.4195,-4.3497,-4.3497,-4.3497,-4.3497,-4.3497,-4.3497,-4.3497,-4.3497,-4.3497,-4.3497,-4.3497,-4.3497,-4.3497,-4.3497,-4.2928,-4.2561,-4.2561,-4.1992,-4.1625,-4.1625,-4.146,-4.1368,-4.1368,-4.1203,-4.1111,-4.1111,-4.1111,-4.1185,-4.1368,-4.1992,-4.2396,-4.2561,-4.3204,-4.3497,-4.7702,-4.9083,-4.9643,-4.7981,-4.5931,-4.2961,-3.767,0.0,0.0,-2.648,-2.4949,-2.452,-2.5274,-2.5551,0.0,0.0,0.0,0.0,0.0,0.0,0.0,0.0,0.0,0.0,0.0,0.0,0.0,0.0,0.0,0.0,-5.735,-5.8413,-5.9393,-6.0176,-6.041,-6.0898,-6.1699,-6.1699,-6.1699,-6.1699,-6.1699,-6.1699,-6.168,-6.0879,-6.0398,-6.0133,-5.8607,0.0,0.0,-5.6647,-5.6168,-5.5955,-5.5915,-5.5838,-5.5722,-5.5722,-5.5703,-5.5703,-5.5703,-5.5703,-5.5703,-5.5703,-5.5703,-5.5314,-5.3279,-5.2665,-5.2209,-5.0146,-4.958,-4.9475,-4.9043,-4.8963,-4.8829,-4.8458,-4.7095,-4.5883,-4.581,-4.458,-4.3497,-4.3497,-4.3497,-4.3497,-4.3497,-4.3497,-4.3497,-4.3497,-4.3497,-4.3497,-4.3497,-4.3497,-4.3497,-4.3497,-4.3424,-4.3387,-4.3387,-4.3314,-4.3277,-4.3277,-4.2598,-4.2194,-4.2194,-4.1497,-4.1111,-4.1111,-4.1111,-4.1479,-4.2194,-4.2268,-4.2671,-4.3387,-4.3461,-4.3497,-4.5727,-4.7602,-4.8659,-4.7643,-4.4939,-4.1349,-3.6667,0.0,-2.9075,-2.5523,-2.4487,-2.43,-2.4612,-2.4667,-2.5719,0.0,-3.0073,-3.2638,0.0,0.0,0.0,0.0,0.0,0.0,0.0,0.0,0.0,0.0,0.0,0.0,-5.6456,-5.7461,-5.817,-5.8494,-5.9737,-6.0566,-6.0918,-6.1445,-6.1699,-6.1699,-6.1099,-6.0812,-6.0754,-5.9821,-5.9056,-5.8478,-5.7815,0.0,0.0,-5.6186,-5.5962,-5.5876,-5.5799,-5.5742,-5.5703,-5.5703,-5.5703,-5.5703,-5.5703,-5.5535,-5.5331,-5.5331,-5.4823,-5.3998,-5.2914,-5.2106,-5.1168,-4.9584,-4.9139,-4.9062,-4.8621,-4.855,-4.8513,-4.8344,-4.7443,-4.6507,-4.5993,-4.5021,-4.4085,-4.3589,-4.3497,-4.3497,-4.3497,-4.3497,-4.3497,-4.3497,-4.3497,-4.3497,-4.3497,-4.3497,-4.3497,-4.3497,-4.3497,-4.3497,-4.3497,-4.3497,-4.3497,-4.3497,-4.3185,-4.302,-4.302,-4.2708,-4.2543,-4.2543,-4.2543,-4.269,-4.302,-4.302,-4.3185,-4.3497,-4.3497,-4.3497,-4.3666,-4.57,-4.7028,-4.6703,-4.3561,-3.9585,0.0,-3.1958,-2.8108,-2.4874,-2.4247,-2.4266,-2.4209,-2.4303,-2.5041,0.0,-2.7641,-2.971,-3.5013,0.0,0.0,0.0,0.0,0.0,0.0,0.0,0.0,0.0,0.0,0.0,-5.5876,-5.6689,-5.7236,-5.7474,-5.8905,-5.9785,-6.0039,-6.0644,-6.0957,-6.0957,-6.0172,-5.9837,-5.9779,-5.8781,-5.7954,-5.7324,-5.7062,0.0,0.0,-5.5895,-5.5838,-5.5818,-5.5742,-5.5703,-5.5703,-5.5703,-5.5703,-5.5684,-5.5577,-5.5331,-5.5023,-5.4675,-5.3705,-5.258,-5.2068,-5.1309,-5.0353,-4.9071,-4.8709,-4.8657,-4.8364,-4.8306,-4.8306,-4.8306,-4.77,-4.6893,-4.6067,-4.5278,-4.447,-4.3644,-4.3497,-4.3497,-4.3497,-4.3497,-4.3497,-4.3497,-4.3497,-4.3497,-4.3497,-4.3497,-4.3497,-4.3497,-4.3497,-4.3497,-4.3497,-4.3497,-4.3497,-4.3497,-4.3497,-4.3497,-4.3497,-4.3497,-4.3497,-4.3497,-4.3497,-4.3497,-4.3497,-4.3497,-4.3497,-4.3497,-4.3497,-4.3497,-4.1932,-4.3665,-4.4764,-4.4984,-4.176,-3.7926,0.0,-3.1539,-2.7438,-2.4744,-2.4357,-2.4445,-2.4247,-2.4528,-2.4998,-2.563,-2.8171,-2.9999,-2.9836,0.0,0.0,0.0,0.0,0.0,0.0,0.0,0.0,0.0,0.0,0.0,-5.5895,-5.6225,-5.6804,-5.7673,-5.7849,-5.834,-5.9199,-5.9219,-5.9238,-5.9218,-5.8993,-5.8907,-5.8869,-5.7865,-5.7345,0.0,0.0,0.0,0.0,-5.5703,-5.5703,-5.5703,-5.5703,-5.5703,-5.5703,-5.5703,-5.5703,-5.564,-5.5237,-5.5088,-5.4882,-5.3637,-5.24,-5.126,-5.0459,-5.0216,-4.9926,-4.866,-4.8306,-4.8306,-4.8306,-4.8306,-4.8306,-4.8306,-4.77,-4.6893,-4.6067,-4.5278,-4.447,-4.3644,-4.3497,-4.3497,-4.3497,-4.3497,-4.3497,-4.3497,-4.3497,-4.3497,-4.3497,-4.3497,-4.3497,-4.3497,-4.3497,-4.3497,-4.3497,-4.3497,-4.3497,-4.3497,-4.3497,-4.3497,-4.3497,-4.3497,-4.3497,-4.3497,-4.3497,-4.3497,-4.3497,-4.3497,-4.3497,-4.3497,-4.3497,-4.3497,-3.6262,-3.7719,-3.9499,-4.2312,-3.8632,-3.345,-3.0056,-2.8297,-2.6822,-2.4835,-2.4444,-2.4528,-2.4591,-2.4716,-2.5571,-2.7974,-2.9842,0.0,0.0,0.0,0.0,0.0,0.0,0.0,0.0,0.0,0.0,0.0,0.0,0.0,-5.6225,-5.634,-5.6533,-5.6804,-5.7517,-5.8027,-5.8301,-5.8906,-5.9199,-5.9199,-5.8296,-5.7879,-5.7846,-5.6746,-5.6205,0.0,0.0,0.0,0.0,-5.5703,-5.5703,-5.5703,-5.5703,-5.5703,-5.5703,-5.5703,-5.5531,-5.5282,-5.5141,-5.4333,-5.3334,-5.2904,-5.16,-5.0119,-4.9879,-4.9381,-4.8827,-4.8399,-4.8306,-4.8306,-4.8306,-4.8306,-4.8306,-4.8306,-4.77,-4.6893,-4.6067,-4.5278,-4.447,-4.3644,-4.3497,-4.3497,-4.3497,-4.3497,-4.3497,-4.3497,-4.3497,-4.3497,-4.3497,-4.3497,-4.3497,-4.3497,-4.3497,-4.3497,-4.3497,-4.3497,-4.3497,-4.3497,-4.3497,-4.3497,-4.3497,-4.3497,-4.3497,-4.3497,-4.3497,-4.3497,-4.3497,-4.3497,-4.3497,-4.3497,-4.3497,-4.3497,0.0,-3.3922,-3.5687,-3.7595,-3.4562,-3.0168,-2.6519,-2.6059,-2.6042,-2.4756,-2.4559,-2.4654,-2.4775,-2.4896,-2.5633,-2.7547,-2.9103,0.0,0.0,0.0,0.0,0.0,0.0,0.0,0.0,0.0,0.0,0.0,0.0,0.0,-5.6379,-5.6436,-5.6483,-5.6479,-5.7089,-5.7402,-5.7402,-5.7949,-5.8223,-5.8203,-5.7342,-5.6941,-5.692,-5.609,-5.5703,0.0,0.0,0.0,0.0,-5.5703,-5.5703,-5.5703,-5.5703,-5.5599,-5.5489,-5.5489,-5.5212,-5.481,-5.4322,-5.3475,-5.2473,-5.1714,-5.0377,-4.9095,-4.9095,-4.8728,-4.8306,-4.8306,-4.8306,-4.8306,-4.8306,-4.8306,-4.8306,-4.8306,-4.77,-4.6893,-4.6067,-4.5278,-4.447,-4.3644,-4.3497,-4.3497,-4.3497,-4.3497,-4.3497,-4.3497,-4.3497,-4.3497,-4.3497,-4.3497,-4.3497,-4.3497,-4.3497,-4.3497,-4.3497,-4.3497,-4.3497,-4.3497,-4.3497,-4.3497,-4.3497,-4.3497,-4.3497,-4.3497,-4.3497,-4.3497,-4.3497,-4.3497,-4.3497,-4.3497,-4.3497,-4.3497,0.0,-3.163,-3.2841,-3.1268,-2.9769,-2.7862,-2.4882,-2.4777,0.0,-2.461,-2.4654,-2.4827,-2.4969,-2.5156,-2.5329,-2.55,-2.7033,0.0,0.0,0.0,0.0,0.0,0.0,0.0,0.0,0.0,0.0,0.0,0.0,0.0,-5.6405,-5.6541,-5.6601,-5.6601,-5.6601,-5.6601,-5.6601,-5.6601,-5.6601,-5.6601,-5.6328,-5.619,-5.6186,-5.5838,-5.5703,0.0,0.0,0.0,0.0,-5.5703,-5.5703,-5.5703,-5.5662,-5.5423,-5.5107,-5.5061,-5.4752,-5.4199,-5.3005,-5.251,-5.2066,-5.0153,-4.8948,-4.8306,-4.8306,-4.8306,-4.8306,-4.8306,-4.8306,-4.8306,-4.8306,-4.8306,-4.8306,-4.8306,-4.7645,-4.6819,-4.6067,-4.5223,-4.4397,-4.3644,-4.3497,-4.3497,-4.3497,-4.3497,-4.3497,-4.3497,-4.3497,-4.3497,-4.3497,-4.3497,-4.3497,-4.3497,-4.3497,-4.3497,-4.3497,-4.3497,-4.3497,-4.3497,-4.3497,-4.3497,-4.3497,-4.3497,-4.3497,-4.3497,-4.3497,-4.3497,-4.3497,-4.3497,-4.3497,-4.3497,-4.3497,-4.3497,-2.5501,0.0,-2.7135,-2.6137,-2.5603,-2.5124,0.0,-2.4353,-2.4487,-2.4498,0.0,-2.5064,-2.6654,-2.5907,-2.6314,-3.0117,-3.0948,0.0,0.0,0.0,0.0,0.0,0.0,0.0,0.0,0.0,0.0,0.0,0.0,-5.5736,-5.6503,-5.6572,-5.6598,-5.6601,-5.6601,-5.6601,-5.6601,-5.6601,-5.6601,-5.6601,-5.6328,-5.619,-5.6186,-5.5838,-5.5703,0.0,0.0,0.0,-5.5703,-5.5703,-5.5703,-5.5662,-5.5356,-5.5186,-5.5061,-5.476,-5.3973,-5.3005,-5.2713,-5.1584,-5.0135,-4.8969,-4.8471,-4.8306,-4.8306,-4.8306,-4.8306,-4.8306,-4.8306,-4.8306,-4.8306,-4.8306,-4.8306,-4.8306,-4.7223,-4.614,-4.5938,-4.4782,-4.3718,-4.3534,-4.3497,-4.3497,-4.3497,-4.3497,-4.3497,-4.3497,-4.3497,-4.3497,-4.3497,-4.3497,-4.3497,-4.3497,-4.3497,-4.3497,-4.3497,-4.3497,-4.3497,-4.3497,-4.3497,-4.3497,-4.3497,-4.3497,-4.3497,-4.3497,-4.3497,-4.3497,-4.3497,-4.3497,-4.3497,-4.3497,-4.3497,-4.3497,-2.4321,-2.4578,-2.4866,-2.4925,-2.4556,-2.4334,-2.4815,0.0,0.0,0.0,0.0,-2.4885,-2.618,0.0,0.0,0.0,0.0,0.0,0.0,0.0,0.0,0.0,0.0,0.0,0.0,0.0,0.0,0.0,0.0,-5.4835,-5.537,-5.5781,-5.5996,-5.5996,-5.6387,-5.6601,-5.6601,-5.6601,-5.6563,-5.6505,-5.6299,-5.6151,-5.6051,-5.5799,-5.5703,0.0,0.0,0.0,-5.5703,-5.5489,-5.5423,-5.538,-5.4979,-5.4682,-5.444,-5.3837,-5.3084,-5.2212,-5.1491,-5.0267,-4.893,-4.8453,-4.8306,-4.8306,-4.8306,-4.8306,-4.8306,-4.8306,-4.8306,-4.8306,-4.8306,-4.8306,-4.8214,-4.7847,-4.6801,-4.5792,-4.5424,-4.4378,-4.3497,-4.3497,-4.3497,-4.3497,-4.3497,-4.3497,-4.3497,-4.3497,-4.3497,-4.3497,-4.3497,-4.3497,-4.3497,-4.3497,-4.3497,-4.3497,-4.3497,-4.3497,-4.3497,-4.3497,-4.3497,-4.3497,-4.3497,-4.3497,-4.3497,-4.3497,-4.3497,-4.3497,-4.3497,-4.3497,-4.3497,-4.3497,-4.3497,-4.3497,-2.481,-2.4561,-2.4427,-2.537,-2.5055,-2.4722,-2.5465,0.0,0.0,0.0,0.0,0.0,0.0,0.0,0.0,0.0,0.0,0.0,0.0,0.0,0.0,0.0,0.0,0.0,0.0,0.0,0.0,0.0,0.0,-5.3867,-5.3984,-5.4681,-5.5062,-5.5062,-5.5773,-5.6147,-5.6147,-5.6432,-5.6494,-5.6367,-5.6214,-5.6052,-5.5895,-5.5761,-5.5703,-5.5703,0.0,0.0,-5.5577,-5.5237,-5.4985,-5.477,-5.4358,-5.389,-5.3348,-5.2586,-5.2026,-5.1408,-4.9903,-4.8912,-4.8306,-4.8306,-4.8306,-4.8306,-4.8306,-4.8306,-4.8306,-4.8306,-4.8306,-4.8306,-4.8306,-4.8306,-4.8104,-4.7297,-4.6489,-4.5681,-4.4874,-4.4066,-4.3497,-4.3497,-4.3497,-4.3497,-4.3497,-4.3497,-4.3497,-4.3497,-4.3497,-4.3497,-4.3497,-4.3497,-4.3497,-4.3497,-4.3497,-4.3497,-4.3497,-4.3497,-4.3497,-4.3497,-4.3497,-4.3497,-4.3497,-4.3497,-4.3497,-4.3497,-4.3497,-4.3497,-4.3497,-4.3497,-4.3497,-4.3497,-4.3497,-4.3497,-2.6472,-2.5558,-2.4293,-2.4628,-2.5299,-2.5724,-2.5102,0.0,0.0,0.0,0.0,0.0,0.0,0.0,0.0,0.0,0.0,0.0,0.0,0.0,0.0,0.0,0.0,0.0,0.0,0.0,0.0,0.0,0.0,-5.3223,-5.3965,-5.4021,-5.402,-5.402,-5.4058,-5.4067,-5.4067,-5.5637,-5.635,-5.6239,-5.6033,-5.5921,-5.5895,-5.5761,-5.5703,-5.5703,0.0,-5.5512,-5.5186,-5.5134,-5.4467,-5.3452,-5.305,-5.2414,-5.1711,-5.1226,-5.0606,-4.9811,-4.8838,-4.8416,-4.8306,-4.8306,-4.8306,-4.8306,-4.8306,-4.8306,-4.8306,-4.8306,-4.8306,-4.8306,-4.8306,-4.8306,-4.8104,-4.7297,-4.6489,-4.5681,-4.4874,-4.4066,-4.3497,-4.3497,-4.3497,-4.3497,-4.3497,-4.3497,-4.3497,-4.3497,-4.3497,-4.3497,-4.3497,-4.3497,-4.3497,-4.3497,-4.3497,-4.3497,-4.3497,-4.3497,-4.3497,-4.3497,-4.3497,-4.3497,-4.3497,-4.3497,-4.3497,-4.3497,-4.3497,-4.3497,-4.3497,-4.3497,-4.3497,-4.3497,-4.3497,-4.3497,-2.5222,-2.6322,-2.7055,-2.634,-2.7403,-2.8444,-2.7721,0.0,0.0,0.0,0.0,0.0,0.0,0.0,0.0,0.0,0.0,0.0,0.0,0.0,0.0,0.0,0.0,0.0,0.0,0.0,0.0,0.0,0.0,0.0,-5.2474,-5.2816,-5.2988,-5.2993,-5.3384,-5.3576,-5.3484,-5.4361,-5.4766,-5.4704,-5.4593,-5.4512,-5.4434,-5.4376,-5.4357,-5.4357,0.0,-5.3929,-5.3734,-5.3278,-5.2774,-5.2207,-5.1788,-5.1415,-5.1007,-5.0388,-4.9609,-4.8838,-4.8434,-4.8306,-4.8306,-4.8306,-4.8306,-4.8306,-4.8306,-4.8306,-4.8306,-4.8306,-4.8306,-4.8306,-4.8306,-4.8306,-4.8104,-4.7297,-4.6489,-4.5681,-4.4874,-4.4066,-4.3497,-4.3497,-4.3497,-4.3497,-4.3497,-4.3497,-4.3497,-4.3497,-4.3497,-4.3497,-4.3497,-4.3497,-4.3497,-4.3497,-4.3497,-4.3497,-4.3497,-4.3497,-4.3497,-4.3497,-4.3497,-4.3497,-4.3497,-4.3497,-4.3497,-4.3497,-4.3497,-4.3497,-4.3497,-4.3497,-4.3497,-4.3497,-4.3497,-4.3497,-2.4822,-2.6883,-2.8708,-2.8358,0.0,-3.0576,-3.0362,0.0,0.0,0.0,0.0,0.0,0.0,0.0,0.0,0.0,0.0,0.0,0.0,0.0,0.0,0.0,0.0,0.0,0.0,0.0,0.0,0.0,0.0,0.0,-5.1183,-5.1683,-5.1964,-5.1973,-5.2589,-5.2878,-5.2761,-5.2761,-5.2954,-5.3338,-5.3338,-5.33,-5.3203,-5.3203,-5.3142,-5.3039,-5.2714,-5.2501,-5.2266,-5.1645,-5.1227,-5.0953,-5.063,-5.0398,-5.0141,-4.9636,-4.8954,-4.8306,-4.8306,-4.8306,-4.8306,-4.8306,-4.8306,-4.8306,-4.8306,-4.8306,-4.8306,-4.8306,-4.8306,-4.8306,-4.8306,-4.8306,-4.8104,-4.7297,-4.6489,-4.5681,-4.4874,-4.4066,-4.3497,-4.3497,-4.3497,-4.3497,-4.3497,-4.3497,-4.3497,-4.3497,-4.3497,-4.3497,-4.3497,-4.3497,-4.3497,-4.3497,-4.3497,-4.3497,-4.3497,-4.3497,-4.3497,-4.3497,-4.3497,-4.3497,-4.3497,-4.3497,-4.3497,-4.3497,-4.3497,-4.3497,-4.3497,-4.3497,-4.3497,-4.3497,-4.3497,-4.3497,-2.766,-2.7168,-2.6518,-2.9463,-3.0312,0.0,-3.1386,-3.1049,0.0,0.0,0.0,0.0,0.0,0.0,0.0,0.0,0.0,0.0,0.0,0.0,0.0,0.0,0.0,0.0,0.0,0.0,0.0,0.0,0.0,0.0,-5.1106,-5.1048,-5.101,-5.101,-5.0952,-5.0914,-5.0875,-5.0875,-5.1683,-5.3203,-5.3203,-5.3203,-5.3203,-5.3203,-5.3018,-5.2646,-5.2621,-5.2182,-5.1495,-5.1425,-5.0731,-4.9743,-4.9703,-4.9187,-4.851,-4.882,-4.8677,-4.8306,-4.8306,-4.8306,-4.8306,-4.8306,-4.8306,-4.8306,-4.8306,-4.8306,-4.8306,-4.8306,-4.8306,-4.8306,-4.8306,-4.8306,-4.8104,-4.7297,-4.6489,-4.5681,-4.4874,-4.4066,-4.3497,-4.3497,-4.3497,-4.3497,-4.3497,-4.3497,-4.3497,-4.3497,-4.3497,-4.3497,-4.3497,-4.3497,-4.3497,-4.3497,-4.3497,-4.3497,-4.3497,-4.3497,-4.3497,-4.3497,-4.3497,-4.3497,-4.3497,-4.3497,-4.3497,-4.3497,-4.3497,-4.3497,-4.3497,-4.3497,-4.3497,-4.3497,-4.3497,-4.3497,-2.4938,-2.6082,-2.7351,-2.8544,-3.0686,0.0,0.0,0.0,0.0,0.0,0.0,0.0,0.0,0.0,0.0,0.0,0.0,0.0,0.0,0.0,0.0,0.0,0.0,0.0,0.0,0.0,0.0,0.0,0.0,0.0,-5.0163,-5.0548,-5.0779,-5.0779,-5.0721,-5.0702,-5.0702,-5.0702,-5.101,-5.1645,-5.1645,-5.1506,-5.1274,-5.1274,-5.1051,-5.0675,-5.0428,-5.0121,-4.9846,-4.9565,-4.9362,-4.9174,-4.9433,-4.9195,-4.8692,-4.8829,-4.8657,-4.8306,-4.8306,-4.8306,-4.8306,-4.8306,-4.8306,-4.8306,-4.8306,-4.8306,-4.8306,-4.8306,-4.8306,-4.8306,-4.8306,-4.8306,-4.8233,-4.7921,-4.7241,-4.6434,-4.5626,-4.4819,-4.4103,-4.3589,-4.3497,-4.3497,-4.3497,-4.3497,-4.3497,-4.3497,-4.3497,-4.3497,-4.3497,-4.3497,-4.3497,-4.3497,-4.3497,-4.3497,-4.3497,-4.3497,-4.3497,-4.3497,-4.3497,-4.3497,-4.3497,-4.3497,-4.3497,-4.3497,-4.3497,-4.3497,-4.3497,-4.3497,-4.3497,-4.3497,-4.3497,-4.3497,-2.3846,-2.5205,-2.7044,0.0,0.0,0.0,0.0,0.0,0.0,0.0,0.0,0.0,0.0,0.0,0.0,0.0,0.0,0.0,0.0,0.0,0.0,0.0,0.0,0.0,0.0,0.0,0.0,0.0,0.0,0.0,0.0,-4.9586,-4.9875,-4.9875,-5.0144,-5.0279,-5.0279,-5.0548,-5.0702,-5.0702,-5.0702,-5.0483,-5.0092,-5.0092,-4.98,-4.9295,-4.9011,-4.8897,-4.8863,-4.8604,-4.8728,-4.9139,-4.9532,-4.9445,-4.9075,-4.9075,-4.8847,-4.8477,-4.8326,-4.8306,-4.8306,-4.8306,-4.8306,-4.8306,-4.8306,-4.8306,-4.8306,-4.8306,-4.8306,-4.8306,-4.8306,-4.8306,-4.8306,-4.8306,-4.77,-4.6893,-4.6067,-4.5278,-4.447,-4.3644,-4.3497,-4.3497,-4.3497,-4.3497,-4.3497,-4.3497,-4.3497,-4.3497,-4.3497,-4.3497,-4.3497,-4.3497,-4.3497,-4.3497,-4.3497,-4.3497,-4.3497,-4.3497,-4.3497,-4.3497,-4.3497,-4.3497,-4.3497,-4.3497,-4.3497,-4.3497,-4.3497,-4.3497,-4.3497,-4.3497,-4.3497,-4.3497,-2.5484,-2.4782,0.0,0.0,0.0,0.0,0.0,0.0,0.0,0.0,0.0,0.0,0.0,0.0,0.0,0.0,0.0,0.0,0.0,0.0,0.0,0.0,0.0,0.0,0.0,0.0,0.0,0.0,0.0,0.0,0.0,-4.8105,-4.8105,-4.8105,-4.8933,-4.9394,-4.9394,-5.024,-5.0683,-5.0683,-5.0702,-5.0483,-5.0092,-5.0092,-4.9645,-4.8897,-4.8897,-4.8897,-4.8897,-4.8897,-4.9139,-4.9551,-4.9949,-4.9853,-4.9504,-4.9522,-4.9234,-4.8847,-4.8458,-4.8306,-4.8306,-4.8306,-4.8306,-4.8306,-4.8306,-4.8306,-4.8306,-4.8306,-4.8306,-4.8306,-4.8306,-4.8306,-4.8306,-4.8306,-4.77,-4.6911,-4.6085,-4.5278,-4.447,-4.3644,-4.3497,-4.3497,-4.3497,-4.3497,-4.3497,-4.3497,-4.3497,-4.3497,-4.3497,-4.3497,-4.3497,-4.3497,-4.3497,-4.3497,-4.3497,-4.3497,-4.3497,-4.3497,-4.3497,-4.3497,-4.3497,-4.3497,-4.3497,-4.3497,-4.3497,-4.3497,-4.3497,-4.3497,-4.3497,-4.3497,-4.3497,-4.3497,-2.3715,-2.5995,0.0,0.0,0.0,0.0,0.0,0.0,0.0,0.0,0.0,0.0,0.0,0.0,0.0,0.0,0.0,0.0,0.0,0.0,0.0,0.0,0.0,0.0,0.0,0.0,0.0,0.0,0.0,0.0,0.0,-4.7798,-4.8105,-4.8105,-4.8355,-4.849,-4.849,-4.9356,-4.9779,-4.9779,-5.0414,-5.0483,-5.0092,-4.98,-4.9386,-4.8897,-4.8604,-4.8621,-4.8945,-4.9504,-4.9827,-4.9924,-5.0043,-4.9853,-4.9475,-4.9171,-4.8813,-4.8458,-4.8326,-4.8306,-4.8306,-4.8306,-4.8306,-4.8306,-4.8306,-4.8306,-4.8306,-4.8306,-4.8306,-4.8306,-4.8306,-4.8306,-4.8306,-4.8306,-4.8122,-4.7572,-4.6195,-4.5718,-4.5149,-4.3754,-4.3497,-4.3497,-4.3497,-4.3497,-4.3497,-4.3497,-4.3497,-4.3497,-4.3497,-4.3497,-4.3497,-4.3497,-4.3497,-4.3497,-4.3497,-4.3497,-4.3497,-4.3497,-4.3497,-4.3497,-4.3497,-4.3497,-4.3497,-4.3497,-4.3497,-4.3497,-4.3497,-4.3497,-4.3497,-4.3497,-4.3497,-4.3497,-2.4331,0.0,0.0,0.0,0.0,0.0,0.0,0.0,0.0,0.0,0.0,0.0,0.0,0.0,0.0,0.0,0.0,0.0,0.0,0.0,0.0,0.0,0.0,0.0,0.0,0.0,0.0,0.0,0.0,0.0,0.0,-4.6836,-4.7105,-4.7105,-4.7451,-4.7625,-4.7625,-4.8471,-4.8875,-4.8894,-4.9413,-4.9547,-4.9319,-4.9619,-4.9532,-4.9108,-4.8881,-4.8897,-4.9202,-4.9827,-5.0092,-5.0092,-5.0092,-4.9853,-4.9445,-4.9043,-4.8744,-4.8513,-4.8364,-4.8306,-4.8306,-4.8306,-4.8306,-4.8306,-4.8306,-4.8306,-4.8306,-4.8306,-4.8306,-4.8306,-4.8306,-4.8306,-4.8306,-4.8306,-4.8306,-4.7865,-4.625,-4.5902,-4.5424,-4.3809,-4.3497,-4.3497,-4.3497,-4.3497,-4.3497,-4.3497,-4.3497,-4.3497,-4.3497,-4.3497,-4.3497,-4.3497,-4.3497,-4.3497,-4.3497,-4.3497,-4.3497,-4.3497,-4.3497,-4.3497,-4.3497,-4.3497,-4.3497,-4.3497,-4.3497,-4.3497,-4.3497,-4.3497,-4.3497,-4.3497,-4.3497,-4.3497,0.0,0.0,0.0,0.0,0.0,0.0,0.0,0.0,0.0,0.0,0.0,0.0,0.0,0.0,0.0,0.0,0.0,0.0,0.0,0.0,0.0,0.0,0.0,0.0,0.0,0.0,0.0,0.0,0.0,0.0,0.0,-4.5586,-4.5586,-4.5586,-4.6374,-4.6778,-4.6778,-4.7586,-4.799,-4.799,-4.8067,-4.8105,-4.8125,-4.9315,-4.9682,-4.9351,-4.9361,-4.9428,-4.9532,-4.9924,-5.0092,-5.0092,-5.0019,-4.9773,-4.9386,-4.8978,-4.8847,-4.8813,-4.8421,-4.8306,-4.8306,-4.8306,-4.8306,-4.8306,-4.8306,-4.8306,-4.8306,-4.8306,-4.8306,-4.8306,-4.8306,-4.8306,-4.8288,-4.8214,-4.8196,-4.7755,-4.614,-4.5792,-4.5333,-4.3791,-4.3497,-4.3497,-4.3497,-4.3497,-4.3497,-4.3497,-4.3497,-4.3497,-4.3497,-4.3497,-4.3497,-4.3497,-4.3497,-4.3497,-4.3497,-4.3497,-4.3497,-4.3497,-4.3497,-4.3497,-4.3497,-4.3497,-4.3497,-4.3497,-4.3497,-4.3497,-4.3497,-4.3497,-4.3497,-4.3497,-4.3497,-4.3497,0.0,0.0,0.0,0.0,0.0,0.0,0.0,0.0,0.0,0.0,0.0,0.0,0.0,0.0,0.0,0.0,0.0,0.0,0.0,0.0,0.0,0.0,0.0,0.0,0.0,0.0,0.0,0.0,0.0,0.0,-4.5586,-4.5586,-4.5586,-4.5586,-4.5778,-4.5874,-4.5874,-4.674,-4.7163,0.0,-4.7798,-4.8105,-4.8087,-4.807,-4.8083,-4.8095,-4.8426,-4.89,-4.9532,-4.9924,-5.0092,-5.0043,-4.9397,-4.9108,-4.8996,-4.8568,-4.8421,-4.8421,-4.8344,-4.8306,-4.8306,-4.8306,-4.8306,-4.8306,-4.8306,-4.8306,-4.8306,-4.8306,-4.8306,-4.8306,-4.8306,-4.8306,-4.8141,-4.7517,-4.737,-4.6929,-4.5314,-4.4966,-4.4672,-4.3681,-4.3497,-4.3497,-4.3497,-4.3497,-4.3497,-4.3497,-4.3497,-4.3497,-4.3497,-4.3497,-4.3497,-4.3497,-4.3497,-4.3497,-4.3497,-4.3497,-4.3497,-4.3497,-4.3497,-4.3497,-4.3497,-4.3497,-4.3497,-4.3497,-4.3497,-4.3497,-4.3497,-4.3497,-4.3497,-4.3497,-4.3497,-4.3497,0.0,0.0,0.0,0.0,0.0,0.0,0.0,0.0,0.0,0.0,0.0,0.0,0.0,0.0,0.0,0.0,0.0,0.0,0.0,0.0,0.0,0.0,0.0,0.0,0.0,0.0,0.0,0.0,0.0,-4.5586,-4.5586,-4.5586,-4.5586,-4.5586,-4.5586,-4.5586,-4.5586,-4.6047,-4.6278,-4.6278,-4.6551,-4.6564,-4.6476,-4.7386,-4.7623,-4.7372,-4.7589,-4.7815,-4.8119,-4.872,-4.8947,-4.8956,-4.8926,-4.8779,-4.8604,-4.8364,-4.8306,-4.8306,-4.8306,-4.8306,-4.8306,-4.8306,-4.8306,-4.8306,-4.8306,-4.8306,-4.8306,-4.8306,-4.8306,-4.8306,-4.8306,-4.8306,-4.8104,-4.7297,-4.7113,-4.6673,-4.5057,-4.4709,-4.447,-4.3644,-4.3497,-4.3497,-4.3497,-4.3497,-4.3497,-4.3497,-4.3497,-4.3497,-4.3497,-4.3497,-4.3497,-4.3497,-4.3497,-4.3497,-4.3497,-4.3497,-4.3497,-4.3497,-4.3497,-4.3497,-4.3497,-4.3497,-4.3497,-4.3497,-4.3497,-4.3497,-4.3497,-4.3497,-4.3497,-4.3497,-4.3497,-4.3497,0.0,0.0,0.0,0.0,0.0,0.0,0.0,0.0,0.0,0.0,0.0,0.0,0.0,0.0,0.0,0.0,0.0,0.0,0.0,0.0,0.0,0.0,0.0,0.0,0.0,0.0,0.0,0.0,0.0,-4.5586,-4.5586,-4.5586,-4.5586,-4.5586,-4.5586,-4.5586,-4.5586,-4.5531,-4.5513,-4.5513,-4.5161,-4.4872,-4.4662,-4.6615,-4.7194,-4.6704,-4.6759,-4.6684,-4.6544,-4.7234,-4.7513,-4.7537,-4.8159,-4.8179,-4.7884,-4.7884,-4.7884,-4.7884,-4.7884,-4.7884,-4.7884,-4.7884,-4.7884,-4.7884,-4.7884,-4.7994,-4.8104,-4.8104,-4.8196,-4.8306,-4.8306,-4.8306,-4.8067,-4.7131,-4.7021,-4.6673,-4.5057,-4.4599,-4.4305,-4.3626,-4.3497,-4.3497,-4.3497,-4.3497,-4.3497,-4.3497,-4.3497,-4.3497,-4.3497,-4.3497,-4.3497,-4.3497,-4.3497,-4.3497,-4.3497,-4.3497,-4.3497,-4.3497,-4.3497,-4.3497,-4.3497,-4.3497,-4.3497,-4.3497,-4.3497,-4.3497,-4.3497,-4.3497,-4.3497,-4.3497,-4.3497,-4.3497,0.0,0.0,0.0,0.0,0.0,0.0,0.0,0.0,0.0,0.0,0.0,0.0,0.0,0.0,0.0,0.0,0.0,0.0,0.0,0.0,0.0,0.0,0.0,0.0,0.0,0.0,0.0,0.0,-4.568,-4.5586,-4.5586,-4.5586,-4.5586,-4.5586,-4.5586,-4.5586,-4.5586,-4.5322,-4.518,-4.5161,-4.4825,-4.4631,-4.4624,-4.4909,-4.5197,-4.5469,-4.5801,-4.6158,-4.6488,-4.66,-4.6656,-4.6643,-4.6408,-4.6287,-4.6214,-4.6214,-4.6214,-4.6214,-4.6214,-4.6214,-4.6214,-4.6214,-4.6214,-4.6214,-4.6214,-4.6709,-4.7278,-4.7278,-4.7774,-4.8306,-4.8306,-4.8306,-4.7921,-4.6416,-4.6599,-4.6673,-4.5057,-4.4158,-4.3626,-4.3516,-4.3497,-4.3497,-4.3497,-4.3497,-4.3497,-4.3497,-4.3497,-4.3497,-4.3497,-4.3497,-4.3497,-4.3497,-4.3497,-4.3497,-4.3497,-4.3497,-4.3497,-4.3497,-4.3497,-4.3497,-4.3497,-4.3497,-4.3497,-4.3497,-4.3497,-4.3497,-4.3497,-4.3497,-4.3497,-4.3497,-4.3497,-4.3497,-2.1803,-2.697,0.0,0.0,0.0,0.0,0.0,0.0,0.0,0.0,0.0,0.0,0.0,0.0,0.0,0.0,0.0,0.0,0.0,0.0,0.0,0.0,0.0,0.0,0.0,0.0,0.0,0.0,-4.5624,-4.5586,-4.5586,-4.5586,-4.5586,-4.5586,-4.5586,-4.5513,-4.5322,-4.5161,-4.4877,-4.4463,-4.4346,-4.4261,-4.4261,-4.4501,-4.458,-4.4538,-4.4699,-4.4804,-4.485,-4.533,-4.5482,-4.5537,-4.5772,-4.5902,-4.5902,-4.5902,-4.5902,-4.5902,-4.5902,-4.5902,-4.5902,-4.5902,-4.5902,-4.5902,-4.5902,-4.6159,-4.6526,-4.6985,-4.737,-4.7737,-4.8196,-4.8306,-4.8122,-4.7407,-4.7186,-4.6929,-4.6214,-4.5057,-4.403,-4.3589,-4.4213,-4.469,-4.425,-4.4544,-4.4837,-4.4837,-4.4837,-4.4837,-4.4837,-4.4837,-4.4837,-4.4837,-4.4837,-4.4837,-4.4837,-4.4837,-4.4837,-4.4837,-4.4415,-4.4176,-4.4176,-4.3736,-4.3497,-4.3497,-4.3497,-4.3497,-4.3497,-4.3497,-4.3497,-4.3497,-4.3497,-4.3497,-2.1619,-2.593,-2.985,0.0,0.0,0.0,0.0,0.0,0.0,0.0,0.0,0.0,0.0,0.0,0.0,0.0,0.0,0.0,0.0,0.0,0.0,0.0,0.0,0.0,0.0,0.0,0.0,0.0,-4.5605,-4.5586,-4.5586,-4.5586,-4.5568,-4.5476,-4.5457,-4.5322,-4.4985,-4.4877,-4.4542,-4.4016,-4.4016,-4.4058,-4.4146,-4.4364,-4.429,-4.4016,-4.4087,-4.3912,-4.3534,-4.4158,-4.4397,-4.4452,-4.5057,-4.5278,-4.5278,-4.5278,-4.5278,-4.5278,-4.5278,-4.5278,-4.5278,-4.5278,-4.5278,-4.5278,-4.5278,-4.5424,-4.5718,-4.6342,-4.6654,-4.6985,-4.7792,-4.8012,-4.8012,-4.8012,-4.77,-4.7297,-4.6893,-4.5865,-4.4837,-4.4232,-4.5076,-4.5718,-4.5112,-4.5498,-4.5902,-4.5902,-4.5902,-4.5902,-4.5902,-4.5902,-4.5902,-4.5902,-4.5902,-4.5902,-4.5902,-4.5902,-4.5902,-4.5902,-4.5351,-4.5002,-4.5002,-4.4232,-4.3791,-4.3791,-4.3589,-4.3497,-4.3497,-4.3497,-4.3497,-4.3497,-4.3497,-4.3497,-1.9645,-2.2383,0.0,0.0,0.0,0.0,0.0,0.0,0.0,0.0,0.0,0.0,0.0,0.0,0.0,0.0,0.0,0.0,0.0,0.0,0.0,0.0,0.0,0.0,0.0,0.0,0.0,0.0,-4.568,-4.5586,-4.5586,-4.5586,-4.5438,-4.5137,-4.5137,-4.4985,-4.4631,-4.4233,-4.4028,-4.4016,-4.4016,-4.4204,-4.4553,-4.4223,-4.3998,-4.3998,-4.4401,-4.4154,-4.3497,-4.3534,-4.3552,-4.3552,-4.3608,-4.3608,-4.3608,-4.3608,-4.3608,-4.3608,-4.3608,-4.3608,-4.3608,-4.3608,-4.3608,-4.3608,-4.3608,-4.4158,-4.4782,-4.4819,-4.5369,-4.6159,-4.6966,-4.7186,-4.7186,-4.7186,-4.7719,-4.7829,-4.6287,-4.5902,-4.5828,-4.5773,-4.5847,-4.5883,-4.5847,-4.5865,-4.5902,-4.5902,-4.5902,-4.5902,-4.5902,-4.5902,-4.5902,-4.5902,-4.5902,-4.5902,-4.5902,-4.5902,-4.5902,-4.5902,-4.5865,-4.5847,-4.5847,-4.5076,-4.4654,-4.4654,-4.3883,-4.3497,-4.3497,-4.3497,-4.3497,-4.3497,-4.3497,-4.3497,-1.6747,0.0,0.0,0.0,0.0,0.0,0.0,0.0,0.0,0.0,0.0,0.0,0.0,0.0,0.0,0.0,0.0,0.0,0.0,0.0,0.0,0.0,0.0,0.0,0.0,0.0,0.0,0.0,0.0,-4.5586,-4.5586,-4.5586,-4.5438,-4.5096,-4.5096,-4.4806,-4.4204,-4.4058,-4.4016,-4.3998,-4.4261,-4.4474,-4.4599,-4.4447,-4.4233,-4.4016,-4.4146,-4.3943,-4.3497,-4.3497,-4.3497,-4.3497,-4.3497,-4.3497,-4.3497,-4.3497,-4.3497,-4.3497,-4.3497,-4.3497,-4.3497,-4.3497,-4.3497,-4.3497,-4.3497,-4.3699,-4.403,-4.4562,-4.5278,-4.6085,-4.6911,-4.7498,-4.7884,-4.7884,-4.8104,-4.8141,-4.7572,-4.7443,-4.7131,-4.6104,-4.6728,-4.7278,-4.6764,-4.7113,-4.7443,-4.7443,-4.7443,-4.7443,-4.7443,-4.7443,-4.7443,-4.7443,-4.7443,-4.7443,-4.7443,-4.7443,-4.7443,-4.7443,-4.6966,-4.6673,-4.6673,-4.5902,-4.5241,-4.4727,-4.4415,-4.4011,-4.3497,-4.3497,-4.3497,-4.3497,-4.3497,-4.3497,-1.7973,0.0,0.0,0.0,0.0,0.0,0.0,0.0,0.0,0.0,0.0,0.0,0.0,0.0,0.0,0.0,0.0,0.0,0.0,0.0,0.0,0.0,0.0,0.0,0.0,0.0,0.0,0.0,0.0,0.0,-4.5163,-4.5432,-4.5438,-4.5096,-4.4853,-4.4508,-4.3998,-4.3881,-4.3974,-4.4204,-4.4337,-4.4527,-4.4757,-4.4527,-4.4233,-4.3998,-4.3881,-4.3693,-4.3497,-4.3497,-4.3497,-4.3497,-4.3497,-4.3497,-4.3497,-4.3497,-4.3497,-4.3497,-4.3497,-4.3497,-4.3497,-4.3497,-4.3497,-4.3497,-4.3497,-4.3497,-4.3608,-4.4158,-4.4874,-4.5681,-4.6507,-4.7498,-4.8306,-4.8306,-4.8306,-4.8306,-4.8306,-4.8306,-4.7994,-4.6911,-4.7572,-4.8141,-4.7609,-4.7957,-4.8306,-4.8306,-4.8306,-4.8306,-4.8306,-4.8306,-4.8306,-4.8306,-4.8306,-4.8306,-4.8306,-4.8306,-4.8306,-4.8306,-4.781,-4.7517,-4.7517,-4.6746,-4.6049,-4.5535,-4.4984,-4.4452,-4.3901,-4.3626,-4.3497,-4.3497,-4.3497,-4.3497,0.0,0.0,0.0,0.0,0.0,0.0,0.0,0.0,0.0,0.0,0.0,0.0,0.0,0.0,0.0,0.0,0.0,0.0,0.0,0.0,0.0,0.0,0.0,0.0,0.0,0.0,0.0,0.0,-4.3816,-4.4259,-4.4259,-4.5086,-4.54,-4.5058,-4.4382,-4.4016,-4.4016,-4.3712,-4.3899,-4.4599,-4.4204,-4.4401,-4.5033,-4.4346,-4.3998,-4.3986,-4.3646,-4.3497,-4.3497,-4.3497,-4.3497,-4.3497,-4.3497,-4.3497,-4.3497,-4.3497,-4.3497,-4.3497,-4.3497,-4.3497,-4.3497,-4.3497,-4.3497,-4.3497,-4.3497,-4.3497,-4.3497,-4.3497,-4.4103,-4.4947,-4.5755,-4.7131,-4.8306,-4.8306,-4.8306,-4.8306,-4.8306,-4.8306,-4.8306,-4.8306,-4.8306,-4.8306,-4.8306,-4.8306,-4.8306,-4.8306,-4.8306,-4.8306,-4.8306,-4.8306,-4.8306,-4.8306,-4.8306,-4.8306,-4.8306,-4.8306,-4.8306,-4.8306,-4.8306,-4.8306,-4.8306,-4.7572,-4.7094,-4.7113,-4.559,-4.4764,-4.4709,-4.3883,-4.3497,-4.3497,-4.3497,-4.3497,-2.3461,0.0,0.0,0.0,0.0,0.0,0.0,0.0,0.0,0.0,0.0,0.0,0.0,0.0,0.0,0.0,0.0,0.0,0.0,0.0,0.0,0.0,0.0,0.0,0.0,0.0,0.0,0.0,-4.3316,-4.3431,-4.3431,-4.3963,-4.4244,-4.4141,-4.4336,-4.4428,-4.4428,-4.4337,-4.4392,-4.458,-4.4501,-4.4373,-4.4318,-4.4087,-4.3881,-4.3612,-4.3548,-4.3497,-4.3497,-4.3497,-4.3497,-4.3497,-4.3497,-4.3497,-4.3497,-4.3497,-4.3497,-4.3497,-4.3497,-4.3497,-4.3497,-4.3497,-4.3497,-4.3497,-4.3497,-4.3497,-4.3497,-4.3497,-4.4488,-4.5883,-4.7278,-4.7976,-4.8306,-4.8306,-4.8306,-4.8306,-4.8306,-4.8306,-4.8306,-4.8306,-4.8306,-4.8306,-4.8306,-4.8306,-4.8306,-4.8306,-4.8306,-4.8306,-4.8306,-4.8306,-4.8306,-4.8306,-4.8306,-4.8306,-4.8306,-4.8306,-4.8306,-4.8306,-4.8306,-4.8306,-4.8306,-4.8104,-4.77,-4.7131,-4.6673,-4.5883,-4.4709,-4.3883,-4.3497,-4.3497,-4.3497,-4.3497,-2.4005,0.0,0.0,0.0,0.0,0.0,0.0,-2.5292,0.0,0.0,0.0,0.0,0.0,0.0,0.0,0.0,0.0,0.0,0.0,0.0,0.0,0.0,0.0,0.0,0.0,-4.1258,-4.147,-4.197,-4.2354,-4.272,-4.3085,-4.3349,-4.3522,-4.3522,-4.3996,-4.427,-4.427,-4.4487,-4.458,-4.4599,-4.4447,-4.4233,-4.4016,-4.3849,-4.366,-4.3497,-4.3497,-4.3497,-4.3497,-4.3497,-4.3497,-4.3497,-4.3497,-4.3497,-4.3497,-4.3497,-4.3497,-4.3497,-4.3497,-4.3497,-4.3497,-4.3497,-4.3497,-4.3497,-4.3497,-4.3497,-4.3497,-4.3497,-4.4415,-4.5773,-4.7388,-4.781,-4.7884,-4.8233,-4.8306,-4.8306,-4.8306,-4.8306,-4.8306,-4.8306,-4.8306,-4.8306,-4.8306,-4.8306,-4.8306,-4.8306,-4.8306,-4.8306,-4.8306,-4.8306,-4.8306,-4.8306,-4.8306,-4.8306,-4.8306,-4.8306,-4.8306,-4.8306,-4.8306,-4.8306,-4.8306,-4.8306,-4.8086,-4.7627,-4.7297,-4.6324,-4.4709,-4.4232,-4.3828,-4.3497,-4.3497,-4.3497,-2.4774,-2.3474,0.0,0.0,0.0,0.0,-1.95,-2.242,0.0,0.0,0.0,0.0,0.0,0.0,0.0,0.0,0.0,0.0,0.0,0.0,0.0,0.0,0.0,0.0,-4.0369,-4.0392,-4.0431,-4.0508,-4.1239,-4.1989,-4.2777,-4.2893,-4.297,-4.297,-4.3446,-4.3706,-4.3706,-4.4208,-4.4448,-4.4448,-4.4109,-4.3955,-4.3924,-4.3646,-4.3497,-4.3497,-4.3497,-4.3497,-4.3497,-4.3497,-4.3497,-4.3497,-4.3497,-4.3497,-4.3497,-4.3497,-4.3497,-4.3497,-4.3497,-4.3497,-4.3497,-4.3497,-4.3497,-4.3497,-4.3497,-4.3497,-4.3516,-4.3608,-4.4158,-4.5057,-4.6581,-4.6985,-4.7186,-4.7994,-4.8177,-4.8196,-4.8288,-4.8306,-4.8306,-4.8306,-4.8306,-4.8306,-4.8306,-4.8306,-4.8306,-4.8306,-4.8306,-4.8306,-4.8306,-4.8306,-4.8306,-4.8306,-4.8306,-4.8306,-4.8306,-4.8306,-4.8306,-4.8306,-4.8306,-4.8306,-4.8306,-4.8306,-4.8306,-4.8306,-4.7517,-4.6416,-4.4984,-4.4709,-4.4195,-4.3497,-4.3497,-4.3497,-2.4763,-2.5216,-2.4688,-2.4666,0.0,0.0,-1.9457,-1.9363,0.0,0.0,0.0,0.0,0.0,0.0,0.0,0.0,0.0,0.0,0.0,0.0,0.0,0.0,0.0,0.0,-3.9542,-3.9719,-4.0027,-4.062,-4.0719,-4.0816,-4.0989,-4.1662,-4.2047,-4.2047,-4.2823,-4.3248,-4.3248,-4.3449,-4.3535,-4.3554,-4.3584,-4.3597,-4.3597,-4.3513,-4.3497,-4.3497,-4.3497,-4.3497,-4.3497,-4.3497,-4.3497,-4.3497,-4.3497,-4.3497,-4.3497,-4.3497,-4.3497,-4.3497,-4.3497,-4.3497,-4.3497,-4.3497,-4.3497,-4.3497,-4.3497,-4.3497,-4.3626,-4.4287,-4.458,-4.4929,-4.5883,-4.614,-4.6342,-4.715,-4.7352,-4.7517,-4.8159,-4.8306,-4.8306,-4.8306,-4.8306,-4.8306,-4.8306,-4.8306,-4.8306,-4.8306,-4.8306,-4.8306,-4.8306,-4.8306,-4.8306,-4.8306,-4.8306,-4.8306,-4.8306,-4.8306,-4.8306,-4.8306,-4.8306,-4.8306,-4.8306,-4.8306,-4.8306,-4.8306,-4.7517,-4.6966,-4.6654,-4.469,-4.3644,-4.3497,-4.3497,-4.3497,-2.5192,-2.5692,-2.6087,-2.7658,0.0,0.0,0.0,0.0,-1.9563,0.0,0.0,0.0,0.0,0.0,0.0,0.0,0.0,0.0,0.0,0.0,0.0,0.0,0.0,0.0,-3.8172,-3.8667,-3.9078,-3.9388,-3.97,-3.9892,-3.9892,-4.07,-4.1143,-4.1143,-4.2008,-4.245,-4.245,-4.2948,-4.3225,-4.3309,-4.339,-4.3447,-4.3497,-4.3497,-4.3497,-4.3497,-4.3497,-4.3497,-4.3497,-4.3497,-4.3497,-4.3497,-4.3497,-4.3497,-4.3497,-4.3497,-4.3497,-4.3497,-4.3497,-4.3497,-4.3497,-4.3497,-4.3497,-4.3497,-4.3497,-4.3497,-4.3571,-4.3993,-4.4103,-4.4287,-4.5094,-4.5296,-4.5498,-4.6324,-4.6507,-4.6728,-4.7535,-4.7719,-4.7829,-4.8233,-4.8306,-4.8306,-4.8306,-4.8306,-4.8306,-4.8306,-4.8306,-4.8306,-4.8306,-4.8306,-4.8306,-4.8306,-4.8306,-4.8306,-4.8306,-4.8306,-4.8306,-4.8306,-4.8306,-4.8306,-4.8306,-4.8306,-4.8306,-4.8306,-4.7517,-4.7113,-4.7113,-4.548,-4.4488,-4.4085,-4.3681,-4.3375,0.0,0.0,0.0,0.0,0.0,-2.569,0.0,0.0,0.0,-2.2699,0.0,0.0,0.0,0.0,0.0,0.0,0.0,0.0,0.0,0.0,0.0,0.0,0.0,0.0,0.0,-3.7042,-3.7704,-3.808,-3.8392,-3.87,-3.9027,-3.9815,-4.0258,-4.0258,-4.1104,-4.1546,-4.1546,-4.2343,-4.2814,-4.2937,-4.3184,-4.3315,-4.3376,-4.3523,-4.3563,-4.3497,-4.3497,-4.3497,-4.3497,-4.3497,-4.3497,-4.3497,-4.3497,-4.3497,-4.3497,-4.3497,-4.3497,-4.3497,-4.3497,-4.3497,-4.3497,-4.3497,-4.3497,-4.3497,-4.3497,-4.3497,-4.3497,-4.3497,-4.3497,-4.3644,-4.4305,-4.447,-4.4672,-4.548,-4.5663,-4.5938,-4.6911,-4.7113,-4.7352,-4.8141,-4.8306,-4.8306,-4.8306,-4.8306,-4.8306,-4.8306,-4.8306,-4.8306,-4.8306,-4.8306,-4.8306,-4.8306,-4.8306,-4.8306,-4.8306,-4.8306,-4.8306,-4.8306,-4.8306,-4.8306,-4.8306,-4.8306,-4.8306,-4.8306,-4.7682,-4.7352,-4.7352,-4.6526,-4.5718,-4.4911,-4.4103,-4.3433,0.0,0.0,0.0,0.0,-2.7241,0.0,0.0,0.0,-2.3335,-2.2209,0.0,0.0,0.0,0.0,0.0,0.0,0.0,0.0,0.0,0.0,0.0,0.0,0.0,0.0,0.0,-3.4331,-3.5772,-3.8017,-3.6796,-3.6584,-3.8065,-3.8969,-3.9431,-3.9431,-4.0219,-4.0642,-4.0642,-4.1207,-4.151,-4.1544,-4.2716,-4.3154,-4.2909,-4.3608,-4.3772,-4.3497,-4.3497,-4.3497,-4.3497,-4.3497,-4.3497,-4.3497,-4.3497,-4.3497,-4.3497,-4.3497,-4.3497,-4.3497,-4.3497,-4.3497,-4.3497,-4.3497,-4.3497,-4.3497,-4.3497,-4.3497,-4.3497,-4.3497,-4.3497,-4.3516,-4.3608,-4.3626,-4.3828,-4.4654,-4.4856,-4.5259,-4.6783,-4.7113,-4.7352,-4.8141,-4.8306,-4.8306,-4.8306,-4.8306,-4.8306,-4.8306,-4.8306,-4.8306,-4.8306,-4.8306,-4.8306,-4.8306,-4.8306,-4.8306,-4.8306,-4.8306,-4.8306,-4.8306,-4.8306,-4.8306,-4.8306,-4.8306,-4.8306,-4.8306,-4.8214,-4.8159,-4.8159,-4.737,-4.6562,-4.5736,-4.4947,-4.4273,0.0,0.0,0.0,0.0,0.0,0.0,-2.4506,0.0,-2.3417,0.0,0.0,0.0,0.0,0.0,0.0,0.0,0.0,0.0,0.0,0.0,0.0,0.0,0.0,0.0,0.0,0.0,0.0,0.0,-3.4943,-3.5276,-3.6488,-3.7815,-3.8777,-3.9277,-3.9623,-4.0027,-4.0489,-4.0718,-4.0997,-4.13,-4.1879,-4.2465,-4.309,-4.3237,-4.3485,-4.3772,-4.3597,-4.3497,-4.3497,-4.3497,-4.3497,-4.3497,-4.3497,-4.3497,-4.3497,-4.3497,-4.3497,-4.3497,-4.3497,-4.3497,-4.3497,-4.3497,-4.3497,-4.3497,-4.3497,-4.3497,-4.3497,-4.3497,-4.3497,-4.3497,-4.3497,-4.3497,-4.3589,-4.392,-4.3993,-4.4433,-4.6067,-4.6416,-4.6783,-4.8049,-4.8306,-4.8306,-4.8306,-4.8306,-4.8306,-4.8306,-4.8306,-4.8306,-4.8306,-4.8306,-4.8306,-4.8306,-4.8306,-4.8306,-4.8306,-4.8306,-4.8306,-4.8306,-4.8306,-4.8306,-4.8306,-4.8306,-4.8306,-4.8306,-4.8306,-4.8306,-4.8306,-4.7976,-4.7456,-4.6761,-4.5352,-4.4418,-3.0021,0.0,0.0,0.0,0.0,0.0,0.0,0.0,0.0,0.0,0.0,0.0,0.0,0.0,0.0,0.0,0.0,0.0,0.0,0.0,0.0,0.0,0.0,0.0,0.0,0.0,0.0,0.0,0.0,-3.3141,-3.4699,-3.618,-3.7565,-3.8892,-3.9181,-3.9681,-4.0489,-4.0489,-4.0696,-4.1074,-4.1323,-4.1907,-4.2772,-4.2883,-4.32,-4.3669,-4.3553,-4.3497,-4.3497,-4.3497,-4.3497,-4.3497,-4.3497,-4.3497,-4.3497,-4.3497,-4.3497,-4.3497,-4.3497,-4.3497,-4.3497,-4.3497,-4.3497,-4.3497,-4.3497,-4.3497,-4.3497,-4.3497,-4.3497,-4.3497,-4.3497,-4.3497,-4.3497,-4.3497,-4.3497,-4.3864,-4.5278,-4.5736,-4.6305,-4.77,-4.8159,-4.8306,-4.8306,-4.8306,-4.8306,-4.8306,-4.8306,-4.8306,-4.8306,-4.8306,-4.8306,-4.8306,-4.8306,-4.8306,-4.8306,-4.8306,-4.8306,-4.8306,-4.8306,-4.8306,-4.8306,-4.8306,-4.8306,-4.8306,-4.8306,-4.8306,-4.8306,-4.8114,-4.7838,-4.7349,-4.5815,-4.4701,0.0,0.0,0.0,-2.5005,0.0,0.0,0.0,0.0,-2.7118,0.0,0.0,0.0,0.0,0.0,0.0,0.0,0.0,0.0,0.0,0.0,0.0,0.0,0.0,0.0,0.0,0.0,0.0,0.0,0.0,0.0,-3.2814,-3.3833,-3.5449,-3.7969,-3.8854,-3.9681,-4.0489,-4.0489,-4.0508,-4.0546,-4.1377,-4.1642,-4.1393,-4.2697,-4.3117,-4.2846,-4.3299,-4.3497,-4.3497,-4.3497,-4.3497,-4.3497,-4.3497,-4.3497,-4.3497,-4.3497,-4.3497,-4.3497,-4.3497,-4.3497,-4.3497,-4.3497,-4.3497,-4.3497,-4.3497,-4.3497,-4.3497,-4.3497,-4.3497,-4.3497,-4.3497,-4.3497,-4.3497,-4.3497,-4.3497,-4.3718,-4.4562,-4.5351,-4.6159,-4.7003,-4.7774,-4.8306,-4.8306,-4.8306,-4.8306,-4.8306,-4.8306,-4.8306,-4.8306,-4.8306,-4.8306,-4.8306,-4.8306,-4.8306,-4.8306,-4.8306,-4.8306,-4.8306,-4.8306,-4.8306,-4.8306,-4.8306,-4.8306,-4.8306,-4.8306,-4.8306,-4.8306,-4.7697,-4.7428,-4.7367,-4.6537,-4.5412,0.0,0.0,-2.9257,-2.7326,0.0,0.0,0.0,0.0,0.0,0.0,0.0,0.0,0.0,0.0,0.0,0.0,0.0,0.0,0.0,0.0,0.0,0.0,0.0,0.0,0.0,0.0,0.0,0.0,-2.8055,0.0,0.0,-3.2876,-3.4683,-3.6281,-3.7719,-3.8854,-3.97,-4.0219,-4.0489,-4.0489,-4.0796,-4.1171,-4.1642,-4.1871,-4.2511,-4.3453,-4.3181,-4.3323,-4.3804,-4.3597,-4.3497,-4.3497,-4.3497,-4.3497,-4.3497,-4.3497,-4.3497,-4.3497,-4.3497,-4.3497,-4.3497,-4.3497,-4.3497,-4.3497,-4.3497,-4.3497,-4.3497,-4.3497,-4.3497,-4.3497,-4.3497,-4.3497,-4.3497,-4.3497,-4.3497,-4.3718,-4.4544,-4.5333,-4.614,-4.6948,-4.7755,-4.8306,-4.8306,-4.8306,-4.8306,-4.8306,-4.8306,-4.8306,-4.8306,-4.8306,-4.8306,-4.8306,-4.8306,-4.8306,-4.8306,-4.8306,-4.8306,-4.8306,-4.8306,-4.8306,-4.8306,-4.8306,-4.8306,-4.8306,-4.8306,-4.8114,-4.7697,-4.7897,-4.7554,-4.671,-4.6443,-4.5534,-3.3227,-3.1955,0.0,-2.8764,-2.8148,0.0,-2.5596,0.0,0.0,0.0,0.0,0.0,0.0,0.0,0.0,0.0,0.0,0.0,0.0,0.0,0.0,0.0,0.0,0.0,0.0,0.0,-2.4884,-2.5703,0.0,0.0,0.0,0.0,-3.3398,-3.5435,-3.7123,-3.8411,-3.9277,-4.0085,-4.0489,-4.0489,-4.0489,-4.0777,-4.1338,-4.1304,-4.2063,-4.3338,-4.2958,-4.3278,-4.3986,-4.3646,-4.3497,-4.3497,-4.3497,-4.3497,-4.3497,-4.3497,-4.3497,-4.3497,-4.3497,-4.3497,-4.3497,-4.3497,-4.3497,-4.3497,-4.3497,-4.3497,-4.3497,-4.3497,-4.3497,-4.3497,-4.3497,-4.3497,-4.3497,-4.3497,-4.3497,-4.3718,-4.4544,-4.5333,-4.614,-4.6948,-4.7755,-4.8306,-4.8306,-4.8306,-4.8306,-4.8306,-4.8306,-4.8306,-4.8306,-4.8306,-4.8306,-4.8306,-4.8132,-4.7879,-4.7638,-4.7596,-4.7596,-4.7596,-4.7596,-4.7738,-4.7977,-4.7977,-4.7977,-4.7977,-4.7977,-4.7797,-4.7385,-4.7554,-4.7324,-4.6756,-4.6524,-4.574]}]]